     2              OBSERVATION DATA    GPS                 RINEX VERSION / TYPE
teqc 1997Jun30 19970702                                     PGM / RUN BY / DATE
                                                            COMMENT
BIT 2 OF LLI FLAGS DATA COLLECTED UNDER A-S CONDITION       COMMENT
BIT 2 OF LLI FLAGS DATA COLLECTED UNDER A-S CONDITION       COMMENT
Original Marker Name: HMCP                                  COMMENT
Campaign Name: HMC San Gabriel Valley 1993-1996             COMMENT
4-Character Station Name: HMCP                              COMMENT
6-Character Antenna Code: DMRCHT                            COMMENT
Vertical Measurement Point: BPA                             COMMENT
Vertical Offset to Rinex Ref. Point: 0.0000                 COMMENT
Radial Measurement Point: RRP                               COMMENT
Radial Offset to Rinex Ref. Point: 0.0000                   COMMENT
Antenna Height from Field Measurement: 0.0000 m             COMMENT
Additional Antenna Identification Info.:                    COMMENT
Turborogue and Ashtech Choke Ring                           COMMENT
Fixed antenna mounting on roof of Parsons                   COMMENT
building, HMC.                                              COMMENT
Original XYZ: -2458536.3819 -4680369.7129 3556390.0765      COMMENT
New XYZ position is based on association with SCEC monument COMMENT
E1D0R2C7+0011. Position of that monument is believed to be  COMMENT
valid to within 1 m horizontally; vertical accuracy         COMMENT
should be no worse than 3-times this value.                 COMMENT
                                                            COMMENT
Revised Rinex header created by UCSD GPS archive for        COMMENT
GSAC on 13-Apr-1999 (1999:103) 19:50:23 GMT                 COMMENT
For assistance contact dagnew@ucsd.edu or hjohnson@ucsd.edu COMMENT
                                                            COMMENT
HARVEY MUDD COLLEGE PHYSICS                                 MARKER NAME
GAL HARVEY MUDD COLLEGE                                     OBSERVER / AGENCY
T-262/263 TURBOROGUE SNR-8000 95.03.08                      REC # / TYPE / VERS
260/329 DORNE-MARGOL. TYPE T                                ANT # / TYPE
 -2458598.0000 -4680494.0000  3556451.0000                  APPROX POSITION XYZ
        0.0000        0.0000        0.0000                  ANTENNA: DELTA H/E/N
     1     1     0                                          WAVELENGTH FACT L1/2
     5    L1    L2    C1    P2    P1                        # / TYPES OF OBSERV
     0                                                      INTERVAL
  1996     3    14     0     0    0.000000                  TIME OF FIRST OBS
  1996     3    14    23    59   30.000000                  TIME OF LAST OBS
     0                                                      # OF SATELLITES
                                                            END OF HEADER
 96  3 14  0  0  0.0000000  0  7G24G 4G 9G 7G 2G26G 5
 -14301873.08244 -11144303.99444  21588501.1174   21588502.7924
  -9123854.95544  -7109491.11444  20593793.3324   20593792.8704
  -8944180.37144  -6969488.35544  21080407.0904   21080406.6734
   7935199.08444   6183272.14444  21870110.9674   21870111.9084
   8866324.23944   6908819.97844  23319628.7644   23319630.9594
    775665.31544                  25344761.9084
  -9451070.14644  -7364462.99644  23220247.2424   23220246.6634
 96  3 14  0  0 30.0000000  0  7G24G 4G 9G 7G 2G26G 5
 -14379880.70644 -11205089.10644  21573656.7554   21573657.9124
  -9132329.79644  -7116094.87144  20592180.6424   20592180.1714
  -8955456.59844  -6978275.02244  21078261.3414   21078261.2274
   7997229.78944   6231607.74944  21881914.6944   21881915.7094
   8939609.47944   6965925.32944  23333574.0544   23333577.2224
    845550.79644    658870.05344  25358066.2604
  -9533383.63844  -7428603.33544  23204583.0614   23204584.3264
 96  3 14  0  1  0.0000000  0  7G24G 4G 9G 7G 2G26G 5
 -14457498.70544 -11265570.61844  21558886.7074   21558887.7274
  -9140208.87844  -7122234.40044  20590681.1994   20590680.7944
  -8966166.34344  -6986620.27044  21076223.5914   21076223.3734
   8059359.79644   6280020.73744  21893738.1134   21893738.0754
   9013143.56444   7023224.58644  23347566.9644   23347568.3994
    915341.84644    713252.60344  25371350.3444
  -9615693.59444  -7492740.91644  23188919.7244   23188921.4504
 96  3 14  0  1 30.0000000  0  7G24G 4G 9G 7G 2G26G 5
 -14534716.17244 -11325740.03044  21544192.5924   21544193.6594
  -9147475.24644  -7127896.49044  20589298.4944   20589298.0384
  -8976300.50644  -6994517.01744  21074295.0184   21074294.6724
   8121598.54044   6328518.45444  21905581.9434   21905582.2954
   9086955.52544   7080740.36244  23361612.6164   23361612.9314
    985065.12344                  25384619.4474
  -9697976.90344  -7556857.73644  23173261.9674   23173262.3214
 96  3 14  0  2  0.0000000  0  7G24G 4G 9G 7G 2G26G 5
 -14611519.85144 -11385587.01044  21529577.2654   21529578.4204
  -9154141.86544  -7133091.24444  20588029.9414   20588029.4274
  -8985871.52944  -7001974.95044  21072473.5134   21072473.3384
   8183952.85244   6377106.22944  21917447.2284   21917447.4644
   9161048.18744   7138474.88744  23375712.3384   23375714.1094
   1054712.93944                  25397872.5814
  -9780233.26544  -7620953.59044  23157609.1044   23157609.1954
 96  3 14  0  2 30.0000000  0  6G24G 9G 7G 2G 5G 4
 -14687916.53244 -11445116.84844  21515039.0314   21515040.1354
  -8994894.85944  -7009006.12144  21070756.7614   21070756.1904
   8246402.40444   6425768.20944  21929331.1294   21929331.2544
   9235398.56244   7196410.20444  23389860.6134   23389862.6894
  -9862466.86744  -7685031.68244  23141960.0974   23141961.0644
  -9160224.87144  -7137831.23244  20586872.2674   20586871.8204
 96  3 14  0  3  0.0000000  0  6G24G 9G 7G 2G 5G 4
 -14763920.38944 -11504340.58944  21500576.2024   21500577.1684
  -9003373.82344  -7015613.10444  21069142.9094   21069142.9504
   8308932.20344   6474492.71544  21941230.3514   21941230.8944
   9309988.60444   7254532.28544  23404054.5544   23404056.6214
  -9944663.74044  -7749081.16644  23126318.9204   23126319.6004
  -9165730.46844  -7142121.29544  20585824.9194   20585824.3194
 96  3 14  0  3 30.0000000  0  6G24G 4G 9G 7G 2G 5
 -14839513.51844 -11563244.28744  21486191.1324   21486192.1544
  -9170651.32744  -7145955.71544  20584888.3674   20584887.8334
  -9011307.84544  -7021795.45944  21067633.4874   21067633.0504
   8371546.90344   6523283.38544  21953145.5084   21953145.9454
   9384820.30244   7312842.65744  23418294.9794   23418295.4634
 -10026806.15244  -7813088.20444  23110687.4404   23110687.7254
 96  3 14  0  4  0.0000000  0  7G24G 4G 9G 7G 2G26G 5
 -14914671.54644 -11621808.94444  21471889.0934   21471890.1294
  -9174949.32344  -7149304.78744  20584070.3674   20584069.8444
  -9018668.41044  -7027530.96344  21066232.8764   21066232.8544
   8434265.23644   6572154.79644  21965080.2044   21965080.5134
   9459911.16744   7371354.99844  23432584.4254   23432586.0474
         0.13754         0.72754  25450630.3704
 -10108858.19744  -7877024.84444  23095073.1884   23095073.5144
 96  3 14  0  4 30.0000000  0  7G24G 4G 9G 7G 2G26G 5
 -14989439.65744 -11680069.77244  21457661.2684   21457662.2984
  -9178651.22144  -7152189.36544  20583365.9144   20583365.5184
  -9025464.64044  -7032826.72444  21064939.2364   21064938.9514
   8497030.91244   6621063.11044  21977023.8574   21977024.4684
   9535217.98744   7430035.60144  23446914.6444   23446916.9594
     68949.89044                  25463748.9234
 -10190858.18844  -7940920.91744  23079469.1004   23079468.9564
 96  3 14  0  5  0.0000000  0  7G24G 4G 9G 7G 2G26G 5
 -15063820.11544 -11738028.53544  21443506.7144   21443508.0164
  -9181760.99644  -7154612.55244  20582774.1734   20582773.8904
  -9031696.66544  -7037682.84844  21063753.2834   21063753.1444
   8559842.96644   6670007.56944  21988977.2584   21988977.5644
   9610741.84144   7488885.33044  23461286.7014   23461288.3324
    137770.42144                  25476845.2444
 -10272823.19544  -8004789.72644  23063871.7794   23063871.7634
 96  3 14  0  5 30.0000000  0  6G24G 9G 7G 2G 5G 4
 -15137813.65544 -11795685.80344  21429426.4284   21429427.8054
  -9037370.30744  -7042103.87244  21062674.0444   21062673.4614
   8622706.37044   6718992.03344  22000939.1714   22000939.7934
   9686489.20144   7547909.21944  23475700.1854   23475701.3044
 -10354767.98544  -8068642.77944  23048278.6584   23048278.6164
  -9184282.84844  -7156577.61744  20582294.3064   20582293.7994
 96  3 14  0  6  0.0000000  0  6G24G 9G 7G 2G 5G 4
 -15211411.65244 -11853034.85844  21415421.4474   21415422.5144
  -9042468.10444  -7046076.18544  21061703.4044   21061703.1064
   8685630.18344   6768023.56644  22012913.0824   22012913.6254
   9762457.90844   7607105.58144  23490157.1254   23490159.7144
 -10436698.37044  -8132484.60144  23032688.1584   23032688.4294
  -9186211.83344  -7158080.70844  20581927.1594   20581926.5114
 96  3 14  0  6 30.0000000  0  6G24G 9G 7G 2G 5G 4
 -15284572.15644 -11910043.00844  21401498.9824   21401499.9074
  -9046962.98144  -7049578.68944  21060848.3084   21060848.0804
   8748659.05744   6817136.97544  22024907.5744   22024908.0774
   9838679.22844   7666498.78044  23504661.8374   23504663.5584
 -10518592.04344  -8196297.81544  23017104.1714   23017104.0484
  -9187531.51844  -7159109.01744  20581675.9534   20581675.4164
 96  3 14  0  7  0.0000000  0  6G24G 9G 7G 2G 5G 4
 -15357237.16644 -11966665.06344  21387671.2434   21387672.6174
  -9050833.18044  -7052594.42744  21060111.6524   21060111.6484
   8811855.26444   6866380.76944  22036933.2654   22036933.5424
   9915203.49144   7726128.04244  23519224.0864   23519226.5854
 -10600391.30844  -8260037.48044  23001538.3324   23001538.5774
  -9188193.72244  -7159625.00344  20581549.6254   20581549.0834
 96  3 14  0  7 30.0000000  0  6G24G 9G 7G 2G 5G 4
 -15429435.09644 -12022923.15244  21373932.6514   21373933.6784
  -9054110.72544  -7055148.35344  21059487.9264   21059487.6074
   8875183.31844   6915727.29444  22048984.4574   22048984.9614
   9991989.90444   7785961.58644  23533835.6194   23533837.4814
 -10682121.60844  -8323723.40744  22985985.0064   22985985.4334
  -9188238.31844  -7159659.73944  20581541.4514   20581541.0064
 96  3 14  0  8  0.0000000  0  6G24G 9G 7G 2G 5G 4
 -15501219.64644 -12078859.13344  21360272.6414   21360273.5174
  -9056852.42444  -7057284.74044  21058966.3414   21058966.2474
   8938575.23544   6965123.59044  22061047.7654   22061047.3154
  10068979.20444   7845953.19544  23548486.4144   23548486.9724
 -10763833.24744  -8387394.78844  22970435.9304   22970436.5074
  -9187731.04644  -7159264.44944  20581638.0254   20581637.4614
 96  3 14  0  8 30.0000000  0  6G24G 9G 7G 2G 5G 4
 -15572561.08644 -12134449.82844  21346696.3984   21346697.7044
  -9059034.86144  -7058985.33744  21058551.1014   21058550.6384
   9002062.35444   7014594.07044  22073128.7064   22073128.6714
  10146213.65844   7906135.86544  23563183.5474   23563186.1464
 -10845484.05044  -8451018.75344  22954897.7904   22954898.9774
  -9186640.03144  -7158414.29044  20581845.6484   20581845.1724
 96  3 14  0  9  0.0000000  0  6G24G 9G 7G 2G 5G 4
 -15643440.36344 -12189680.39844  21333208.7114   21333209.5954
  -9060620.26344  -7060220.71344  21058249.5324   21058249.2414
   9065659.79944   7064150.52144  22085231.1174   22085231.1094
  10223718.91844   7966529.52444  23577931.7644   23577935.5304
 -10927047.79644  -8514574.89544  22939376.8454   22939376.9774
  -9184941.51644  -7157090.76044  20582168.5194   20582168.0534
 96  3 14  0  9 30.0000000  0  6G24G 9G 7G 2G 5G 4
 -15713894.04644 -12244579.33644  21319801.7534   21319802.8704
  -9061628.29544  -7061006.19144  21058057.8694   21058057.5114
   9129341.27844   7113772.44844  22097349.1044   22097349.8204
  10301473.18144   8027117.21244  23592728.5044   23592729.3954
 -11008552.11744  -8578084.72944  22923867.2714   22923867.5924
  -9182666.35244  -7155317.88844  20582601.5414   20582601.1024
 96  3 14  0 10  0.0000000  0  6G24G 9G 7G 2G 5G 4
 -15783928.51944 -12299151.61144  21306474.8134   21306476.0584
  -9062064.77444  -7061346.30144  21057974.5704   21057974.5624
   9193111.16144   7163463.25544  22109483.9374   22109484.5534
  10379479.58544   8087901.37644  23607571.4494   23607573.7944
 -11089993.40144  -8641545.44844  22908369.3304   22908369.4554
  -9179804.68344  -7153087.99844  20583146.2884   20583145.5864
 96  3 14  0 10 30.0000000  0  6G24G 9G 7G 2G 5G 4
 -15853558.14744 -12353408.43044  21293224.7724   21293225.5524
  -9061934.27744  -7061244.61144  21057999.3224   21057998.9674
   9256966.69944   7213220.80344  22121635.1524   22121636.0274
  10457724.93344   8148871.74044  23622461.9614   23622463.6594
 -11171388.12744  -8704969.88144  22892880.8134   22892881.4114
  -9176362.93244  -7150406.10044  20583801.2444   20583800.6994
 96  3 14  0 11  0.0000000  0  6G24G 9G 7G 2G 5G 4
 -15922788.09744 -12407353.81144  21280050.9914   21280051.8184
  -9061243.87344  -7060706.63344  21058130.8924   21058130.5504
   9320895.64844   7263035.55744  22133800.5234   22133800.9084
  10536197.41044   8210019.09044  23637395.6054   23637397.2994
 -11252739.80244  -8768360.75244  22877400.0314   22877400.1974
  -9172351.51144  -7147280.30144  20584564.4114   20584563.9914
 96  3 14  0 11 30.0000000  0  6G24G 9G 7G 2G 5G 4
 -15991616.44044 -12460986.25044  21266952.9214   21266954.0314
  -9060009.93444  -7059745.11844  21058365.7484   21058365.8434
   9384888.50344   7312900.11444  22145977.5534   22145977.6974
  10614897.09844   8271343.46844  23652371.9294   23652374.2754
 -11334038.80244  -8831710.59744  22861930.1244   22861930.5784
  -9167766.12544  -7143707.25644  20585437.1364   20585436.6944
 96  3 14  0 12  0.0000000  0  6G24G 9G 7G 2G 5G 4
 -16060034.26744 -12514298.80544  21253933.4844   21253934.4654
  -9058228.95444  -7058357.33944  21058704.3514   21058704.3554
   9448923.74644   7362797.69744  22158163.3274   22158163.8714
  10693820.58944   8332842.24144  23667389.4754   23667390.9564
 -11415285.73144  -8895019.87444  22846468.5864   22846468.9184
  -9162605.44744  -7139685.93944  20586418.7924   20586418.3334
 96  3 14  0 12 30.0000000  0  6G24G 9G 7G 2G 5G 4
 -16128011.81544 -12567268.28844  21240997.7814   21240998.6834
  -9055885.89144  -7056531.57144  21059150.6814   21059150.6074
   9513007.68544   7412733.23244  22170358.4294   22170358.8744
  10772993.99044   8394535.76244  23682456.4254   23682457.5214
 -11496473.93144  -8958283.38444  22831018.4194   22831019.0604
  -9156855.80044  -7135205.68144  20587512.9684   20587512.5014
 96  3 14  0 13  0.0000000  0  6G24G 9G 7G 2G 5G 4
 -16195524.49344 -12619875.53444  21228150.3604   21228151.3844
  -9052978.66644  -7054266.20244  21059703.7234   21059703.5324
   9577144.52644   7462709.98444  22182563.3194   22182563.7214
  10852426.49444   8456431.15844  23697571.8354   23697573.3274
 -11577582.34144  -9021484.70744  22815583.8894   22815585.1274
  -9150506.21444  -7130257.94244  20588721.7404   20588721.1084
 96  3 14  0 13 30.0000000  0  6G24G 9G 7G 2G 5G 4
 -16262572.77244 -12672120.91344  21215391.6794   21215392.8894
  -9049503.57044  -7051558.33444  21060365.0594   21060364.6154
   9641330.41344   7512724.95444  22194777.1794   22194777.2224
  10932121.39044   8518531.06544  23712736.0024   23712736.9534
 -11658619.13944  -9084630.23544  22800163.6354   22800164.2894
  -9143553.91044  -7124840.54944  20590044.4984   20590043.8844
 96  3 14  0 14  0.0000000  0  6G24G 9G 7G 2G 5G 4
 -16329184.43444 -12724026.06944  21202715.8004   21202716.7224
  -9045488.06744  -7048429.36844  21061129.1054   21061128.6424
   9705545.86144   7562762.95944  22206997.0864   22206997.3084
  11012024.27544   8580792.98744  23727941.5754   23727941.8774
 -11739630.67544  -9147756.07244  22784747.2344   22784747.6004
  -9136039.65444  -7118985.27444  20591474.5494   20591474.0554
 96  3 14  0 14 30.0000000  0  6G24G 9G 7G 2G 5G 4
 -16395352.90944 -12775585.88644  21190124.3374   21190125.2944
  -9040928.71044  -7044876.61844  21061996.4664   21061996.0914
   9769821.76144   7612848.07344  22219228.2854   22219229.2634
  11092125.78844   8643209.75644  23743185.1184
 -11820603.21844  -9210851.53744  22769339.2084   22769338.4964
  -9127957.14044  -7112687.20444  20593012.2394   20593011.8064
 96  3 14  0 15  0.0000000  0  6G24G 9G 7G 2G 5G 4
 -16461055.72244 -12826782.85444  21177621.3614   21177622.2434
  -9035784.90744  -7040868.45844  21062975.1834   21062974.9934
   9834197.64944   7663011.09544  22231478.5384   22231479.7784
  11172446.33144   8705797.10244  23758469.5724
 -11901482.11044  -9273874.00944  22753949.2214   22753948.3004
  -9119271.82544  -7105919.41744  20594665.3064   20594664.7554
 96  3 14  0 15 30.0000000  0  6G24G 9G 7G 2G 5G 4
 -16526311.55444 -12877631.52344  21165203.7274   21165204.5754
  -9030049.37744  -7036399.21344  21064066.7234   21064066.5024
   9898665.66644   7713245.91844  22243746.9254   22243747.0854
  11252977.38744                  23773794.8684
 -11982278.74244  -9336832.39644  22738573.7544   22738573.4414
  -9109989.52744  -7098686.44844  20596431.4004   20596430.9714
 96  3 14  0 16  0.0000000  0  6G24G 9G 7G 2G 5G 4
 -16591142.57044 -12928149.16644  21152866.8124   21152867.4794
  -9023749.07744  -7031489.89044  21065265.7974   21065265.7554
   9963215.69644   7763544.64144  22256030.4974   22256030.6954
  11333691.34644                  23789154.9814
 -12063012.72344  -9399741.96344  22723210.2944   22723210.0074
  -9100133.54444  -7091006.45144  20598307.0484   20598306.5424
 96  3 14  0 16 30.0000000  0  6G24G 9G 7G 2G 5G 4
 -16655540.15344 -12978329.07144  21140612.3684   21140612.9964
  -9016882.88744  -7026139.61444  21066572.7894   21066572.3544
  10027844.35144   7813904.62344  22268328.0074   22268328.9924
  11414625.15344                  23804553.8314
 -12143673.24344  -9462594.29044  22707860.9874   22707861.3244
  -9089692.52544  -7082870.58344  20600294.0304   20600293.3364
 96  3 14  0 17  0.0000000  0  6G24G 9G 7G 2G 4G 5
 -16719493.95544 -13028163.17544  21128442.1764   21128443.1934
  -9009437.42144  -7020337.95044  21067989.4844   21067989.2054
  10092544.78244   7864320.53744  22280640.7674   22280641.1834
  11495812.56744                  23820003.3234
  -9078661.65044  -7074275.08444  20602393.0244   20602392.4184
 -12224257.31844  -9525387.05544  22692525.8284   22692526.1844
 96  3 14  0 17 30.0000000  0  6G24G 9G 7G 2G 5G 4
 -16782979.63244 -13077632.50644  21116361.1154   21116362.1824
  -9001404.28244  -7014078.36344  21069518.0424   21069517.5974
  10157332.34744   7914804.35244  22292969.4254   22292969.8074
  11577272.55744                  23835506.4744
 -12304771.01344  -9588124.97944  22677204.6224   22677204.6034
  -9067031.86844  -7065212.90644  20604605.9604   20604605.5354
 96  3 14  0 18  0.0000000  0  6G24G 9G 7G 2G 5G 4
 -16845982.15844 -13126725.35444  21104372.5054   21104373.0404
  -8992800.36344  -7007374.00944  21071155.1704   21071154.9564
  10222204.86144   7965354.35644  22305314.2884   22305315.0454
  11659009.25144                  23851060.0394
 -12385215.94144  -9650809.30544  22661896.3244   22661895.6974
  -9054804.44944  -7055685.03644  20606932.8704   20606932.2444
 96  3 14  0 18 30.0000000  0  6G24G 9G 7G 2G 4G 5
 -16908494.12144 -13175435.94744  21092476.5694   21092477.3974
  -8983624.98644  -7000224.36844  21072901.3624   21072900.8564
  10287143.72644   8015956.05944  22317671.7594   22317671.7134
  11741025.33544                  23866666.5894
  -9041983.01744  -7045694.30044  20609372.8774   20609372.3064
 -12465584.94044  -9713434.48444  22646603.2104   22646602.2284
 96  3 14  0 19  0.0000000  0  6G24G 4G 9G 7G 2G 5
 -16970489.38344 -13223743.91744  21080679.1594   21080680.0394
  -9028543.93144  -7035222.27044  20611930.1314   20611929.5744
  -8973854.75944  -6992611.20144  21074760.3694   21074760.2244
  10352174.80144   8066629.62544  22330046.8814   22330047.2214
  11823322.25944                  23882326.9304
 -12545846.40844  -9775975.87344  22631329.3164   22631329.2334
 96  3 14  0 19 30.0000000  0  7G24G 4G 9G 7G 2G20G 5
 -17031945.02844 -13271631.40344  21068984.8304   21068985.8674
  -9014478.08444  -7024261.85944  20614606.8704   20614606.1224
  -8963484.05844  -6984530.13844  21076733.7124   21076733.3994
  10417316.86044   8117389.66144  22342442.8124   22342442.9434
  11905893.39544                  23898039.8244
        -1.21754                  25210540.2084
 -12625980.94444  -9838418.34344  22616080.6094   22616081.1374
 96  3 14  0 20  0.0000000  0  7G24G 4G 9G 7G 2G20G 5
 -17092895.59944 -13319125.33044  21057386.0134   21057386.8274
  -8999815.03444  -7012836.09244  20617397.0394   20617396.4604
  -8952547.36644  -6976008.04344  21078814.7934   21078814.6114
  10482533.63244   8168207.91644  22354853.2224   22354853.9374
  11988689.26144                  23913797.2454
    -95558.94744                  25192354.4894
 -12706002.01444  -9900772.40144  22600852.8804   22600853.2484
 96  3 14  0 20 30.0000000  0  7G24G 4G 9G 7G 2G20G 5
 -17153427.94144 -13366293.36244  21045867.3854   21045868.1364
  -8984632.96844  -7001005.90444  20620286.0124   20620285.5284
  -8941116.18844  -6967100.63644  21080990.5494   21080990.1574
  10547751.22144   8219026.80244  22367263.6974   22367264.1064
  12071621.61744                  23929578.7624
   -191238.56844                  25174146.4014
 -12785975.73444  -9963089.57544  22585634.3934   22585634.4424
 96  3 14  0 21  0.0000000  0  5G24G 9G 7G 5G 4
 -17213546.88744 -13413139.26944  21034426.9244   21034427.9874
  -8929186.87644  -6957805.07044  21083260.5484   21083260.1704
  10612973.72344   8269849.52444  22379674.9424   22379675.4954
 -12865900.32444 -10025368.45944  22570425.8904   22570426.1584
  -8968930.63144  -6988770.29844  20623274.2074   20623273.2604
 96  3 14  0 21 30.0000000  0  5G24G 9G 7G 5G 4
 -17273217.72644 -13459635.99944  21023072.0764   21023072.6234
  -8916705.07244  -6948078.99644  21085635.5894   21085635.2174
  10678237.47144   8320704.38744  22392094.7614   22392095.1824
 -12945727.32844 -10087571.30444  22555235.1094   22555234.8394
  -8952672.00144  -6976101.22544  20626367.9704   20626367.4014
 96  3 14  0 22  0.0000000  0  6G24G 9G 7G20G 5G 4
 -17332441.60144 -13505784.44744  21011802.0544   21011802.6494
  -8903660.02344  -6937914.02844  21088118.1444   21088117.7784
  10743532.31144   8371583.47944  22404519.7584   22404520.2094
        -1.15654                  25119422.9264
 -13025455.14244 -10149696.84944  22540063.4674   22540063.7934
  -8935844.09644  -6962988.55844  20629570.2554   20629569.6544
 96  3 14  0 22 30.0000000  0  6G24G 9G 7G20G 4G 5
 -17391226.08744 -13551590.51544  21000615.6784   21000616.2874
  -8890064.21944  -6927319.89744  21090705.1854   21090705.1294
  10808845.79344   8422477.09044  22416948.4034   22416949.7094
    -96022.88344                  25101154.0194
  -8918459.47244  -6949442.08644  20632878.4614   20632877.7194
 -13105107.99944 -10211763.98944  22524905.9554   22524905.5564
 96  3 14  0 23  0.0000000  0  6G 9G 7G 5G20G24G 4
  -8875873.66044  -6916262.32744  21093405.7324   21093405.3054
  10874221.69044   8473419.34744  22429389.0684   22429389.2484
 -13184646.50244 -10273742.02444  22509770.7164   22509770.1354
   -192097.90844                  25082874.6234
 -17449529.09344 -13597021.40444  20989521.0184   20989521.4214
  -8900484.01344  -6935435.22644  20636298.9904   20636298.1394
 96  3 14  0 23 30.0000000  0  5G 9G 7G 5G24G 4
  -8861079.00644  -6904734.02544  21096221.2524   21096221.1524
  10939680.87944   8524426.49944  22441845.1234   22441845.6194
 -13264072.93944 -10335632.73344  22494655.9534   22494655.6194
 -17507335.35144 -13642065.21544  20978520.8404   20978521.3514
  -8881902.84244  -6920956.38144  20639834.8304   20639834.2024
 96  3 14  0 24  0.0000000  0  6G 9G 7G 5G20G24G 4
  -8845675.35144  -6892731.18344  21099151.9664   21099151.7584
  11005251.85244   8575520.76144  22454322.9244   22454323.5494
 -13343390.73544 -10397438.78844  22479562.2614   22479562.0644
        -0.55554        -0.52954  25046278.2744   25046275.1344
 -17564623.81444 -13686705.55144  20967619.1054   20967619.7144
  -8862698.27644  -6905991.77544  20643489.5794   20643488.8184
 96  3 14  0 24 30.0000000  0  6G 9G 7G 5G20G24G 4
  -8829670.38244  -6880259.78744  21102197.5874   21102197.5864
  11070942.66644   8626708.41544  22466823.5804   22466824.0484
 -13422601.11944 -10459161.14944  22464488.9604   22464489.3304
    -96164.31544    -74933.27444  25027980.4994
 -17621401.13344 -13730947.59144  20956814.8714   20956815.5084
  -8842889.63044  -6890556.45744  20647259.1244   20647258.3724
 96  3 14  0 25  0.0000000  0  6G 9G 7G 5G20G24G 4
  -8813074.32244  -6867327.80044  21105355.8664   21105355.6394
  11136732.88444   8677973.51144  22479343.1544   22479343.6684
 -13501706.05344 -10520801.34044  22449435.3154   22449435.7424
   -192354.03344                  25009679.9114
 -17677682.35444 -13774803.06444  20946104.5274   20946105.2004
  -8822497.62344  -6874666.57344  20651139.3424   20651138.8984
 96  3 14  0 25 30.0000000  0  6G 9G 7G 5G20G24G 4
  -8795888.61444  -6853936.34544  21108626.0784   21108625.7154
  11202620.51044   8729314.51544  22491880.8154   22491881.2904
 -13580698.71744 -10582354.03744  22434403.8634   22434404.2364
   -288558.91144                  24991376.1414
 -17733452.59744 -13818260.37044  20935491.9524   20935492.5624
  -8801517.65444  -6858318.53744  20655132.0654   20655131.1724
 96  3 14  0 26  0.0000000  0  6G 9G 7G 5G20G24G 4
  -8778137.41444  -6840104.24644  21112005.0244   21112004.4514
  11268577.74144   8780709.74744  22504432.6814   22504433.1194
 -13659569.53044 -10643811.80144  22419395.4924   22419395.2274
   -384781.54844   -299829.71144  24973058.2314   24973058.0444
 -17788719.61144 -13861325.54944  20924974.9114   20924975.9294
  -8779978.11144  -6841534.47044  20659230.5724   20659229.9404
 96  3 14  0 26 30.0000000  0  6G 9G 7G 5G20G24G 4
  -8759868.37544  -6825868.64144  21115480.7294   21115480.3094
  11334549.22444   8832116.09444  22516986.1594   22516987.0974
 -13738333.28044 -10705186.13144  22404407.1334   22404407.2224
   -481070.68544   -374860.14044  24954734.7414   24954733.2104
 -17843515.24044 -13904023.41544  20914547.6114   20914548.2424
  -8757924.24044  -6824349.62544  20663427.2624   20663426.6694
 96  3 14  0 27  0.0000000  0  6G 9G 7G20G 5G24G 4
  -8741105.00544  -6811247.84344  21119051.5454   21119051.3254
  11400508.68844   8883513.06644  22529538.2564   22529539.1814
   -577451.75444   -449962.25844  24936395.5934   24936390.4544
 -13817008.32844 -10766491.33644  22389435.7694   22389435.6804
 -17897854.91744 -13946365.99044  20904207.0824   20904207.7574
  -8735370.64244  -6806775.38544  20667719.1874   20667718.5514
 96  3 14  0 27 30.0000000  0  6G 9G 7G 5G20G24G 4
  -8721814.19944  -6796216.05444  21122722.2134   21122721.7374
  11466500.36444   8934935.14444  22542095.7154   22542096.7734
 -13895559.38644 -10827699.92244  22374487.9094   22374487.7194
   -673885.46244                  24918045.8524
 -17951694.28544 -13988318.71644  20893961.8914   20893962.4134
  -8712272.37044  -6788776.72044  20672114.4804   20672113.8904
 96  3 14  0 28  0.0000000  0  6G 9G 7G 5G20G24G 4
  -8701981.53144  -6780762.02744  21126496.3404   21126496.3554
  11532538.49444   8986393.41644  22554662.4674   22554663.0514
 -13973975.74344 -10888803.55144  22359565.2714   22359565.6624
   -770360.59544   -600280.81144  24899686.0994   24899682.8764
 -18005016.59844 -14029868.54144  20883814.9374   20883815.7854
  -8688613.30344  -6770341.08144  20676616.9114   20676616.3054
 96  3 14  0 28 30.0000000  0  6G 9G 7G 5G20G24G 4
  -8681580.41744  -6764865.05844  21130378.3464   21130377.9404
  11598650.03744   9037908.91044  22567243.8414   22567243.8894
 -14052258.05944 -10949802.73844  22344668.4894   22344668.6984
   -866867.11244   -675480.64244  24881321.7134   24881319.4714
 -18057821.42244 -14071015.13044  20873766.3924   20873767.2304
  -8664370.09844  -6751450.25944  20681229.9834   20681229.4814
 96  3 14  0 29  0.0000000  0  6G 9G 7G 5G20G24G 4
  -8660629.22544  -6748539.45744  21134365.5754   21134365.3214
  11664803.86744   9089457.34444  22579831.7854   22579831.9924
 -14130462.61544 -11010741.32144  22329787.1554   22329787.3714
   -963437.85944   -750730.50744  24862944.0034   24862942.6744
 -18110151.33044 -14111791.65544  20863808.4254   20863809.1654
  -8639566.48644  -6732122.76344  20685950.0844   20685949.5274
 96  3 14  0 29 30.0000000  0  6G 9G 7G 5G20G24G 4
  -8639116.42444  -6731776.24644  21138459.3774   21138459.0124
  11731017.45144   9141052.33344  22592431.8174   22592432.3314
 -14208581.11544 -11071612.85644  22314921.5494   22314921.3814
  -1060065.88444   -826025.01344  24844555.1394
 -18161998.97244 -14152192.38944  20853942.1504   20853942.7444
  -8614187.59044  -6712346.98844  20690779.2294   20690778.5194
 96  3 14  0 30  0.0000000  0  6G 9G 7G 5G20G24G 4
  -8617063.40144  -6714592.07544  21142655.7364   21142655.4024
  11797260.38344   9192670.18244  22605037.4864   22605038.2194
 -14286645.65344 -11132442.34044  22300066.3274   22300065.9414
  -1156780.75844   -901387.22144  24826151.0754
 -18213412.86544 -14192255.13344  20844158.5104   20844159.1704
  -8588264.17144  -6692146.91044  20695712.5284   20695711.8844
 96  3 14  0 30 30.0000000  0  6G 9G 7G 5G20G24G 4
  -8594490.31044  -6697002.66144  21146951.2854   21146951.2354
  11863514.80444   9244297.00744  22617645.1254   22617645.1494
 -14364678.90644 -11193247.45844  22285216.9444   22285217.1064
  -1253597.34744   -976828.70544  24807725.9114   24807723.3724
 -18264416.08744 -14231997.87644  20834453.1084   20834453.4774
  -8561817.24044  -6671538.89944  20700745.2424   20700744.4214
 96  3 14  0 31  0.0000000  0  6G 9G 7G 5G20G24G 4
  -8571332.71544  -6678957.78744  21151358.0514   21151357.7074
  11929851.23744   9295987.71444  22630268.6044   22630268.9094
 -14442591.12344 -11253958.25844  22270390.6524   22270390.3394
  -1350428.09844  -1052281.24444  24789298.2004   24789298.4914
 -18314901.82644 -14271337.38844  20824845.9804   20824846.3644
  -8534766.60744  -6650460.47344  20705892.6574   20705891.8964
 96  3 14  0 31 30.0000000  0  6G 9G 7G 5G20G24G 4
  -8547572.01744  -6660442.96444  21155879.2064   21155879.2854
  11996303.29144   9347768.52444  22642914.7654   22642914.6694
 -14520329.23144 -11314533.38844  22255597.8254   22255597.5994
  -1447231.61844  -1127712.43444  24770880.8104   24770883.2934
 -18364828.17944 -14310241.01544  20815345.1594   20815345.5584
  -8507093.67144  -6628897.13444  20711158.5124   20711157.6884
 96  3 14  0 32  0.0000000  0  6G 9G 7G 5G20G24G 4
  -8523250.13744  -6641490.85844  21160508.2614   21160507.5894
  12062820.64144   9399600.23044  22655571.3014   22655571.7634
 -14597925.55744 -11374998.03744  22240831.7814   22240831.6124
  -1544039.50644  -1203147.16544  24752456.6904   24752456.7444
 -18414210.85044 -14348720.99444  20805948.1854   20805948.6344
  -8478850.59644  -6606889.53044  20716533.2084   20716532.7134
 96  3 14  0 32 30.0000000  0  6G 9G 7G 5G20G24G 4
  -8498390.50444  -6622119.71944  21165238.7214   21165238.5854
  12129381.32544   9451465.69944  22668236.8434   22668237.7014
 -14675389.63044 -11435359.62844  22226091.3714   22226090.8164
  -1640869.38144  -1278598.94344  24734028.5484   24734030.6424
 -18463039.33444 -14386769.14144  20796656.3074   20796656.6994
  -8450069.47744  -6584462.67744  20722010.0654   20722009.4374
 96  3 14  0 33  0.0000000  0  6G 9G 7G 5G20G24G 4
  -8473004.75544  -6602338.62144  21170069.2944   21170068.8464
  12195970.95644   9503353.69944  22680909.5814   22680910.1874
 -14752715.32144 -11495613.40144  22211376.4304   22211375.8684
  -1737730.54744  -1354075.17144  24715594.9764   24715598.0844
 -18511333.83344 -14424401.19544  20787466.1854   20787466.8194
  -8420769.33744  -6561631.38944  20727585.3754   20727584.7334
 96  3 14  0 33 30.0000000  0  6G 9G 7G 5G20G24G 4
  -8447066.31244  -6582126.85244  21175004.8024   21175004.3894
  12262609.73444   9555280.00144  22693590.4704   22693590.5284
 -14829893.04344 -11555751.87644  22196689.8484   22196689.6464
  -1834623.19144  -1429575.88844  24697157.4784
 -18559109.40744 -14461628.89244  20778374.3404   20778374.9134
  -8390946.15344  -6538392.53844  20733260.8824   20733260.1424
 96  3 14  0 34  0.0000000  0  6G 9G 7G 5G20G24G 4
  -8420578.08244  -6561486.68244  21180045.3934   21180045.0074
  12329300.22344   9607246.60144  22706281.5874   22706281.2464
 -14906935.95844 -11615785.30344  22182028.6854   22182028.8384
  -1931563.87144  -1505114.00244  24678710.0044
 -18606383.88844 -14498466.12744  20769378.3074   20769378.7704
  -8360602.87944  -6514748.41944  20739034.7534   20739034.0914
 96  3 14  0 34 30.0000000  0  6G 9G 7G 5G20G24G 4
  -8393555.65344  -6540430.23944  21185187.7074   21185187.6534
  12396043.64044   9659254.45244  22718982.6254   22718982.2984
 -14983857.26844 -11675723.97344  22167391.0154   22167390.8954
  -2028562.77544  -1580697.46744  24660251.5444
 -18653202.74744 -14534948.33444  20760469.0204   20760469.6074
  -8329739.98544  -6490699.40444  20744907.9514   20744907.0374
 96  3 14  0 35  0.0000000  0  6G 9G 7G 5G20G24G 4
  -8366035.20644  -6518985.73844  21190424.6174   21190424.2904
  12462805.69444   9711276.82444  22731686.7164   22731686.3674
 -15060694.58544 -11735597.18644  22152769.9564   22152769.7814
  -2125655.79844  -1656354.28444  24641776.7444   24641776.5364
 -18699614.87044 -14571113.60244  20751636.9294   20751637.4844
  -8298370.89244  -6466255.94844  20750877.2854   20750876.4944
 96  3 14  0 35 30.0000000  0  6G 9G 7G 5G20G24G 4
  -8337995.32544  -6497136.47944  21195761.1214   21195760.6884
  12529595.02744   9763320.45844  22744396.5484   22744397.4644
 -15137440.28544 -11795399.01244  22138165.0104   22138164.5514
  -2222823.44144  -1732069.27544  24623284.6654   24623285.2794
 -18745584.80744 -14606934.30944  20742889.3204   20742889.8324
  -8266480.47444  -6441406.26744  20756945.7104   20756945.0384
 96  3 14  0 36  0.0000000  0  6G 9G 7G 5G20G24G 4
  -8309416.81444  -6474867.51544  21201199.1204   21201198.8694
  12596415.83544   9815388.60644  22757111.7064   22757112.1754
 -15214062.25944 -11855104.43244  22123584.5234   22123584.1714
  -2320020.07544  -1807806.86444  24604789.6584   24604789.1014
 -18791068.23744 -14642375.92144  20734233.9764   20734234.4464
  -8234046.89844  -6416133.34044  20763117.5874   20763116.8064
 96  3 14  0 36 30.0000000  0  6G 9G 7G 5G20G24G 4
  -8280279.88644  -6452163.42044  21206743.5764   21206743.3674
  12663263.12944   9867477.39144  22769833.2064   22769833.2324
 -15290536.59144 -11914694.80244  22109032.1034   22109032.0944
  -2417203.29144  -1883534.03644  24586297.0254   24586296.9084
 -18836028.58044 -14677409.93344  20725678.3594   20725678.9794
  -8201057.74844  -6390427.50544  20769395.3314   20769394.6254
 96  3 14  0 37  0.0000000  0  6G 9G 7G 5G20G24G 4
  -8250580.07844  -6429020.71344  21212394.8814   21212394.7774
  12730127.01344   9919579.10344  22782555.9474   22782556.9564
 -15366850.87144 -11974160.45544  22094510.3374   22094509.9904
  -2514362.81044  -1959242.64844  24567808.8244   24567809.1894
 -18880421.49544 -14712001.79244  20717230.8204   20717231.3544
  -8167523.71944  -6364297.08544  20775776.5454   20775776.0344
 96  3 14  0 37 30.0000000  0  6G 9G 7G 5G20G24G 4
  -8220341.21844  -6405457.97644  21218149.3784   21218149.4534
  12796987.66844   9971678.30844  22795279.2814   22795279.0674
 -15443010.49044 -12033505.59344  22080017.1314   22080017.4014
  -2611509.57044  -2034941.34644  24549323.1564   24549322.4464
 -18924260.02444 -14746161.66444  20708888.4014   20708888.9374
  -8133478.16444  -6337768.07244  20782255.3404   20782254.6904
 96  3 14  0 38  0.0000000  0  6G 9G 7G 5G20G24G 4
  -8189585.63844  -6381492.59744  21224002.2374   21224002.0564
  12863862.71944  10023788.71744  22808005.3464   22808005.8534
 -15519010.93644 -12092726.70044  22065554.7844   22065554.6204
  -2708646.70844  -2110632.55044  24530840.4244   24530839.9484
 -18967554.77644 -14779897.81244  20700649.8354   20700650.3784
  -8098914.68844  -6310835.48744  20788832.6534   20788832.0084
 96  3 14  0 38 30.0000000  0  6G 9G 7G20G 5G24G 4
  -8158318.05744  -6357128.25644  21229951.9714   21229952.0224
  12930773.09644  10075926.67244  22820737.8464   22820738.2614
  -2805796.89844  -2186333.96744  24512351.8694   24512350.0754
 -15594860.74044 -12151830.41844  22051120.9274   22051120.7144
 -19010310.86344 -14813214.22044  20692513.5774   20692514.0954
  -8063822.31844  -6283490.77144  20795510.2994   20795509.3924
 96  3 14  0 39  0.0000000  0  6G 9G 7G20G 5G24G 4
  -8126538.23044  -6332364.75844  21236000.0374   21235999.6584
  12997734.80844  10128104.62144  22833480.4444   22833480.9524
  -2902983.74844  -2262063.96644  24493857.5104   24493858.7624
 -15670565.55544 -12210821.15944  22036715.1304   22036715.0034
 -19052554.58344 -14846131.38644  20684474.9404   20684475.4544
  -8028194.48844  -6255728.82044  20802289.9034   20802289.0124
 96  3 14  0 39 30.0000000  0  6G 9G 7G20G 5G24G 4
  -8094240.79544  -6307197.93144  21242145.9854   21242145.8224
  13064763.97944  10180335.11344  22846236.0174   22846236.4714
  -3000210.85844  -2337825.31444  24475355.7104   24475354.7584
 -15746122.95044 -12269697.02544  22022336.8634   22022336.7434
 -19094317.62644 -14878673.99644  20676527.7204   20676528.2214
  -7992019.53844  -6227540.54044  20809173.9754   20809173.2074
 96  3 14  0 40  0.0000000  0  6G 9G 7G20G 5G24G 4
  -8061402.60944  -6281609.73844  21248394.7194   21248394.5354
  13131884.67744  10232636.95844  22859008.1534   22859007.9564
  -3097477.16344  -2413617.16544  24456845.8334   24456845.0334
 -15821533.39344 -12328458.38144  22007986.4564   22007986.2114
 -19135577.89144 -14910824.83144  20668675.9094   20668676.3464
  -7955286.11144  -6198917.08444  20816163.9644   20816163.3374
 96  3 14  0 40 30.0000000  0  6G 9G 7G20G 5G24G 4
  -8028017.17744  -6255595.12344  21254747.8824   21254747.5074
  13199065.75944  10284985.84844  22871792.1814   22871791.0284
  -3194794.38844  -2489448.74244  24438326.4504   24438326.2634
 -15896803.82044 -12387110.64444  21993663.3104   21993663.3074
 -19176339.55244 -14942587.14344  20660919.2894   20660919.8364
  -7918012.04544  -6169872.35044  20823256.8814   20823256.2474
 96  3 14  0 41  0.0000000  0  6G 9G 7G20G 5G24G 4
  -7994086.75344  -6229155.84044  21261204.4234   21261204.3684
  13266303.41144  10337378.80844  22884587.9294   22884587.4224
  -3292144.23844  -2565305.75344  24419800.5334   24419803.6744
 -15971913.86744 -12445637.93844  21979369.6994   21979370.1084
 -19216589.31444 -14973950.57444  20653260.0844   20653260.5114
  -7880220.25244  -6140424.19644  20830448.4564   20830447.7174
 96  3 14  0 41 30.0000000  0  6G 9G 7G20G 5G24G 4
  -7959622.76644  -6202300.79344  21267762.6174   21267762.6354
  13333588.89644  10389809.04044  22897390.7824   22897391.0164
  -3389523.37444                  24401266.5414
 -16046856.32744 -12504034.63444  21965109.0624   21965109.0744
 -19256294.48544 -15004889.64844  20645704.4614   20645704.8934
  -7841921.02544  -6110580.63444  20837736.6164   20837735.7034
 96  3 14  0 42  0.0000000  0  6G 9G 7G20G 5G24G 4
  -7924627.77044  -6175031.96944  21274421.8394   21274421.5014
  13400916.17344  10442271.84944  22910202.9504   22910204.6474
  -3486911.59644  -2717072.51044  24382734.2364
 -16121620.02044 -12562292.03344  21950882.5154   21950882.3844
 -19295430.05744 -15035384.87744  20638257.4334   20638257.9964
  -7803106.56644  -6080335.59444  20845123.0714   20845122.4994
 96  3 14  0 42 30.0000000  0  6G 9G 7G20G 5G24G 4
  -7889102.99844  -6147350.33344  21281182.2874   21281181.8314
  13468279.28144  10494762.57744  22923022.0944   22923023.1154
  -3584273.74144  -2792939.04844  24364209.3674   24364213.0574
 -16196178.52444 -12620389.54744  21936694.1194   21936693.6844
 -19333998.67144 -15065438.32344  20630917.7354   20630918.2744
  -7763762.66544  -6049678.00644  20852609.7664   20852609.0894
 96  3 14  0 43  0.0000000  0  6G 9G 7G20G 5G24G 4
  -7853070.84244  -6119273.33144  21288039.0114   21288038.5344
  13535666.16144  10547271.80344  22935845.1814   22935845.8364
  -3681622.11944  -2868794.84344  24345685.0034   24345687.4074
 -16270552.54844 -12678343.31744  21922541.0454   21922540.4974
 -19372031.60444 -15095074.35544  20623680.3344   20623680.8404
  -7723899.70644  -6018615.95344  20860195.3404   20860194.7784
 96  3 14  0 43 30.0000000  0  6G 9G 7G20G 5G24G 4
  -7816524.98644  -6090796.04744  21294993.8594   21294993.4984
  13603081.96144  10599803.59644  22948674.6344   22948675.4834
  -3778947.94544  -2944633.12944  24327164.3344   24327163.8044
 -16344745.52844 -12736156.01544  21908421.9254   21908422.0944
 -19409540.03044 -15124301.68344  20616542.5874   20616543.2194
  -7683490.88144  -5987128.55144  20867885.0264   20867884.1824
 96  3 14  0 44  0.0000000  0  6G 9G 7G20G 5G24G 4
  -7779455.98044  -6061911.11244  21302047.4724   21302047.0684
  13670536.78644  10652365.79444  22961509.7044   22961511.0814
  -3876246.15844  -3020449.88944  24308649.9614   24308650.9304
 -16418753.63544 -12793824.65344  21894338.9194   21894339.0914
 -19446542.41144 -15153134.69344  20609501.4324   20609501.8624
  -7642537.08744  -5955216.50144  20875678.2794   20875677.7704
 96  3 14  0 44 30.0000000  0  6G 9G 7G20G 5G24G 4
  -7741836.54044  -6032597.26744  21309205.9094   21309205.8114
  13738049.28544  10704972.90344  22974357.0774   22974358.9974
  -3973521.11444  -3096248.47844  24290138.2064   24290140.3994
 -16492581.50544 -12851352.84344  21880290.4814   21880290.3764
 -19483029.00844 -15181565.78844  20602558.3094   20602558.7214
  -7601042.89144  -5922883.35544  20883574.3814   20883573.6514
 96  3 14  0 45  0.0000000  0  6G 9G 7G20G 5G24G 4
  -7703667.56744  -6002855.21744  21316469.2154   21316469.1604
  13805625.43044  10757629.64744  22987216.8704   22987217.3994
  -4070795.30444  -3172046.49044  24271628.4944   24271629.8654
 -16566248.18744 -12908755.43744  21866272.2364   21866271.9164
 -19518991.12244 -15209588.19444  20595714.7924   20595715.1424
  -7559033.50144  -5890148.76344  20891568.4074   20891567.6354
 96  3 14  0 45 30.0000000  0  6G 9G 7G20G 5G24G 4
  -7664947.37044  -5972683.65044  21323837.5114   21323837.3024
  13873265.84944  10810336.45544  23000088.8064   23000089.3224
  -4168066.68944  -3247842.30144  24253118.2384   24253118.1044
 -16639744.63944 -12966025.38244  21852286.0974   21852285.8744
 -19554407.07044 -15237185.01744  20588975.4384   20588975.7794
  -7516526.25544  -5857026.22744  20899657.4184   20899656.7684
 96  3 14  0 46  0.0000000  0  6G 9G 7G20G 5G24G 4
  -7625686.14244  -5942090.49344  21331308.9424   21331308.6684
  13940947.21544  10863075.16244  23012968.0844   23012968.2144
  -4265357.54244  -3323653.31444  24234605.4624   24234605.3394
 -16713095.55544 -13023181.92844  21838327.9474   21838327.6344
 -19589292.78644 -15264368.67444  20582336.5944   20582337.0484
  -7473557.88744  -5823544.37744  20907834.0654   20907833.4054
 96  3 14  0 46 30.0000000  0  6G 9G 7G20G 5G24G 4
  -7585901.71344  -5911089.64844  21338879.5044   21338879.1204
  14008649.23644  10915829.98044  23025851.2144   23025851.1854
  -4362666.64344  -3399478.53344  24216086.5724   24216089.3044
 -16786313.56944 -13080234.91644  21824394.7704   21824395.0614
 -19623657.54944 -15291146.39244  20575797.2974   20575797.7264
  -7430139.37044  -5789711.76344  20916095.9914   20916095.2614
 96  3 14  0 47  0.0000000  0  6G 9G 7G20G 5G24G 4
  -7545622.70944  -5879703.42144  21346544.1544   21346543.9944
  14076359.95344  10968591.55944  23038736.1304   23038735.8784
  -4459986.06344  -3475311.77044  24197567.6754   24197565.6394
 -16859377.54144 -13137167.86644  21810491.3904   21810491.7044
 -19657514.69044 -15317528.56244  20569354.6584   20569355.0954
  -7386269.09344  -5755527.12444  20924444.2784   20924443.4194
 96  3 14  0 47 30.0000000  0  6G 9G 7G20G 5G24G 4
  -7504889.24444  -5847963.06844  21354295.5844   21354295.4834
  14144050.94044  11021337.79044  23051617.5934   23051617.4794
  -4557327.17444  -3551161.93244  24179043.6214   24179044.6614
 -16932298.07944 -13193989.04744  21796615.3424   21796615.1424
 -19690905.10544 -15343547.05144  20563000.5164   20563000.9804
  -7341955.98044  -5720997.42044  20932876.9584   20932876.0444
 96  3 14  0 48  0.0000000  0  6G 9G 7G20G 5G24G 4
  -7463700.65144  -5815868.06544  21362133.4624   21362133.1364
  14211744.16044  11074085.72544  23064498.9234   23064500.2334
  -4654676.66144  -3627018.66244  24160519.4414   24160518.8744
 -17005056.70244 -13250684.06444  21782769.2674   21782768.9144
 -19723823.48144 -15369197.71644  20556736.3704   20556736.7914
  -7297174.30144  -5686102.60444  20941398.4414   20941397.7674
 96  3 14  0 48 30.0000000  0  6G 9G 7G20G 5G24G 4
  -7422050.30044  -5783413.25244  21370059.3374   21370058.9184
  14279465.03844  11126855.20944  23077385.5464   23077385.2974
  -4752003.81644  -3702857.95944  24141998.5824   24141998.2134
 -17077614.30944 -13307222.44444  21768961.9674   21768961.6374
 -19756230.70244 -15394450.07944  20550569.4384   20550569.8134
  -7251896.37344  -5650821.09544  20950014.7534   20950014.1314
 96  3 14  0 49  0.0000000  0  6G 9G 7G20G 5G24G 4
  -7379956.60144  -5750612.97944  21378069.4114   21378069.4324
  14347199.61844  11179635.37944  23090274.5654   23090275.0964
  -4849327.79444  -3778694.75544  24123477.8534   24123479.5904
 -17149982.68744 -13363613.37444  21755190.4934   21755190.2614
 -19788128.59544 -15419305.56344  20544499.5254   20544499.9264
  -7206130.40044  -5615159.29944  20958723.4744   20958723.0114
 96  3 14  0 49 30.0000000  0  6G 9G 7G20G 5G24G 4
  -7337390.80244  -5717444.83744  21386169.4254   21386169.2254
  14414978.83744  11232450.35144  23103173.4384   23103173.5244
  -4946633.98144  -3854517.75344  24104962.3214   24104960.1024
 -17222152.76644 -13419849.78244  21741457.2334   21741456.9144
 -19819485.66844 -15443739.63144  20538532.5684   20538532.8834
  -7159848.16844  -5579095.22144  20967530.6904   20967529.9084
 96  3 14  0 50  0.0000000  0  6G 9G 7G20G 5G24G 4
  -7294326.78144  -5683888.46544  21394364.4404   21394363.9014
  14482812.96444  11285308.10944  23116082.2724   23116082.3844
  -5043920.51744  -3930325.36544  24086449.0694   24086450.7644
 -17294126.10544 -13475932.90244  21727761.3604   21727760.7454
 -19850278.51544 -15467734.03844  20532672.6434   20532672.9584
  -7113053.84844  -5542632.10744  20976435.5484   20976434.9614
 96  3 14  0 50 30.0000000  0  6G 4G 9G 7G20G 5G24
  -7065782.01644  -5505796.91444  20985431.2264   20985430.2694
  -7250780.44144  -5649956.25844  21402651.1974   21402650.8364
  14550673.56444  11338186.49444  23128995.3414   23128995.7854
  -5141211.00744  -4006136.13344  24067934.5764   24067934.2244
 -17365937.84144 -13531890.08944  21714096.2144   21714095.7944
 -19880526.25544 -15491303.68944  20526916.5944   20526916.9914
 96  3 14  0 51  0.0000000  0  6G 4G 9G 7G24G20G 5
  -7017997.19244  -5468561.98144  20994523.9024   20994523.2364
  -7206712.50544  -5615617.61644  21411036.5774   21411036.6404
  14618596.68744  11391113.59144  23141920.6034   23141920.2654
 -19910207.95444 -15514432.27044  20521268.4444   20521268.8614
  -5238474.36144  -4081925.69944  24049425.9674   24049426.6924
 -17437554.05844 -13587694.91044  21700467.8334   21700467.7624
 96  3 14  0 51 30.0000000  0  6G 4G 9G 7G20G 5G24
  -6969724.64944  -5430947.01444  21003710.0054   21003709.3794
  -7162110.90144  -5580863.12944  21419524.1884   21419524.2054
  14686585.15744  11444091.57944  23154858.3034   23154859.7404
  -5335719.48544  -4157701.08044  24030920.2984   24030924.3364
 -17508972.34044 -13643345.48944  21686877.5524   21686877.4244
 -19939334.33844 -15537128.13844  20515725.9244   20515726.3584
 96  3 14  0 52  0.0000000  0  6G 4G 9G 7G24G20G 5
  -6920997.90044  -5392978.11344  21012982.2764   21012981.7874
  -7116986.32844  -5545701.13044  21428111.1884   21428110.7534
  14754612.96044  11497100.25044  23167803.8084   23167803.6814
 -19967920.67144 -15559403.18944  20510286.1384   20510286.5034
  -5432954.12844  -4233468.31344  24012415.9184   24012417.8404
 -17580195.84744 -13698844.31444  21673324.3134   21673323.7594
 96  3 14  0 52 30.0000000  0  6G 4G 9G 7G20G 5G24
  -6871820.19144  -5354657.82044  21022340.3994   21022339.9854
  -7071363.29044  -5510150.71744  21436793.0424   21436793.0774
  14822656.36444  11550121.09244  23180752.0824   23180752.8254
  -5530191.69444  -4309237.79644  23993912.5704   23993914.4304
 -17651227.01544 -13754193.27544  21659807.4824   21659807.0404
 -19995994.35344 -15581278.76944  20504943.8964   20504944.1264
 96  3 14  0 53  0.0000000  0  6G 4G 9G 7G24G20G 5
  -6822199.66944  -5315992.47444  21031783.2034   21031782.3094
  -7025252.20444  -5474220.00244  21445567.4464   21445567.3654
  14890700.05744  11603142.13244  23193700.7234   23193701.3334
 -20023568.30544 -15602764.94844  20499696.8564   20499697.2214
  -5627439.85944  -4385015.52644  23975405.8254   23975404.8294
 -17722066.35644 -13809392.74444  21646327.1074   21646327.3324
 96  3 14  0 53 30.0000000  0  6G 4G 9G 7G20G 5G24
  -6772123.89244  -5276972.38344  21041312.3794   21041311.7714
  -6978643.33544  -5437901.41044  21454436.7504   21454436.4494
  14958755.38444  11656172.24344  23206650.5944   23206652.5114
  -5724680.49444  -4460787.44344  23956903.0714   23956902.1934
 -17792695.43844 -13864428.37144  21632886.7804   21632886.7844
 -20050613.70944 -15623839.27344  20494550.3644   20494550.6204
 96  3 14  0 54  0.0000000  0  6G 4G 9G 7G24G20G 5
  -6721577.52044  -5237585.59544  21050931.0464   21050930.0534
  -6931565.41444  -5401217.32244  21463395.7934   21463395.6444
  15026815.04944  11709205.70844  23219601.2294   23219602.5494
 -20077131.46244 -15644502.44244  20489503.8514   20489504.2974
  -5821907.51144  -4536548.72644  23938400.7724   23938400.9874
 -17863120.07144 -13919304.69544  21619485.2444   21619484.9434
 96  3 14  0 54 30.0000000  0  6G 4G 9G 7G20G 5G24
  -6670553.44044  -5197826.56844  21060640.2874   21060639.8144
  -6884033.24744  -5364179.27044  21472440.3914   21472439.9664
  15094877.21844  11762241.17444  23232553.5914   23232554.2324
  -5919121.18744  -4612299.59344  23919903.0214   23919903.9164
 -17933349.59444 -13974028.98244  21606120.9134   21606120.7484
 -20103131.61844 -15664762.28944  20484556.5884   20484556.7884
 96  3 14  0 55  0.0000000  0  6G 4G 9G24G 7G20G 5
  -6619026.35744  -5157675.59844  21070445.7344   21070445.0014
  -6836018.79044  -5326765.41144  21481577.7954   21481577.4184
 -20128578.93144 -15684591.34944  20479713.8084   20479714.0604
  15162981.83044  11815309.68744  23245513.4344   23245513.1534
  -6016285.57544  -4688012.07444  23901412.3694   23901413.5904
 -18003347.18544 -14028572.54444  21592800.9824   21592800.7334
 96  3 14  0 55 30.0000000  0  6G 4G 9G 7G20G 5G24
  -6566997.66544  -5117133.75644  21080346.8014   21080345.7664
  -6787524.05444  -5288977.31144  21490805.8314   21490805.7834
  15231137.07344  11868417.66844  23258483.5134   23258483.0224
  -6113393.35344  -4763680.41244  23882932.8464   23882933.2724
 -18073110.69744 -14082933.71344  21579525.2464   21579525.1764
 -20153485.02344 -15703998.67644  20474974.5774   20474974.7284
 96  3 14  0 56  0.0000000  0  6G 4G 9G24G 7G20G 5
  -6514479.47044  -5076210.48444  21090340.3834   21090339.4334
  -6738550.92844  -5250816.44144  21500124.6734   21500125.0994
 -20177875.05644 -15723003.87944  20470332.9594   20470333.0284
  15299336.53044  11921560.08944  23271461.1704   23271462.6864
  -6210443.69644  -4839304.00944  23864465.8554   23864467.2824
 -18142648.67444 -14137119.13344  21566292.5254   21566292.5724
 96  3 14  0 56 30.0000000  0  6G 4G 9G 7G20G 5G24
  -6461471.03244  -5034905.20544  21100427.6064   21100426.9484
  -6689077.03144  -5212265.35844  21509539.8734   21509539.4994
  15367593.38244  11974747.21744  23284450.2424   23284450.7114
  -6307415.60344  -4914866.53544  23846011.6794   23846015.6764
 -18211942.74844 -14191114.49444  21553106.4504   21553106.0384
 -20201739.03644 -15741599.17144  20465791.8804   20465792.1874
 96  3 14  0 57  0.0000000  0  6G 4G 9G24G 7G20G 5
  -6407978.62444  -4993222.81444  21110606.7934   21110605.7684
  -6639094.80644  -5173318.17744  21519051.1764   21519050.8074
 -20225046.37344 -15759760.71944  20461356.6004   20461356.9344
  15435924.43544  12027992.18844  23297453.4594   23297454.0214
  -6404295.68144  -4990357.44844  23827575.6994   23827578.4704
 -18280982.34544 -14244911.56644  21539968.7124   21539968.5084
 96  3 14  0 57 30.0000000  0  6G24G 4G 9G 7G20G 5
 -20247841.54344 -15777523.17244  20457018.7494   20457019.0624
  -6354068.93944  -4951215.25944  21120865.5804   21120864.6344
  -6588671.27244  -5134027.11844  21528646.6394   21528646.5224
  15504273.78144  12081251.42044  23310459.6824   23310461.0804
  -6501128.86144  -5065811.83844  23809149.8734   23809152.3314
 -18349828.27444 -14298557.73144  21526867.7934   21526867.7084
 96  3 14  0 58  0.0000000  0  7G24G 4G 9G 7G 6G20G 5
 -20270094.94444 -15794863.47144  20452784.0394   20452784.3404
  -6299724.58044  -4908869.00844  21131206.8554   21131206.0174
  -6537800.42344  -5094387.50344  21538326.9814   21538326.5494
  15572652.98844  12134533.91844  23323471.2094   23323471.8934
        -0.00954                  25463751.4854
  -6597901.52844  -5141219.08644  23790734.8214   23790737.0024
 -18418461.27844 -14352037.98444  21513807.2734   21513806.8644
 96  3 14  0 58 30.0000000  0  7G24G 4G 9G 7G 6G20G 5
 -20291800.42744 -15811776.82144  20448653.9484   20448654.2304
  -6244949.17344  -4866186.86944  21141630.4614   21141629.5944
  -6486481.03544  -5054398.37744  21548092.2144   21548091.9714
  15641063.69944  12187840.92944  23336488.9444   23336489.5114
    -73698.06444                  25449727.1814
  -6694632.22544  -5216593.60244  23772327.6644   23772328.8644
 -18486879.22544 -14405350.66244  21500787.5534   21500787.5584
 96  3 14  0 59  0.0000000  0  6G 4G 9G24G 7G20G 5
  -6189770.99244  -4823190.88044  21152130.2194   21152129.7674
  -6434748.22844  -5014087.10644  21557936.7534   21557936.4584
 -20312983.31644 -15828282.95344  20444622.7994   20444623.0334
  15709474.06644  12241147.67744  23349507.8474   23349509.4314
  -6791368.82344  -5291972.74044  23753919.0514   23753918.4234
 -18555108.49644 -14458516.31444  21487804.0994   21487803.9364
 96  3 14  0 59 30.0000000  0  6G 4G 9G 7G20G24G 5
  -6134164.45544  -4779861.11044  21162711.9834   21162711.3564
  -6382576.79344  -4973434.04844  21567864.7894   21567864.7244
  15777891.05844  12294459.61044  23362526.4304   23362527.6894
  -6888100.15144  -5367347.75344  23735512.6194   23735512.9864
 -20333652.90144 -15844389.11144  20440689.5284   20440689.8854
 -18623122.90744 -14511514.54844  21474861.7584   21474861.0284
 96  3 14  1  0  0.0000000  0  6G 4G 9G24G 7G20G 5
  -6078082.21944  -4736160.66244  21173384.0224   21173383.1734
  -6329897.85544  -4932385.53944  21577889.2344   21577888.9164
 -20353764.60244 -15860060.55044  20436862.2044   20436862.5464
  15846351.69044  12347805.53244  23375554.7274   23375554.6504
  -6984798.84744  -5442697.33744  23717111.0864   23717111.4114
 -18690867.86644 -14564302.81744  21461970.0374   21461969.4414
 96  3 14  1  0 30.0000000  0  6G 4G 9G 7G20G24G 5
  -6021552.11644  -4692111.22644  21184141.3894   21184140.2754
  -6276729.39344  -4890955.57944  21588007.0164   21588006.8374
  15914840.16744  12401173.17144  23388587.2114   23388586.8184
  -7081480.18344  -5518033.38444  23698713.3464   23698713.7764
 -20373332.38644 -15875308.16044  20433138.5664   20433138.9004
 -18758354.37044 -14616889.69144  21449127.6944   21449126.9684
 96  3 14  1  1  0.0000000  0  6G 4G 9G24G 7G20G 5
  -5964583.69944  -4647720.25144  21194981.9504   21194981.1744
  -6223097.28644  -4849164.33344  21598212.7434   21598212.3604
 -20392354.02044 -15890130.20044  20429518.9024   20429519.3414
  15983348.28444  12454556.09344  23401624.9464   23401625.0274
  -7178136.27944  -5593349.77544  23680319.3204   23680319.8934
 -18825585.09244 -14669277.25444  21436334.2864   21436333.8614
 96  3 14  1  1 30.0000000  0  6G 4G 9G 7G24G20G 5
  -5907161.38444  -4602975.59344  21205909.2444   21205908.4954
  -6168972.47144  -4806989.16644  21608512.2804   21608511.9694
  16051894.46944  12507968.71644  23414668.5574   23414668.9504
 -20410812.41444 -15904513.35144  20426006.2604   20426006.6064
  -7274726.63744  -5668614.96244  23661938.8624   23661938.5444
 -18892543.55944 -14721452.67244  21423592.5304   21423592.2044
 96  3 14  1  2  0.0000000  0  6G 4G 9G24G 7G20G 5
  -5849296.56444  -4557886.12444  21216920.3924   21216919.7214
  -6114380.80444  -4764450.21344  21618901.1794   21618900.5554
 -20428704.10544 -15918454.91444  20422601.6744   20422601.9704
  16120477.12844  12561409.74844  23427718.6344   23427718.1744
  -7371249.67144  -5743827.65744  23643571.2114   23643572.0344
 -18959243.37144 -14773426.53944  21410900.2634   21410900.0364
 96  3 14  1  2 30.0000000  0  6G 4G 9G 7G24G20G 5
  -5791002.20344  -4512461.94244  21228013.6174   21228012.5974
  -6059359.70644  -4721576.64144  21629371.2094   21629370.8704
  16189087.29644  12614872.20744  23440773.8044   23440774.8814
 -20446051.93244 -15931972.68844  20419300.6414   20419300.8434
  -7467697.02644  -5818981.41044  23625217.2044   23625217.5904
 -19025712.34744 -14825220.53144  21398251.6004   21398251.1514
 96  3 14  1  3  0.0000000  0  6G 4G24G 9G 7G20G 5
  -5732259.71444  -4466688.57944  21239191.6634   21239191.0464
 -20462846.05244 -15945059.00144  20416104.7394   20416104.7764
  -6003875.85044  -4678342.47744  21639929.2854   21639928.8354
  16257738.53544  12668366.64044  23453838.6624   23453839.0724
  -7564051.45644  -5894062.75244  23606882.2034   23606882.6774
 -19091946.96244 -14876831.90644  21385646.9414   21385646.6604
 96  3 14  1  3 30.0000000  0  6G 4G 9G 7G24G20G 5
  -5673062.69144  -4420561.03244  21250456.5614   21250455.9294
  -5947922.58844  -4634742.54144  21650576.5294   21650576.2284
  16326433.67344  12721895.30644  23466911.4654   23466913.0784
 -20479107.56044 -15957730.29444  20413010.1664   20413010.4724
  -7660310.96544  -5969070.12844  23588563.7084   23588564.2074
 -19157948.32844 -14928261.53144  21373087.3684   21373087.1084
 96  3 14  1  4  0.0000000  0  6G 4G24G 9G 7G20G 5
  -5613425.03744  -4374090.12844  21261805.2084   21261804.6354
 -20494845.18344 -15969993.36544  20410015.5174   20410015.7564
  -5891523.20644  -4590794.97944  21661309.4524   21661309.0124
  16395174.75644  12775459.77644  23479992.0324   23479993.6844
  -7756498.69144  -6044021.57644  23570260.4054   23570261.6254
 -19223719.57044 -14979511.83544  21360571.7704   21360571.5314
 96  3 14  1  4 30.0000000  0  6G 4G 9G 7G24G20G 5
  -5553378.21744  -4327300.39844  21273232.0734   21273231.4494
  -5834686.25144  -4546506.44844  21672124.7844   21672124.3464
  16463936.93144  12829040.68544  23493077.2934   23493076.7054
 -20510084.17944 -15981867.89244  20407115.6924   20407115.7104
  -7852646.48444  -6118941.89144  23551964.9564   23551966.5834
 -19289271.41044 -15030591.17444  21348097.6074   21348097.1824
 96  3 14  1  5  0.0000000  0  6G24G 4G 9G 7G20G 5
 -20524811.71144 -15993343.88044  20404313.1034   20404313.4614
  -5492918.75144  -4280189.12944  21284736.5974   21284736.2484
  -5777403.58344  -4501870.61544  21683025.5664   21683025.6954
  16532726.23144  12882642.73844  23506168.0004   23506168.0724
  -7948745.72244  -6193824.37944  23533676.4984   23533678.1244
 -19354578.05144 -15081479.46144  21335669.9944   21335669.5914
 96  3 14  1  5 30.0000000  0  6G 4G 9G 7G24G20G 5
  -5432057.57344  -4232764.83744  21296318.4504   21296317.8854
  -5719701.43144  -4456907.91044  21694006.0224   21694005.9424
  16601536.79744  12936261.34344  23519261.9334   23519263.1324
 -20539028.95744 -16004422.24044  20401607.5724   20401607.6274
  -8044790.05444  -6268664.09344  23515400.7254   23515401.4744
 -19419636.26644 -15132174.16544  21323289.8734   21323289.7124
 96  3 14  1  6  0.0000000  0  6G24G 4G 9G 7G20G 5
 -20552734.43344 -16015101.81944  20398999.4324   20398999.8434
  -5370825.69544  -4185051.68244  21307970.5624   21307969.8944
  -5661599.09044  -4411633.37344  21705062.5464   21705062.7964
  16670340.95144  12989874.94744  23532354.8794   23532355.5854
  -8140791.20844  -6343470.16644  23497132.8054   23497133.9634
 -19484469.11444 -15182693.25144  21310952.3254   21310951.9724
 96  3 14  1  6 30.0000000  0  6G 4G24G 9G 7G20G 5
  -5309183.83644  -4137019.06744  21319700.3754   21319699.8694
 -20565905.45644 -16025364.93944  20396493.2334   20396493.4364
  -5603075.14944  -4366030.31844  21716198.9794   21716199.0504
  16739149.09644  13043491.69244  23545447.8874   23545447.2724
  -8236702.08844  -6418205.87744  23478881.4954   23478882.2794
 -19549059.78044 -15233023.63344  21298661.4334   21298661.0094
 96  3 14  1  7  0.0000000  0  6G 4G24G 9G 7G20G 5
  -5247123.60544  -4088660.44644  21331509.9924   21331509.1094
 -20578545.85044 -16035214.58544  20394087.6964   20394087.9074
  -5544133.93444  -4320102.11144  21727415.1044   21727414.7744
  16807968.36144  13097117.06844  23558543.8374   23558544.5974
  -8332519.14244  -6492868.50144  23460647.2044   23460648.9164
 -19613416.01944 -15283171.34344  21286415.1664   21286414.7084
 96  3 14  1  7 30.0000000  0  6G24G 4G 9G 7G20G 5
 -20590660.49744 -16044654.55744  20391782.4384   20391782.5544
  -5184646.80744  -4039977.22144  21343398.8154   21343398.2034
  -5484777.30644  -4273850.20844  21738710.5924   21738710.4594
  16876801.07944  13150752.94844  23571642.6924   23571642.9804
  -8428258.96044  -6567470.92244  23442428.5424   23442429.1644
 -19677540.69744 -15333138.61144  21274212.0204   21274211.9344
 96  3 14  1  8  0.0000000  0  7G24G 4G 9G 7G16G20G 5
 -20602255.74344 -16053689.80144  20389576.0894   20389576.1064
  -5121751.98144  -3990968.27244  21355367.4594   21355366.7444
  -5425001.32144  -4227271.53144  21750085.2024   21750085.2534
  16945648.56244  13204400.33044  23584744.9264   23584746.3694
        -0.90654                  24620742.6054
  -8523929.14844  -6642019.10644  23424222.6134   23424224.7394
 -19741416.59744 -15382912.03544  21262057.1984   21262057.1604
 96  3 14  1  8 30.0000000  0  8G24G 4G 9G 7G 6G16G20G 5
 -20613331.94344 -16062320.59144  20387468.2514   20387468.3194
  -5058450.80844  -3941642.68544  21367413.5014   21367412.7304
  -5364804.61244  -4180365.01744  21761540.4184   21761540.0474
  17014522.08144  13258068.01344  23597851.1484   23597852.1314
        -0.95554                  25171581.9284
    -92920.80644                  24603060.3984
  -8619541.54944  -6716522.23444  23406028.1224   23406030.8924
 -19805021.23644 -15432474.07944  21249953.6804   21249953.4174
 96  3 14  1  9  0.0000000  0  8G24G 4G 9G 7G 6G16G20G 5
 -20623894.57444 -16070551.19844  20385458.1034   20385458.1244
  -4994779.35444  -3892028.56544  21379529.6134   21379528.8844
  -5304199.33244  -4133140.13144  21773073.2884   21773072.7864
  17083421.53244  13311755.86744  23610961.3834   23610961.8574
    -72507.67944                  25157783.9784
   -185935.18544                  24585358.5784
  -8715115.86244  -6790995.69244  23387841.4254   23387841.4664
 -19868347.34344 -15481819.08244  21237903.1744   21237902.7914
 96  3 14  1  9 30.0000000  0  8G24G 4G 9G 7G 6G16G20G 5
 -20633940.88844 -16078379.48044  20383546.3684   20383546.5644
  -4930749.17544  -3842134.91744  21391713.8654   21391713.4314
  -5243198.90544  -4085607.33844  21784681.1214   21784680.4314
  17152342.80844  13365460.73944  23624076.6124   23624078.4094
   -144965.63344                  25143995.2694
   -279028.20744                  24567645.1674
  -8810629.21244  -6865421.64544  23369665.5334   23369664.7134
 -19931374.59344 -15530931.21144  21225909.3434   21225908.9714
 96  3 14  1 10  0.0000000  0  7G24G 4G 9G 7G16G20G 5
 -20643439.20944 -16085780.75644  20381738.8614   20381738.9324
  -4866334.20744  -3791941.44644  21403971.9554   21403971.1914
  -5181769.83044  -4037740.53344  21796371.0254   21796370.5954
  17221316.50844  13419206.43344  23637202.3474   23637204.1734
   -372152.22644                  24549923.1584
  -8906043.00244  -6939770.01644  23351508.5464   23351509.1064
 -19994080.60344 -15579793.02644  21213976.5094   21213976.1054
 96  3 14  1 10 30.0000000  0  6G24G 4G 9G 7G20G 5
 -20652406.49144 -16092768.23744  20380032.5984   20380032.8034
  -4801550.17044  -3741460.37544  21416299.8254   21416299.2824
  -5119934.54744  -3989557.20944  21808137.5964   21808137.7604
  17290322.09244  13472976.97344  23650333.1334   23650334.2904
  -9001376.68144  -7014055.96144  23333369.3264   23333369.4764
 -20056499.38844 -15628431.02744  21202098.8124   21202098.3214
 96  3 14  1 11  0.0000000  0  7G24G 4G 9G 7G 6G20G 5
 -20660836.58844 -16099337.13144  20378428.2354   20378428.2624
  -4736354.77244  -3690658.76644  21428705.7324   21428705.3424
  -5057681.91044  -3941048.67644  21819984.0234   21819984.0544
  17359372.99044  13526782.84044  23663474.0884   23663473.6174
        -0.29254                  25102675.8914
  -9096600.58144  -7088256.37244  23315247.9344   23315247.6734
 -20118618.43144 -15676835.46644  21190278.4124   21190277.8904
 96  3 14  1 11 30.0000000  0  7G24G 4G 9G 7G 6G20G 5
 -20668731.88444 -16105489.29744  20376925.8984   20376926.2184
  -4670735.81444  -3639527.11244  21441193.2224   21441192.3814
  -4995007.01444  -3892211.10644  21831910.7254   21831910.7134
  17428464.77944  13580620.62844  23676621.2624   23676619.9904
    -72273.39044                  25088927.4124
  -9191725.08544  -7162379.31344  23297145.2384   23297147.5044
 -20180449.47144 -15725015.48344  21178511.7824   21178511.4004
 96  3 14  1 12  0.0000000  0  7G24G 4G 9G 7G 6G20G 5
 -20676093.38244 -16111225.51644  20375524.7764   20375525.1824
  -4604712.14644  -3588080.09844  21453756.9944   21453756.0824
  -4931915.95744  -3843049.25444  21843916.7514   21843916.6584
  17497578.67544  13634475.60944  23689772.5724   23689774.7484
   -144514.70744                  25075180.2434
  -9286786.94744  -7236453.44044  23279056.3124   23279056.0314
 -20242026.24844 -15772997.37744  21166794.1934   21166793.6604
 96  3 14  1 12 30.0000000  0  7G24G 4G 9G 7G 6G20G 5
 -20682925.45844 -16116549.20444  20374224.8564   20374225.2084
  -4538295.89044  -3536327.17644  21466395.5074   21466394.6344
  -4868423.20544  -3793574.39744  21855998.5474   21855998.6564
  17566708.08844  13688342.67644  23702928.1854   23702928.5324
   -216711.91344                  25061442.0144
  -9381779.01644  -7310473.19544  23260980.0614   23260980.4994
 -20303331.10544 -15820767.39144  21155128.3284   21155127.6954
 96  3 14  1 13  0.0000000  0  7G24G 4G 9G 7G 6G20G 5
 -20689228.66944 -16121460.78544  20373025.3544   20373025.7064
  -4471492.37444  -3484272.49044  21479107.6444   21479107.0204
  -4804532.01844  -3743789.06544  21868156.9754   21868157.1634
  17635857.36844  13742225.18644  23716086.5914   23716087.4154
   -288856.05144                  25047713.5004
  -9476682.04144  -7384423.62144  23242920.1934   23242920.7194
 -20364358.15244 -15868320.92244  21143515.2214   21143514.7304
 96  3 14  1 13 30.0000000  0  7G24G 4G 9G 7G 6G20G 5
 -20694985.02744 -16125946.25144  20371930.0884   20371930.1984
  -4404322.15744  -3431932.06944  21491889.7574   21491889.2574
  -4740233.89144  -3693686.64244  21880392.3574   21880392.5614
  17705032.45744  13796127.83144  23729250.5984   23729250.6254
   -360939.07644   -281250.75444  25033996.7454
  -9571480.87044  -7458292.76844  23224880.4104   23224881.4044
 -20425097.25644 -15915650.07744  21131956.8784   21131956.5214
 96  3 14  1 14  0.0000000  0  7G24G 4G 9G 7G 6G20G 5
 -20700226.13344 -16130030.21444  20370932.7044   20370932.9794
  -4336820.90244  -3379333.68844  21504735.3204   21504734.4064
  -4675561.58444  -3643292.65344  21892699.0324   21892698.7404
  17774213.88244  13850035.42844  23742414.7634   23742417.2014
   -432961.20544                  25020288.8234
  -9666177.46344  -7532082.27444  23206859.9304   23206859.1094
 -20485555.19644 -15962760.14844  21120452.3244   21120451.8404
 96  3 14  1 14 30.0000000  0  7G24G 4G 9G 7G 6G20G 5
 -20704953.23544 -16133713.66244  20370033.1074   20370033.3104
  -4268961.28344  -3326456.06644  21517648.2144   21517647.6444
  -4610515.06844  -3592607.06644  21905077.3034   21905076.4454
  17843418.52044  13903961.11544  23755584.5664   23755585.5544
   -504907.08244   -393433.54644  25006599.0194
  -9760744.96844  -7605771.21544  23188865.0374   23188864.2214
 -20545703.57744 -16009629.01044  21109006.5494   21109005.9114
 96  3 14  1 15  0.0000000  0  7G24G 4G 9G 7G 6G20G 5
 -20709143.98244 -16136979.16844  20369235.4464   20369235.8624
  -4200726.57944  -3273286.17344  21530633.0694   21530632.3064
  -4545069.65644  -3541610.65144  21917530.7044   21917530.0334
  17912666.81144  13957920.83244  23768761.5064   23768759.9674
   -576771.96944   -449432.09644  24992923.0184
  -9855175.77144  -7679353.66044  23170894.8344   23170894.5104
 -20605528.16444 -16056245.56444  21097622.0464   21097621.5834
 96  3 14  1 15 30.0000000  0  8G24G 4G 9G 7G 6G16G20G 5
 -20712786.30044 -16139817.32744  20368542.2464   20368542.3644
  -4132109.30844  -3219818.16644  21543690.3754   21543689.5514
  -4479223.83144  -3490302.22144  21930060.7224   21930060.5014
  17981974.73944  14011927.10044  23781950.9974   23781951.3434
   -648559.03744                  24979259.2824
        -0.88154                  24354134.1534
  -9949478.18544  -7752836.01344  23152949.6664   23152950.7174
 -20665015.31244 -16102599.17644  21086302.0944   21086301.7274
 96  3 14  1 16  0.0000000  0  8G24G 4G 9G 7G 6G16G20G 5
 -20715921.99244 -16142260.71444  20367945.8044   20367946.0474
  -4063125.26244  -3166064.36944  21556817.7854   21556817.2504
  -4413011.03544  -3438707.84644  21942660.5524   21942660.8014
  18051310.38044  14065956.16644  23795145.2804   23795144.5034
   -720320.54444                  24965602.9374
    -93804.13444                  24336283.8664
 -10043697.78944  -7826253.84944  23135020.2124   23135022.5124
 -20724210.61144 -16148725.37244  21075037.4144   21075036.9644
 96  3 14  1 16 30.0000000  0  8G24G 4G 9G 7G 6G16G20G 5
 -20718516.03744 -16144282.03844  20367452.0574   20367452.2534
  -3993743.24444  -3112000.46444  21570020.6054   21570019.8194
  -4346406.67344  -3386808.35844  21955335.0814   21955334.6374
  18120695.79344  14120020.82444  23808347.6994   23808347.1304
   -792060.51344   -617189.29044  24951952.6894
   -187640.36344                  24318426.2164
 -10137823.98344  -7899598.90944  23117109.3054   23117108.8334
 -20783105.45744 -16194617.45244  21063830.3944   21063829.9344
 96  3 14  1 17  0.0000000  0  8G24G 4G 9G 7G 6G16G20G 5
 -20720591.05644 -16145898.92344  20367057.4244   20367057.5514
  -3923992.30944  -3057649.07944  21583293.5844   21583292.8994
  -4279419.84344  -3334610.84244  21968082.7254   21968082.3244
  18190115.07244                  23821558.1234
   -863779.43444                  24938307.5094
   -281540.63444   -219381.02344  24300558.8194   24300558.3184
 -10231869.76844  -7972881.33044  23099212.5544   23099213.0664
 -20841721.43244 -16240292.22744  21052675.9814   21052675.5204
 96  3 14  1 17 30.0000000  0  8G24G 4G 9G 7G 6G16G20G 5
 -20722161.21244 -16147122.41144  20366758.4534   20366758.7134
  -3853869.84244  -3003008.20144  21596637.2144   21596636.8084
  -4212060.66244  -3282123.18544  21980901.2304   21980901.1514
  18259547.49044                  23834769.6524
   -935475.98444                  24924665.6414
   -375509.70144   -292604.29844  24282676.7874
 -10325824.62044  -8046092.86244  23081334.0144   23081333.4214
 -20900074.30944 -16285761.98944  21041571.9824   21041571.5064
 96  3 14  1 18  0.0000000  0  8G24G 4G 9G 7G 6G16G20G 5
 -20723181.55644 -16147917.47344  20366564.1724   20366564.4844
  -3783339.14244  -2948049.21944  21610059.2234   21610058.5114
  -4144278.19344  -3229305.69444  21993799.5134   21993799.6394
  18329021.34044  14282348.86644  23847991.8604   23847996.7574
  -1007095.30644                  24911033.7364
   -469497.11744                  24264791.1424
 -10419622.42844  -8119182.02444  23063483.9544   23063485.2234
 -20958117.46344 -16330990.41444  21030526.5994   21030526.3254
 96  3 14  1 18 30.0000000  0  8G24G 4G 9G 7G 6G16G20G 5
 -20723620.83144 -16148259.75144  20366480.5894   20366480.8634
  -3712387.47444  -2892762.20044  21623560.5704   21623560.2534
  -4076054.37644  -3176144.29344  22006782.2244   22006781.6854
  18398562.53844  14336536.78544  23861225.1034   23861226.2644
  -1078587.64644                  24897430.2574
   -563464.67044   -439062.44144  24246910.0674   24246910.9254
 -10513214.74444  -8192111.06544  23045674.1274   23045673.9904
 -21015803.18844 -16375940.31644  21019549.5984   21019549.2004
 96  3 14  1 19  0.0000000  0  8G24G 4G 9G 7G 6G16G20G 5
 -20723652.52844 -16148284.44044  20366474.6854   20366474.8224
  -3641198.89644  -2837290.57744  21637107.3114   21637106.8654
  -4007565.69044  -3122776.50044  22019814.4704   22019814.5484
  18467990.86544  14390636.82444  23874436.6924   23874439.0834
  -1150118.19044                  24883817.4104
   -657572.44144   -512393.07244  24229001.8294   24229005.3444
 -10606754.31744  -8264999.03344  23027874.7974   23027873.9194
 -21073293.84144 -16420738.22144  21008609.3904   21008608.9714
 96  3 14  1 19 30.0000000  0  8G24G 4G 9G 7G 6G16G20G 5
 -20723187.99744 -16147922.45644  20366563.0924   20366563.3234
  -3569704.83944  -2781580.92744  21650712.4554   21650711.9954
  -3938733.56844  -3069141.10244  22032912.6164   22032912.6384
  18537389.00044  14444713.38744  23887642.4594
  -1221627.88544                  24870208.4864
   -751736.28444   -585767.42144  24211083.2944   24211086.6744
 -10700171.29244  -8337791.46844  23010097.7914   23010097.7944
 -21130506.49944 -16465319.50644  20997721.8764   20997721.4374
 96  3 14  1 20  0.0000000  0  8G24G 4G 9G 7G 6G16G20G 5
 -20722202.41344 -16147154.45644  20366750.7134   20366750.7864
  -3497887.79344  -2725619.59544  21664378.8304   21664378.2174
  -3869536.23844  -3015221.11944  22046081.1204   22046080.8854
  18606805.47544  14498806.52544  23900851.7544   23900851.4534
  -1293090.49944                  24856610.3934
   -845936.53444   -659170.12544  24193157.1844   24193160.3144
 -10793451.42744  -8410477.25844  22992346.3764   22992347.1694
 -21187398.62544 -16509651.02144  20986895.8294   20986895.4544
 96  3 14  1 20 30.0000000  0  8G24G 4G 9G 7G 6G16G20G 5
 -20720701.49244 -16145984.89944  20367036.4014   20367036.4574
  -3425742.62744  -2669402.58944  21678107.0874   21678106.7214
  -3799976.62844  -2961018.83644  22059317.8504   22059317.8274
  18676256.33144  14552922.11344  23914067.5734   23914064.4774
  -1364509.59344                  24843020.3684
   -940168.08544   -732597.24944  24175225.1334   24175226.5314
 -10886609.50844  -8483067.94044  22974618.4854   22974619.1214
 -21243960.80144 -16553725.43744  20976132.3504   20976131.4924
 96  3 14  1 21  0.0000000  0  8G24G 4G 9G 7G 6G16G20G 5
 -20718668.64744 -16144400.85544  20367422.9464   20367423.1364
  -3353241.32844  -2612908.07444  21691903.6964   21691902.9004
  -3730028.05144  -2906513.46844  22072628.0614   22072628.3954
  18745767.18444  14607086.79344  23927295.4544   23927297.1054
  -1435867.54444                  24829440.9674
  -1034403.92144   -806027.68944  24157292.4064   24157296.0444
 -10979634.14844  -8555554.65444  22956917.9314   22956917.0184
 -21300163.58244 -16597519.80744  20965437.1834   20965436.8514
 96  3 14  1 21 30.0000000  0  8G24G 4G 9G 7G 6G16G20G 5
 -20716142.60944 -16142432.50344  20367903.7864   20367904.0804
  -3280402.40144  -2556150.46844  21705764.8564   21705764.2124
  -3659711.05544  -2851721.01744  22086009.0934   22086009.1994
  18815334.30644  14661294.94544  23940534.7074   23940533.5244
  -1507169.77644                  24815874.2844
  -1128656.08744   -879470.85244  24139356.1114   24139360.7774
 -11072553.67844  -8627959.47044  22939235.3024   22939235.6874
 -21356017.87544 -16641042.61744  20954808.5854   20954808.2394
 96  3 14  1 22  0.0000000  0  8G24G 4G 9G 7G 6G16G20G 5
 -20713129.72444 -16140084.79144  20368477.0374   20368477.1614
  -3207225.17644  -2499129.25944  21719690.1814   21719689.0484
  -3589040.55344  -2796653.10844  22099457.3224   22099457.2324
  18884959.38444  14715548.27244  23953782.5154   23953783.0134
  -1578408.63244                  24802317.7364
  -1222906.70644   -952912.81444  24121421.7774   24121424.1634
 -11165354.60844  -8700271.84744  22921576.0534   22921577.5704
 -21411524.21544 -16684294.30044  20944246.1254   20944245.7304
 96  3 14  1 22 30.0000000  0  8G24G 4G 9G 7G 6G16G20G 5
 -20709643.19244 -16137368.00444  20369140.5314   20369140.7044
  -3133729.23944  -2441859.70344  21733675.5034   21733674.9874
  -3518041.01444  -2741328.80744  22112968.5794   22112968.3374
  18954618.28944  14769827.93744  23967038.4374   23967041.7704
  -1649604.40844  -1285404.66844  24788770.4204   24788774.5534
  -1317165.93844  -1026361.49844  24103484.6504   24103486.8294
 -11258046.93244  -8772499.59944  22903937.1164   22903937.4894
 -21466708.09244 -16727294.71744  20933744.8534   20933744.5174
 96  3 14  1 23  0.0000000  0  8G24G 4G 9G 7G 6G16G20G 5
 -20705667.03144 -16134269.68944  20369897.2814   20369897.5184
  -3059902.42844  -2384332.32444  21747724.2674   21747723.8704
  -3446706.54844  -2685743.51944  22126542.8654   22126542.5674
  19024314.56344  14824136.70644  23980302.3674   23980301.5324
  -1720749.19444  -1340842.10244  24775230.2704   24775230.6694
  -1411422.31244  -1099807.97244  24085548.9454   24085550.6754
 -11350598.41244  -8844617.62744  22886325.3604   22886327.1114
 -21521568.73244 -16770043.26444  20923305.1964   20923304.7984
 96  3 14  1 23 30.0000000  0  8G24G 4G 9G 7G 6G16G20G 5
 -20701200.36644 -16130789.16644  20370747.2014   20370747.4134
  -2985745.16044  -2326547.44244  21761836.2704   21761835.3364
  -3375044.14944  -2629902.70444  22140179.6604   22140180.0124
  19094052.16444  14878477.67644  23993571.4164   23993572.0224
  -1791848.45544  -1396244.06944  24761701.1024   24761704.0844
  -1505677.09644  -1173253.18744  24067612.0244   24067613.1404
 -11443005.82144  -8916623.37044  22868740.3444   22868741.3754
 -21576120.57244 -16812551.18344  20912924.6064   20912924.0484
 96  3 14  1 24  0.0000000  0  7G24G 4G 9G 7G16G20G 5
 -20696217.75844 -16126906.60644  20371695.3114   20371695.3904
  -2911249.84044  -2268499.14544  21776012.3484   21776011.4074
  -3303059.60944  -2573810.87844  22153877.2984   22153877.7494
  19163820.57544  14932842.62444  24006847.9784   24006849.9894
  -1599927.55744  -1246695.01844  24049676.0314   24049679.1954
 -11535262.49044  -8988511.66144  22851184.5214   22851185.1684
 -21630357.30044 -16854813.55644  20902603.6084   20902603.1194
 96  3 14  1 24 30.0000000  0  8G24G 4G 9G 7G 6G16G20G 5
 -20690727.96644 -16122628.84044  20372739.9044   20372740.0564
  -2836425.76444  -2210194.67244  21790250.6664   21790249.7254
  -3230762.30844  -2517475.33544  22167634.9044   22167634.7374
  19233590.27444  14987208.65844  24020125.2864   24020127.3494
        -0.77454        -0.50354  24734661.0934
  -1694198.34444  -1320152.71444  24031736.8544   24031738.6264
 -11627383.05844  -9060293.89644  22833654.2374   22833654.9494
 -21684280.60344 -16896831.71344  20892342.3324   20892341.7444
 96  3 14  1 25  0.0000000  0  8G24G 4G 9G 7G 6G16G20G 5
 -20684726.69744 -16117952.51844  20373881.9614   20373882.1374
  -2761269.91244  -2151631.67644  21804552.2624   21804551.7534
  -3158135.29944  -2460882.87544  22181455.8444   22181455.4024
  19303367.47744  15041580.50044  24033403.5144   24033404.0854
    -70990.02144    -55316.69944  24721152.2674
  -1788474.39444  -1393614.51444  24013796.9214   24013799.6704
 -11719367.69444  -9131970.20244  22816150.8154   22816151.1914
 -21737872.16444 -16938591.36444  20882144.2654   20882144.1624
 96  3 14  1 25 30.0000000  0  8G24G 4G 9G 7G 6G16G20G 5
 -20678219.92444 -16112882.30044  20375120.1684   20375120.0764
  -2685804.74944  -2092827.65844  21818913.2944   21818912.6684
  -3085187.37044  -2404040.34544  22195337.9444   22195337.5674
  19373149.29244  15095955.93744  24046683.3364   24046683.6854
   -141935.06444   -110598.46844  24707651.5184   24707653.4144
  -1882757.06644  -1467081.48844  23995855.2274   23995858.6764
 -11811237.76344  -9203557.24344  22798668.8574   22798669.2504
 -21791126.01144 -16980087.86244  20872010.1304   20872009.6114
 96  3 14  1 26  0.0000000  0  8G24G 4G 9G 7G 6G16G20G 5
 -20671175.00444 -16107392.74244  20376460.5144   20376460.6574
  -2610017.23744  -2033772.46144  21833334.9384   21833334.3804
  -3011899.43144  -2346932.87144  22209284.4754   22209283.9984
  19442952.60344  15150348.08944  24059966.0644   24059965.6414
   -212811.14344   -165826.56344  24694162.5144
  -1977021.07044  -1540533.90444  23977918.8294   23977921.6574
 -11902966.13244  -9275033.86744  22781213.0034   22781213.3364
 -21844012.59144 -17021298.17744  20861946.1424   20861945.5734
 96  3 14  1 26 30.0000000  0  8G24G 4G 9G 7G 6G16G20G 5
 -20663585.72244 -16101479.00844  20377904.8774   20377904.9414
  -2533903.91344  -1974463.37844  21847818.9154   21847817.6234
  -2938248.40644  -2289542.47444  22223299.5434   22223299.2384
  19512801.41244  15204775.70544  24073257.3844   24073258.3804
   -283606.80444   -220991.94744  24680691.1784   24680693.2904
  -2071253.05944  -1613961.36144  23959986.5564   23959989.5794
 -11994530.08844  -9346382.38644  22763788.8504   22763788.4004
 -21896523.08644 -17062215.44044  20851953.7724   20851953.2814
 96  3 14  1 27  0.0000000  0  8G24G 4G 9G 7G 6G16G20G 5
 -20655493.61044 -16095173.46144  20379444.6994   20379444.8274
  -2457519.13444  -1914942.76744  21862354.3254   21862353.6264
  -2864281.52044  -2231905.95544  22237374.2304   22237374.6864
  19582668.48344  15259217.51744  24086552.3254   24086553.1074
   -354362.39544   -276126.14344  24667227.2394   24667228.4244
  -2165481.94044  -1687386.42444  23942055.5344   23942058.4524
 -12085953.59644  -9417621.45044  22746392.1604   22746391.9304
 -21948705.16544 -17102876.79444  20842023.8104   20842023.5944
 96  3 14  1 27 30.0000000  0  8G24G 4G 9G 7G 6G16G20G 5
 -20646905.33644 -16088481.29144  20381078.8994   20381079.1574
  -2380868.17944  -1855214.76344  21876940.7914   21876939.8304
  -2790019.90744  -2174039.77444  22251506.4484   22251506.5354
  19652536.38744  15313659.97544  24099847.4274   24099850.4194
   -425100.88544   -331246.97144  24653766.4294   24653769.3504
  -2259713.20344  -1760813.35644  23924123.4794   23924123.7954
 -12177221.80944  -9488739.52244  22729024.1104   22729024.0584
 -22000570.71244 -17143291.49844  20832154.2014   20832153.7324
 96  3 14  1 28  0.0000000  0  8G24G 4G 9G 7G 6G16G20G 5
 -20637771.89544 -16081364.31444  20382817.1134   20382817.1424
  -2303887.35244  -1795229.70744  21891589.8084   21891588.6804
  -2715399.28644  -2115893.85144  22265706.2304   22265706.4464
  19722457.42044  15368143.91144  24113153.3764   24113151.7764
   -495783.47544   -386324.28344  24640317.7404   24640314.6734
  -2353889.88944  -1834197.76444  23906201.9154   23906204.7764
 -12268263.76644  -9559681.29444  22711699.3534   22711699.1474
 -22052056.58044 -17183410.35344  20822357.1014   20822356.4004
 96  3 14  1 28 30.0000000  0  8G24G 4G 9G 7G 6G16G20G 5
 -20628140.65344 -16073859.44044  20384649.9694   20384649.8834
  -2226605.03544  -1735009.72544  21906295.8914   21906294.8214
  -2640450.86144  -2057492.49944  22279968.1344   22279968.6584
  19792389.19744  15422636.21144  24126461.4124   24126461.8734
   -566446.14044   -441386.05544  24626870.2604   24626871.0974
  -2448034.97344  -1907557.54144  23888286.5714   23888288.4794
 -12359113.14344  -9630472.99644  22694411.2364   22694412.3534
 -22103194.91144 -17223258.39644  20812625.4324   20812624.9674
 96  3 14  1 29  0.0000000  0  8G24G 4G 9G 7G 6G16G20G 5
 -20618013.41244 -16065968.07644  20386576.9124   20386577.1244
  -2149017.76844  -1674552.11344  21921060.4494   21921059.1994
  -2565181.63044  -1998841.17644  22294291.1404   22294291.1714
  19862325.37144  15477131.97144  24139770.0714   24139770.7584
   -637088.62544   -496432.13444  24613426.4804   24613427.2614
  -2542145.22544  -1980890.14044  23870377.9374   23870381.0974
 -12449781.86444  -9701123.90544  22677157.7724   22677157.8864
 -22153981.56344 -17262832.40044  20802960.9934   20802960.4154
 96  3 14  1 29 30.0000000  0  8G24G 4G 9G 7G 6G16G20G 5
 -20607383.73444 -16057685.19944  20388600.0894   20388600.1714
  -2071100.81544  -1613837.60644  21935887.4494   21935886.5274
  -2489577.24344  -1939928.68544  22308678.7204   22308678.5974
  19932275.20544  15531638.33644  24153080.8664   24153081.8474
   -707696.91144   -551451.49844  24599990.2814   24599990.9954
  -2636214.83544  -2054191.10644  23852477.1424   23852478.2784
 -12540279.00444  -9771641.13544  22659936.4784   22659936.8314
 -22204393.87644 -17302114.71144  20793367.9614   20793367.3904
 96  3 14  1 30  0.0000000  0  8G24G 4G 9G 7G 6G16G20G 5
 -20596246.84644 -16049007.09544  20390718.9804   20390719.0584
  -1992860.26444  -1552870.94444  21950776.3354   21950774.7374
  -2413646.71244  -1880762.05444  22323128.1694   22323127.2114
  20002255.80044  15586168.67244  24166397.4724   24166397.7734
   -778250.05644   -606427.91644  24586565.4014   24586565.0974
  -2730250.74944  -2127465.80244  23834582.0834   23834583.4584
 -12630615.12744  -9842032.89944  22642745.4164   22642745.9734
 -22254424.96944 -17341099.97344  20783847.4614   20783846.6684
 96  3 14  1 30 30.0000000  0  8G24G 4G 9G 7G 6G16G20G 5
 -20584601.92244 -16039933.12144  20392934.9914   20392935.2004
  -1914301.60644  -1491656.40944  21965725.8324   21965724.8884
  -2337404.49644  -1821352.54444  22337636.4934   22337635.5244
  20072286.55444  15640738.05044  24179723.7714   24179726.8994
   -848718.57244   -661338.34344  24573155.6264   24573156.3934
  -2824247.77644  -2200710.15544  23816694.9024   23816698.0174
 -12720789.15644  -9912298.33944  22625585.7384   22625586.4914
 -22304081.17744 -17379793.11444  20774397.9854   20774397.6844
 96  3 14  1 31  0.0000000  0  8G24G 4G 9G 7G 6G16G20G 5
 -20572477.58944 -16030485.58144  20395242.2554   20395242.4594
  -1835469.77144  -1430229.00544  21980726.5214   21980725.6724
  -2260882.04844  -1761724.67044  22352197.7314   22352197.1324
  20142363.09244  15695343.08844  24193058.6254   24193061.3874
   -919131.12344   -716205.28044  24559757.2164
  -2918233.09644  -2273945.43044  23798811.4514   23798813.0814
 -12810818.08244  -9982450.72144  22608454.6954   22608455.0904
 -22353380.26144 -17418207.97744  20765016.8344   20765016.4344
 96  3 14  1 31 30.0000000  0  8G24G 4G 9G 7G 6G16G20G 5
 -20559872.66044 -16020663.55544  20397640.7284   20397640.8144
  -1756372.13144  -1368594.49244  21995778.3054   21995777.4534
  -2184080.69244  -1701879.47844  22366811.6604   22366812.1724
  20212489.71844  15749987.15544  24206403.0454   24206404.3994
   -989485.91544   -771027.15444  24546368.1424   24546368.5434
  -3012190.72244  -2347159.10444  23780932.1794   23780932.0174
 -12900681.30344 -10052474.00144  22591354.4684   22591355.3214
 -22402318.41444 -17456341.60144  20755704.0454   20755703.5124
 96  3 14  1 32  0.0000000  0  8G24G 4G 9G 7G 6G16G20G 5
 -20546787.38744 -16010467.23044  20400130.7724   20400131.0514
  -1677006.36444  -1306751.04544  22010881.4134   22010880.4694
  -2106994.17544  -1641812.08544  22381480.9434   22381481.4994
  20282684.18744  15804684.15344  24219761.6264   24219764.8384
  -1059779.74944   -825801.53444  24532992.3674   24532992.0964
  -3106090.67144  -2420327.83844  23763063.0104   23763065.5914
 -12990349.86444 -10122345.59244  22574291.7494   22574291.4094
 -22450889.04144 -17494188.83144  20746461.7334   20746461.0674
 96  3 14  1 32 30.0000000  0  8G24G 4G 9G 7G 6G16G20G 5
 -20533245.91944 -15999915.42944  20402707.6984   20402707.8604
  -1597374.63244  -1244700.34744  22026034.2924   22026033.6224
  -2029611.90344  -1581514.23444  22396206.7674   22396207.2534
  20352932.81944  15859423.33444  24233128.9894   24233128.4284
  -1130039.85544   -880549.59744  24519622.6344   24519622.5714
  -3199920.85444  -2493442.23344  23745207.1134   23745208.4714
 -13079830.48044 -10192070.72444  22557263.4404   22557263.4384
 -22499097.34444 -17531753.73544  20737287.7154   20737287.0114
 96  3 14  1 33  0.0000000  0  8G24G 4G 9G 7G 6G16G20G 5
 -20519257.96444 -15989015.71744  20405369.4684   20405369.8164
  -1517469.46844  -1182436.58544  22041239.5254   22041239.1334
  -1951937.70244  -1520988.90044  22410988.1154   22410988.2784
  20423203.73244  15914179.91544  24246501.1284   24246500.5864
  -1200291.97244   -935291.49844  24506254.4204   24506252.8784
  -3293691.75644  -2566510.41344  23727363.6834   23727365.2304
 -13169136.84644 -10261660.07444  22540268.6464   22540269.7804
 -22546943.68744 -17569036.59244  20728182.7114   20728182.4094
 96  3 14  1 33 30.0000000  0  8G24G 4G 9G 7G 6G16G20G 5
 -20504828.86744 -15977772.25944  20408115.3464   20408115.2554
  -1437279.35744  -1119950.78944  22056499.3824   22056498.9014
  -1873978.04844  -1460241.13744  22425823.6294   22425823.7624
  20493486.28444  15968945.51844  24259875.9114   24259875.0694
  -1270522.75844   -990016.75344  24492888.7284   24492888.2324
  -3387413.29244  -2639540.15944  23709528.6864   23709530.8344
 -13258279.88744 -10331122.16744  22523304.7484   22523305.5264
 -22594431.23544 -17606039.86944  20719146.3714   20719145.8524
 96  3 14  1 34  0.0000000  0  8G24G 4G 9G 7G 6G16G20G 5
 -20489956.69444 -15966183.54444  20410945.4024   20410945.5854
  -1356794.58644  -1057235.39544  22071815.1684   22071814.6884
  -1795715.56244  -1399257.39644  22440716.4034   22440715.9584
  20563804.21144  16023738.75144  24273256.5024   24273253.6104
  -1340713.72044  -1044710.93944  24479531.5954   24479529.8994
  -3481087.41544  -2712532.92944  23691703.1244   23691703.2304
 -13347263.54244 -10400460.06944  22506371.7404   22506372.3474
 -22641550.24844 -17642755.97644  20710179.6594   20710178.9194
 96  3 14  1 34 30.0000000  0  8G24G 4G 9G 7G 6G16G20G 5
 -20474627.29844 -15954238.55444  20413862.5524   20413862.6624
  -1276031.38444   -994303.03844  22087184.1314   22087183.6144
  -1717155.34244  -1338041.65144  22455665.8574   22455666.0904
  20634127.80644  16078536.35344  24286638.8834   24286641.8034
  -1410862.52644  -1099372.29644  24466182.6464   24466183.7544
  -3574735.68644  -2785505.56944  23673883.0184   23673884.4114
 -13436095.92944 -10469680.08044  22489467.9444   22489468.2694
 -22688310.55644 -17679192.57544  20701281.5394   20701280.8604
 96  3 14  1 35  0.0000000  0  8G24G 4G 9G 7G 6G16G20G 5
 -20458805.59844 -15941909.94944  20416873.1744   20416873.3804
  -1194999.87444   -931161.60444  22102603.9884   22102602.8774
  -1638304.44044  -1276599.40944  22470670.5914   22470670.4244
  20704466.42844  16133345.66544  24300023.7374
  -1480950.38344  -1153986.13544  24452845.4934   24452845.5254
  -3668348.50744  -2858450.56944  23656069.2824   23656070.3694
 -13524747.52644 -10538759.21644  22472598.1314   22472598.6134
 -22734701.73244 -17715341.53244  20692453.6304   20692453.2024
 96  3 14  1 35 30.0000000  0  8G24G 4G 9G 7G 6G16G20G 5
 -20442473.55244 -15929183.67144  20419980.8834   20419980.9564
  -1113713.29644   -867821.42144  22118071.9284   22118071.1274
  -1559150.96744  -1214921.40144  22485732.2744   22485733.1674
  20774842.03144  16188183.76344  24313415.8544   24313419.4804
  -1550958.74444  -1208538.01744  24439522.9764   24439523.5374
  -3761896.99344  -2931345.44144  23638266.9174   23638267.7254
 -13613193.79044 -10607678.36644  22455767.4474   22455768.0574
 -22780709.63844 -17751191.84344  20683698.3704   20683697.9114
 96  3 14  1 36  0.0000000  0  8G24G 4G 9G 7G 6G16G20G 5
 -20425647.19944 -15916072.21944  20423183.1064   20423183.1324
  -1032204.25544   -804307.88144  22133582.6084   22133581.9824
  -1479728.99544  -1153034.16644  22500845.6434   22500846.6874
  20845208.63644  16243014.87044  24326805.4124   24326806.5864
  -1620936.49744  -1263066.07144  24426206.9764   24426204.5834
  -3855388.67744  -3004196.04944  23620475.5954   23620476.7914
 -13701450.13144 -10676449.52544  22438973.3574   22438973.1294
 -22826356.21144 -17786760.59944  20675012.4524   20675011.9054
 96  3 14  1 36 30.0000000  0  8G24G 4G 9G 7G 6G16G20G 5
 -20408305.01644 -15902558.82644  20426483.1434   20426483.2124
   -950458.45944   -740609.86444  22149138.8194   22149138.4014
  -1400051.01244  -1090947.44844  22516007.9554   22516008.9404
  20915555.72144  16297830.80544  24340192.4554   24340192.8474
  -1690891.01044  -1317576.07944  24412894.4784   24412893.9864
  -3948800.51144  -3076984.43844  23602699.4874   23602700.2794
 -13789487.37544 -10745049.96744  22422219.5864   22422219.9994
 -22871624.52044 -17822034.59844  20666398.0734   20666397.6244
 96  3 14  1 37  0.0000000  0  8G24G 4G 9G 7G 6G16G20G 5
 -20390471.80344 -15888662.80644  20429876.5624   20429876.5764
   -868469.60344   -676722.44744  22164740.6164   22164739.8954
  -1320133.17644  -1028673.83744  22531216.4094   22531217.0184
  20985905.04444  16352648.43644  24353580.4204   24353580.6334
  -1760833.08344  -1372076.36944  24399585.4944   24399585.1924
  -4042126.00944  -3149705.55844  23584941.0394   23584942.3824
 -13877320.53344 -10813491.37144  22405505.4214   22405505.3264
 -22916510.68344 -17857010.82144  20657856.6624   20657856.0834
 96  3 14  1 37 30.0000000  0  8G24G 4G 9G 7G 6G16G20G 5
 -20372168.30744 -15874400.33244  20433359.6884   20433359.8204
   -786223.38944   -612634.49444  22180391.5294   22180391.0204
  -1239975.61044   -966213.41044  22546470.6534   22546470.1574
  21056261.23044                  24366967.9324
  -1830756.77844  -1426562.33744  24386278.1994   24386279.5194
  -4135363.05744  -3222357.76544  23567198.7924   23567200.3964
 -13964951.61144 -10881775.31144  22388829.9364   22388829.6444
 -22961010.70444 -17891686.16044  20649388.2064   20649387.6374
 96  3 14  1 38  0.0000000  0  8G24G 4G 9G 7G 6G16G20G 5
 -20353374.99244 -15859756.18044  20436936.0834   20436936.0864
   -703684.38144   -548318.38444  22196098.4614   22196097.2864
  -1159563.55444   -903554.67844  22561772.4964   22561771.8164
  21126655.91644                  24380363.0534
  -1900648.95344  -1481023.69144  24372979.0514   24372978.8604
  -4228486.44844  -3294921.38444  23549477.2694   23549478.1944
 -14052357.84744 -10949884.05244  22372197.2304   22372197.4114
 -23005104.00044 -17926044.56444  20640997.9684   20640997.4644
 96  3 14  1 38 30.0000000  0  8G24G 4G 9G 7G 6G16G20G 5
 -20334101.05044 -15844737.52044  20440603.4964   20440603.8474
   -620853.19944   -483774.60344  22211860.1074   22211859.6214
  -1078890.45744   -840692.53944  22577124.4684   22577123.9554
  21197115.68944                  24393771.8574
  -1970496.28744  -1535450.13044  24359687.4664   24359686.7824
  -4321501.67844  -3367400.72244  23531777.9104   23531779.3824
 -14139537.18344 -11017815.98644  22355607.1354   22355607.8134
 -23048789.09644 -17960084.89644  20632684.9444   20632684.3134
 96  3 14  1 39  0.0000000  0  8G24G 4G 9G 7G 6G16G20G 5
 -20314377.92244 -15829368.83844  20444357.1184   20444356.9244
   -537758.74544   -419025.67944  22227672.8484   22227672.2404
   -997956.86544   -777627.41144  22592524.9794   22592524.5534
  21267632.27344                  24407190.5464
  -2040288.94944  -1589834.00844  24346406.0454   24346406.5334
  -4414427.64044  -3439810.50944  23514093.9764   23514096.1864
 -14226512.72544 -11085589.10944  22339056.4414   22339057.1814
 -23092077.69744 -17993816.26744  20624447.2884   20624446.7804
 96  3 14  1 39 30.0000000  0  8G24G 4G 9G 7G 6G16G20G 5
 -20294201.05144 -15813646.59744  20448196.6634   20448196.6264
   -454421.48344   -354087.55444  22243531.0484   22243530.5024
   -916763.06044   -714359.53044  22607974.7184   22607974.4404
  21338196.11744                  24420618.6244
  -2110026.23344  -1644174.68444  24333135.3864   24333134.8434
  -4507267.35144  -3512153.08244  23496426.7074   23496428.2694
 -14313274.45244 -11153195.63144  22322546.1374   22322546.5184
 -23134976.97044 -18027244.26744  20616283.7664   20616283.1854
 96  3 14  1 40  0.0000000  0  8G24G 4G 9G 7G 6G16G20G 5
 -20273567.95144 -15797568.85044  20452122.6794   20452122.6794
   -370850.44444   -288967.26744  22259434.3094   22259434.0404
   -835304.03944   -650884.99044  22623476.0504   22623476.3954
  21408806.83044                  24434055.7634
  -2179708.98544  -1698472.87944  24319875.5454   24319876.4514
  -4600015.73644  -3584424.49144  23478776.8964   23478778.9714
 -14399833.25344 -11220644.03344  22306074.3314   22306074.6924
 -23177495.05644 -18060375.24744  20608192.8654   20608192.1744
 96  3 14  1 40 30.0000000  0  8G24G 4G 9G 7G 6G16G20G 5
 -20252504.54944 -15781155.80544  20456131.2044   20456131.0244
   -287082.21644   -223693.32544  22275374.5214   22275373.9824
   -753600.99444   -587220.30244  22639024.0314   22639024.1944
  21479436.12344                  24447495.2624
  -2249340.77744  -1752731.36244  24306624.5854   24306625.1504
  -4692704.62544  -3656649.54944  23461140.3014   23461141.1694
 -14486213.71944 -11287953.47044  22289637.1024   22289636.9744
 -23219647.63244 -18093221.40744  20600171.5844   20600171.0314
 96  3 14  1 41  0.0000000  0  8G24G 4G 9G 7G 6G16G20G 5
 -20230977.60344 -15764381.55544  20460227.2044   20460227.2154
   -203104.34944   -158256.03344  22291354.9064   22291354.4764
   -671640.83644   -523355.26244  22654620.6044   22654620.1874
  21550096.20344                  24460940.2704
  -2318909.15644  -1806940.44244  24293386.9324   24293386.9754
  -4785300.13944  -3728801.82844  23443519.4874   23443521.1074
 -14572403.01044 -11355113.93244  22273235.6494   22273235.5734
 -23261411.05544 -18125764.33244  20592224.2294   20592223.6054
 96  3 14  1 41 30.0000000  0  8G24G 4G 9G 7G 6G16G20G 5
 -20208975.52444 -15747237.07644  20464414.4004   20464414.4684
   -118909.47444    -92649.63744  22307376.4864   22307375.8484
   -589440.27144   -459302.88644  22670263.4814   22670262.9494
  21620786.10544                  24474394.2134
  -2388440.63244  -1861120.78744  24280154.5534   24280154.9674
  -4877790.29444  -3800872.01844  23425917.7814   23425918.7614
 -14658385.94044 -11422113.59544  22256873.9824   22256873.7224
 -23302778.28044 -18157998.53044  20584352.0784   20584351.6224
 96  3 14  1 42  0.0000000  0  8G24G 4G 9G 7G 6G16G20G 5
 -20186500.01644 -15729723.69144  20468691.2604   20468691.0434
    -34479.17344    -26859.80444  22323443.5074   22323443.4264
   -507000.76144   -395064.31344  22685950.6934   22685950.7584
  21691505.37344                  24487849.2544
  -2457933.65644  -1915271.18344  24266930.3784   24266931.3234
  -4970162.03744  -3872849.93544  23408340.6994   23408342.0684
 -14744153.81844 -11488945.69544  22240552.7644   22240553.0794
 -23343718.74744 -18189900.19644  20576561.6744   20576560.9784
 96  3 14  1 42 30.0000000  0  8G24G 4G 9G 7G 6G16G20G 5
 -20163560.71844 -15711848.90544  20473056.3174   20473056.5744
     50181.14644     39109.27644  22339553.6634   22339553.1614
   -424352.75744   -330663.29244  22701677.7794   22701677.5974
  21762235.17644                  24501310.9504
  -2527415.51344  -1969412.85944  24253709.8164   24253710.1194
  -5062424.42844  -3944742.65444  23390784.3934   23390785.2574
 -14829700.37744 -11555605.32844  22224273.5924   22224273.9194
 -23384222.03644 -18221461.19444  20568854.2654   20568853.7334
 96  3 14  1 43  0.0000000  0  8G24G 4G 9G 7G 6G16G20G 5
 -20140151.10044 -15693607.64144  20477511.1084   20477511.2094
    135079.21544    105263.62144  22355709.7834   22355708.4004
   -341494.86444   -266098.72544  22717444.5714   22717446.0394
  21832987.22044                  24514774.1744
  -2596901.19144  -2023557.51044  24240485.7254   24240486.0614
  -5154559.80644  -4016536.41244  23373251.7554   23373253.9244
 -14914999.19644 -11622071.92844  22208041.7084   22208042.5454
 -23424281.20544 -18252676.12844  20561231.0724   20561230.3924
 96  3 14  1 43 30.0000000  0  8G24G 4G 9G 7G 6G16G20G 5
 -20116281.60744 -15675008.03044  20482053.4694   20482053.4984
    220228.44144    171613.66244  22371912.5134   22371912.1904
   -258406.13344   -201354.28344  22733255.6924   22733255.8214
  21903778.09444                  24528245.4404
  -2666370.83044  -2077689.64444  24227266.0854   24227269.0734
  -5246571.53644  -4088233.79844  23355742.4754   23355743.5014
 -15000021.21144 -11688322.82544  22191862.4174   22191863.3484
 -23463886.13044 -18283537.10944  20553694.2904   20553693.9544
 96  3 14  1 44  0.0000000  0  8G24G 4G 9G 7G 6G16G20G 5
 -20091961.11344 -15656056.98944  20486681.2864   20486681.3164
    305613.70844    238147.62844  22388160.9174   22388161.2074
   -175083.75044   -136427.76344  22749112.4724   22749111.9964
  21974610.10844                  24541724.0574
  -2735807.91144  -2131796.40044  24214053.0534   24214053.3624
  -5338476.37144  -4159847.90544  23338252.7324   23338254.0004
 -15084778.47244 -11754367.42944  22175733.8304   22175734.3644
 -23503052.49344 -18314056.34844  20546241.5124   20546240.9414
 96  3 14  1 44 30.0000000  0  8G24G 4G 9G 7G 6G16G20G 5
 -20067177.70144 -15636745.23244  20491397.5654   20491397.6024
    391214.66544    304849.65644  22404450.6374   22404450.4534
    -91517.93044    -71311.55744  22765015.3694   22765015.3414
  22045484.47344                  24555210.3794
  -2805200.99244  -2185868.88544  24200847.8474   24200850.1374
  -5430263.87844  -4231370.60444  23320786.1374   23320787.1364
 -15169266.16644 -11820201.98744  22159656.0054   22159655.7614
 -23541800.44444 -18344249.55744  20538867.6314   20538867.1694
 96  3 14  1 45  0.0000000  0  8G24G 4G 9G 7G 6G16G20G 5
 -20041918.89044 -15617063.03444  20496204.0014   20496204.0514
    477036.26044    371723.62544  22420781.8964   22420781.6224
     -7686.40644     -5988.29744  22780967.3294   22780967.2164
  22116414.73444                  24568707.9424
  -2874516.76344  -2239881.14644  24187658.3824   24187657.4694
  -5521925.10444  -4302794.88744  23303344.2494   23303344.6174
 -15253480.16444 -11885823.26444  22143631.0284   22143631.6164
 -23580124.35344 -18374112.33744  20531575.3354   20531574.7174
 96  3 14  1 45 30.0000000  0  8G24G 4G 9G 7G 6G16G20G 5
 -20016203.71244 -15597025.22544  20501097.4894   20501097.3004
    563076.34944    438767.83444  22437154.5134   22437154.6784
     76389.07844     59525.04244  22796966.7914   22796967.3244
  22187370.15544                  24582211.2414
  -2943748.56844  -2293827.96044  24174483.4474   24174484.6564
  -5613471.35344  -4374129.58344  23285922.9134   23285923.9274
 -15337457.66744 -11951260.25344  22127650.4414   22127650.8864
 -23618037.27644 -18403654.87244  20524360.4714   20524359.7234
 96  3 14  1 46  0.0000000  0  8G24G 4G 9G 7G 6G16G20G 5
 -19990022.74644 -15576624.46644  20506079.5264   20506079.4004
    649338.92644    505985.42544  22453569.7754   22453569.4554
    160689.44944    125213.61544  22813008.4484   22813007.9924
  22258341.56044                  24595716.9044
  -3012902.10544  -2347713.79844  24161322.9034   24161323.9804
  -5704877.09544  -4445354.79744  23268529.6234   23268530.1054
 -15421213.33844 -12016524.39244  22111711.9994   22111712.4094
 -23655545.64544 -18432882.16744  20517222.7384   20517222.2984
 96  3 14  1 46 30.0000000  0  8G24G 4G 9G 7G 6G16G20G 5
 -19963375.84344 -15555860.64144  20511150.1224   20511150.3924
    735837.73644    573387.09644  22470029.7914   22470029.4104
    245216.57244    191078.88844  22829092.8694   22829093.1814
  22329329.38444                  24609224.1344
  -3081990.05744  -2401548.49444  24148175.3134   24148178.3834
  -5796123.22244  -4516455.62944  23251165.9964   23251166.7194
 -15504747.49444 -12081615.93144  22095816.3454   22095815.9934
 -23692638.83244 -18461785.94644  20510164.1874   20510163.6474
 96  3 14  1 47  0.0000000  0  8G24G 4G 9G 7G 6G16G20G 5
 -19936285.51944 -15534751.29644  20516305.3944   20516305.4784
    822571.86644    640972.12544  22486534.9344   22486533.9354
    329947.39144    257102.88344  22845216.1004   22845215.7464
  22400328.16844                  24622735.2754
  -3151032.21844  -2455347.52844  24135038.4584   24135039.1154
  -5887227.11144  -4587445.63344  23233829.1934   23233830.2604
 -15588066.67944 -12146539.96244  22079961.2364   22079961.0394
 -23729323.33444 -18490371.26444  20503183.6034   20503183.1234
 96  3 14  1 47 30.0000000  0  8G24G 4G 9G 7G 6G16G20G 5
 -19908774.57844 -15513314.19344  20521540.5274   20521540.6444
    909516.00144    708720.80144  22503080.5224   22503080.0764
    414866.52044    323273.62144  22861376.2894   22861375.3494
  22471335.97944                  24636247.1794
  -3220054.71044  -2509131.25944  24121903.6824   24121904.1414
  -5978183.38144  -4658320.61144  23216520.0474   23216521.4784
 -15671171.75044 -12211297.14344  22064146.9014   22064147.3774
 -23765615.47744 -18518650.85344  20496277.1784   20496276.6504
 96  3 14  1 48  0.0000000  0  7G24G 4G 9G 6G16G20G 5
 -19880836.96044 -15491544.61644  20526856.9344   20526857.0024
    996645.42644    776613.85144  22519660.3354   22519659.8054
    499973.04944    389590.39044  22877571.5034   22877571.2064
  -3289070.85644  -2562910.03444  24108769.7114   24108770.8264
  -6068992.92244  -4729081.25244  23199239.7584   23199241.1594
 -15754035.72744 -12275866.45644  22048378.4964   22048378.4014
 -23801511.55044 -18546621.81544  20489446.4624   20489446.0294
 96  3 14  1 48 30.0000000  0  7G24G 4G 9G 6G16G20G 5
 -19852488.67744 -15469455.03944  20532251.4774   20532251.4514
   1083938.34644    844634.30844  22536271.7584   22536270.4564
    585252.72944    456042.07844  22893799.3534   22893799.8774
  -3358090.84144  -2616691.79944  24095636.3624   24095637.4634
  -6159669.50044  -4799738.28244  23181985.3144   23181986.5544
 -15836648.49044 -12340240.02244  22032657.8024   22032658.1174
 -23836998.87344 -18574274.26844  20482693.6334   20482692.9944
 96  3 14  1 49  0.0000000  0  8G24G 4G 9G 7G 6G16G20G 5
 -19823720.00944 -15447037.89544  20537725.6114   20537725.9294
   1171408.39644    912792.78844  22552916.4084   22552915.2774
    670707.80244    522630.41144  22910061.6024   22910062.8404
        -0.64654                  24676829.3854
  -3427095.03944  -2670461.28644  24082504.8814   24082504.4904
  -6250193.79644  -4870276.64544  23164758.7914   23164759.8614
 -15918985.26344 -12404398.53444  22016989.7734   22016989.6554
 -23872056.57144 -18601591.95344  20476022.2474   20476021.4144
 96  3 14  1 49 30.0000000  0  8G24G 4G 9G 7G 6G16G20G 5
 -19794521.62044 -15424285.89744  20543282.0374   20543281.9094
   1259067.46044    981098.54744  22569597.6534   22569597.1054
    756343.16244    589359.23844  22926357.2644   22926357.5084
     71218.74944                  24690381.2794
  -3496075.50144  -2724212.24644  24069378.1374   24069378.7664
  -6340551.67244  -4940685.32644  23147563.7004   23147564.4154
 -16001033.52444 -12468332.23944  22001376.2564   22001375.8914
 -23906664.50444 -18628559.17144  20469436.4614   20469436.0024
 96  3 14  1 50  0.0000000  0  8G24G 4G 9G 7G 6G16G20G 5
 -19764897.08544 -15401201.83744  20548919.3754   20548919.3684
   1346921.68544   1049556.38044  22586315.6294   22586314.8894
    842154.22244    656224.98044  22942686.4934   22942687.1934
    142512.76644                  24703947.7554
  -3565032.68844  -2777945.07744  24056256.5954   24056258.0424
  -6430752.30844  -5010971.50144  23130399.3354   23130400.8304
 -16082808.92344 -12532053.31044  21985814.8274   21985815.1734
 -23940821.06244 -18655174.66044  20462936.7624   20462936.0464
 96  3 14  1 50 30.0000000  0  8G24G 4G 9G 7G 6G16G20G 5
 -19734848.66844 -15377787.48344  20554637.5234   20554637.5254
   1434985.20744   1118177.29844  22603073.6314   22603073.2064
    928151.09944    723235.51244  22959050.8934   22959051.5054
    213869.31744                  24717526.5184
  -3633960.56344  -2831655.07544  24043140.2484   24043139.5774
  -6520787.67744  -5081128.87944  23113266.5844   23113268.2434
 -16164318.71644 -12595567.42444  21970303.9844   21970304.1294
 -23974519.87544 -18681433.47744  20456524.0994   20456523.4644
 96  3 14  1 51  0.0000000  0  8G24G 4G 9G 7G 6G16G20G 5
 -19704389.28844 -15354052.89344  20560433.9264   20560433.6464
   1523242.23644   1186949.00744  22619868.1714   22619867.9514
   1014328.16344    790386.45844  22975449.7534   22975450.0714
    285266.53544                  24731113.6624
  -3702861.82844  -2885344.33244  24030028.2694   24030028.3564
  -6610671.83744  -5151168.44044  23096161.6364   23096162.1964
 -16245567.30544 -12658878.00044  21954842.9784   21954843.3004
 -24007782.48544 -18707352.38644  20450194.4844   20450193.9174
 96  3 14  1 51 30.0000000  0  8G24G 4G 9G 7G 6G16G20G 5
 -19673513.85744 -15329994.11244  20566309.0574   20566309.1094
   1611672.84744   1255855.98244  22636695.3034   22636694.9414
   1100690.00944    857681.39744  22991884.5234   22991884.1334
    356683.17544                  24744703.5624
  -3771727.38144  -2939005.73944  24016924.7274   24016925.5304
  -6700404.49844  -5221089.94044  23079086.3474   23079086.9034
 -16326555.39244 -12721985.59644  21939431.5934   21939431.2734
 -24040605.05944 -18732928.41544  20443948.4984   20443947.7154
 96  3 14  1 52  0.0000000  0  7G24G 4G 9G 6G16G20G 5
 -19642208.89844 -15305600.63444  20572266.1624   20572266.0814
   1700282.32244   1324902.31044  22653557.3724   22653556.6884
   1187253.50244    925133.46144  23008356.6244   23008356.0734
  -3840542.99044  -2992628.29344  24003829.4684   24003828.9894
  -6789975.14144  -5290885.20444  23062041.2784   23062042.5554
 -16407273.25044 -12784882.61844  21924071.5264   21924071.9824
 -24072965.70544 -18758144.50044  20437790.4424   20437789.9584
 96  3 14  1 52 30.0000000  0  7G24G 4G 9G 6G16G20G 5
 -19610476.07344 -15280873.75044  20578304.6314   20578304.9144
   1789062.27644   1394081.48344  22670451.9144   22670450.6924
   1274004.87844    992731.93344  23024865.3644   23024864.7854
  -3909316.00044  -3046217.61244  23990740.7464   23990742.2164
  -6879392.52244  -5360561.02844  23045025.5094   23045025.9344
 -16487711.85444 -12847562.03244  21908764.6934   21908764.6734
 -24104859.95344 -18782997.15744  20431721.1504   20431720.5534
 96  3 14  1 53  0.0000000  0  7G24G 4G 9G 6G16G20G 5
 -19578306.38344 -15255806.45644  20584426.4204   20584426.5814
   1878017.59744   1463397.32344  22687379.9314   22687379.1514
   1360945.86244   1060478.13844  23041409.2724   23041409.5554
  -3978043.66444  -3099771.61444  23977662.1834   23977663.3444
  -6968645.65144  -5430108.88344  23028041.7504   23028042.5594
 -16567866.57144 -12910020.23744  21893511.8874   21893511.8054
 -24136285.68944 -18807484.74244  20425740.9464   20425740.2424
 96  3 14  1 53 30.0000000  0  8G24G 4G 9G 7G 6G16G20G 5
 -19545695.25444 -15230395.17844  20590632.2284   20590632.0504
   1967156.36244   1532856.10444  22704342.0474   22704341.8184
   1448075.03344   1128370.97944  23057989.7284   23057990.7724
        -0.70354                  24799069.2174
  -4046741.46744  -3153302.29644  23964589.6824   23964591.5284
  -7057733.16444  -5499527.66444  23011088.4474   23011090.0014
 -16647752.42244 -12972268.94444  21878309.8374   21878309.8034
 -24167242.48944 -18831606.91844  20419850.1834   20419849.6104
 96  3 14  1 54  0.0000000  0  8G24G 4G 9G 7G 6G16G20G 5
 -19512647.68244 -15204643.81944  20596920.9704   20596921.0284
   2056493.64844   1602469.56644  22721343.0284   22721342.6614
   1535393.22444   1196411.09944  23074605.5234   23074606.2174
     71443.03344                  24812664.5594
  -4115409.71244  -3206809.99844  23951522.8014   23951524.2814
  -7146641.87744  -5568807.12244  22994169.5434   22994171.0954
 -16727361.73444 -13034302.15944  21863160.7564   21863160.4694
 -24197739.99444 -18855371.20544  20414046.5604   20414045.9174
 96  3 14  1 54 30.0000000  0  8G24G 4G 9G 7G 6G16G20G 5
 -19479172.20044 -15178559.02344  20603291.0504   20603290.9814
   2146023.88244   1672233.39844  22738379.8614   22738378.7674
   1622893.58344   1264593.17144  23091256.6684   23091256.4944
    142913.32544                  24826265.6564
  -4184038.31844  -3260286.79244  23938463.2694   23938465.6064
  -7235347.51744  -5637928.35244  22977289.7424   22977290.4954
 -16806690.38644 -13096116.67144  21848064.8284   21848064.6704
 -24227797.54244 -18878792.66744  20408327.0184   20408326.5184
 96  3 14  1 55  0.0000000  0  8G24G 4G 9G 7G 6G16G20G 5
 -19445279.61844 -15152149.21344  20609740.6824   20609740.6594
   2235733.39044   1742136.90244  22755450.9124   22755450.6334
   1710561.29444   1332905.65444  23107939.8814   23107938.2684
    214425.20344                  24839873.2994
  -4252629.04144  -3313734.07444  23925410.9714   23925412.7104
  -7323836.50244  -5706880.75644  22960450.7454   22960451.8124
 -16885740.57644 -13157714.21544  21833021.9914   21833022.2814
 -24257429.76744 -18901882.70644  20402688.2284   20402687.7484
 96  3 14  1 55 30.0000000  0  8G24G 4G 9G 7G 6G16G20G 5
 -19410968.24944 -15125413.08044  20616269.8834   20616270.0444
   2325624.01044   1812181.54044  22772556.7084   22772555.5344
   1798393.88244   1401346.64044  23124653.5494   23124652.5914
    285990.17844                  24853491.9894
  -4321159.81144  -3367134.62944  23912369.8234   23912370.6874
  -7412102.26444  -5775659.24044  22943654.7824   22943655.4664
 -16964487.83544 -13219075.70744  21818036.2014   21818036.8504
 -24286620.85244 -18924629.00144  20397133.1224   20397132.5854
 96  3 14  1 56  0.0000000  0  8G24G 4G 9G 7G 6G16G20G 5
 -19376257.43144 -15098365.68444  20622874.9344   20622874.9694
   2415671.22844   1882348.19444  22789691.8764   22789691.6544
   1886370.98044   1469900.20844  23141395.2814   23141394.6674
    357597.24844                  24867118.3834
  -4389633.70444  -3420490.86544  23899338.8694   23899341.9114
  -7500146.18044  -5844264.84744  22926899.7964   22926901.0104
 -17042927.60644 -13280197.59044  21803109.7864   21803110.3174
 -24315369.00444 -18947030.15544  20391662.5944   20391662.0544
 96  3 14  1 56 30.0000000  0  8G24G 4G 9G 7G 6G16G20G 5
 -19341144.71944 -15071005.12544  20629556.6994   20629556.9434
   2505864.53044   1952628.67444  22806855.0254   22806854.5404
   1974473.55944   1538551.54844  23158160.5264   23158160.1084
    429248.20444                  24880751.9094
  -4458069.25544  -3473817.24644  23886316.4014   23886318.8054
  -7587989.93644  -5912714.48344  22910183.8344   22910184.8174
 -17121063.21444 -13341082.46044  21788241.5294   21788241.2724
 -24343663.24844 -18969077.61444  20386278.2334   20386277.6654
 96  3 14  1 57  0.0000000  0  8G24G 4G 9G 7G 6G16G20G 5
 -19305619.46444 -15043323.10744  20636317.1474   20636317.0314
   2596209.78444   2023027.57944  22824046.8764   22824045.5914
   2062698.82944   1607298.50044  23174948.5754   23174949.0044
    500940.01544                  24894394.4424
  -4526474.02544  -3527119.61844  23873299.9954   23873300.7744
  -7675653.01944  -5981023.32744  22893501.7164   22893503.4164
 -17198891.18344 -13401727.62344  21773431.3964   21773431.0124
 -24371482.85844 -18990755.22944  20380984.6024   20380984.1194
 96  3 14  1 57 30.0000000  0  8G20G24G 4G 9G 7G 6G16G 5
 -17276416.92644 -13462137.27444  21758678.5974   21758679.0754
 -19269691.62144 -15015327.38044  20643154.0684   20643153.8784
   2686707.56144   2093545.32344  22841268.2424   22841268.3334
   2151063.62344   1676154.16344  23191763.7404   23191764.2274
    572662.48344                  24908043.6034
  -4594845.06844  -3580395.74244  23860288.2184   23860290.5484
  -7763137.88044  -6049193.30844  22876853.8564   22876854.7974
 -24398822.52844 -19012058.86544  20375781.8274   20375781.3304
 96  3 14  1 58  0.0000000  0  8G20G24G 4G 9G 7G 6G16G 5
 -17353646.70844 -13522316.30644  21743982.4054   21743982.9234
 -19233358.47644 -14987015.83844  20650067.7824   20650067.9834
   2777362.30944   2164185.37744  22858519.6404   22858518.6044
   2239577.36644   1745125.86944  23208607.5514   23208607.9944
    644427.25844                  24921700.1844
  -4663189.65144  -3633651.21344  23847283.5024   23847284.1544
  -7850430.00144  -6117213.11144  22860243.2254   22860243.5344
 -24425673.34344 -19032981.57844  20370672.3444   20370671.7444
 96  3 14  1 58 30.0000000  0  8G20G24G 4G 9G 7G 6G16G 5
 -17430592.50944 -13582274.06244  21729339.9044   21729339.8594
 -19196634.17444 -14958399.49544  20657056.3494   20657056.1154
   2868175.49444   2234948.91144  22875800.5134   22875799.7324
   2328233.00344   1814208.18044  23225478.5424   23225478.6594
    716226.04144                  24935363.0954
  -4731514.70444  -3686891.50044  23834281.8314   23834282.2744
  -7937540.30144  -6185091.22544  22843666.1794   22843667.9934
 -24452052.93244 -19053537.10044  20365652.3024   20365651.9244
 96  3 14  1 59  0.0000000  0  8G20G24G 4G 9G 7G 6G16G 5
 -17507259.67844 -13642014.69844  21714750.3354   21714750.7594
 -19159533.27744 -14929489.69744  20664116.3074   20664116.4254
   2959140.28644   2305830.56044  22893110.8304   22893110.4084
   2417038.73644   1883407.44044  23242377.1454   23242377.9454
    788063.15644                  24949031.7414
  -4799812.02944  -3740110.15544  23821284.8294   23821285.4684
  -8024459.20544  -6252820.21044  22827126.3964   22827127.2514
 -24477970.59644 -19073732.68144  20360720.6134   20360719.7824
 96  3 14  1 59 30.0000000  0  8G20G24G 4G 9G 7G 6G16G 5
 -17583632.97344 -13701526.34444  21700217.5004   21700217.4514
 -19122055.63444 -14900286.34044  20671248.1794   20671248.2474
   3050266.06544   2376837.65944  22910451.3894   22910450.0184
   2506004.99344   1952731.78244  23259306.6404   23259306.3204
    859960.15544                  24962715.0204
  -4868080.69244  -3793306.47644  23808293.7244   23808293.9534
  -8111168.24244  -6320385.66344  22810626.5184   22810627.4864
 -24503420.06144 -19093563.43144  20355877.5774   20355877.1024
 96  3 14  2  0  0.0000000  0  8G20G24G 4G 9G 7G 6G16G 5
 -17659704.66844 -13760802.97844  21685741.2944   21685741.0864
 -19084187.84744 -14870778.96744  20678454.1214   20678454.1134
   3141551.95944   2447969.54144  22927822.3014   22927821.2814
   2595108.89344   2022163.37744  23276262.6724   23276263.0614
    931915.08644                  24976406.6984
  -4936331.69944  -3846489.02344  23795306.3414   23795306.6904
  -8197671.97344  -6387791.12144  22794164.9764   22794165.2884
 -24528398.58344 -19113027.20944  20351124.3744   20351123.8714
 96  3 14  2  0 30.0000000  0  7G24G 4G 9G 6G16G20G 5
 -19045931.00544 -14840968.43644  20685734.1294   20685734.4124
   3232995.87844   2519224.54044  22945223.2204   22945222.8374
   2684341.35944   2091695.14844  23293243.5314   23293244.2014
  -5004558.76144  -3899652.93044  23782323.2864   23782323.9404
  -8283966.01044  -6455033.20044  22777743.9974   22777744.5314
 -17735469.25944 -13819840.30644  21671323.7244   21671324.1374
 -24552917.79644 -19132133.09544  20346458.5384   20346458.0564
 96  3 14  2  1  0.0000000  0  7G20G24G 4G 9G 6G16G 5
 -17810913.22844 -13878627.80044  21656967.1464   21656966.9944
 -19007268.82944 -14810842.05944  20693091.2674   20693091.3554
   3324594.63844   2590600.18944  22962654.0144   22962653.3294
   2773699.19144   2161324.59844  23310247.6564   23310248.3084
  -5072754.66044  -3952792.56944  23769345.1194   23769346.9744
  -8370022.27744  -6522089.99244  22761367.7004   22761368.7714
 -24576969.29044 -19150874.51644  20341881.7134   20341881.2364
 96  3 14  2  1 30.0000000  0  7G20G24G 4G 9G 6G16G 5
 -17886014.54244 -13937148.30544  21642675.9614   21642675.7504
 -18968182.19344 -14780384.93244  20700529.2694   20700529.4754
   3416346.85544   2662095.43644  22980113.8114   22980113.1714
   2863179.18844   2231049.24044  23327275.2934   23327275.8654
  -5140906.56544  -4005897.91444  23756377.4114   23756377.9954
  -8455815.74544  -6588942.01744  22745041.7434   22745043.0084
 -24600535.56144 -19169237.84544  20337397.0634   20337396.4654
 96  3 14  2  2  0.0000000  0  7G20G24G 4G 9G 6G16G 5
 -17960808.26344 -13995429.11944  21628443.2214   21628443.3564
 -18928711.47244 -14749628.52144  20708040.2164   20708040.1364
   3508195.46744   2733665.78544  22997592.7894   22997590.8194
   2952731.38844   2300830.17044  23344317.9384   23344317.0804
  -5209042.54644  -4058990.84844  23743410.5684   23743411.3754
  -8541378.01044  -6655613.86944  22728760.0904   22728761.2234
 -24623654.39544 -19187252.51544  20332997.9754   20332997.4964
 96  3 14  2  2 30.0000000  0  7G20G24G 4G 9G 6G16G 5
 -18035269.13544 -14053450.56444  21614273.5834   21614273.8234
 -18888843.49644 -14718562.56144  20715626.8454   20715626.9424
   3600157.93344   2805324.85444  23015092.2284   23015092.3594
   3042379.21744   2370685.61044  23361376.1464   23361376.7844
  -5277135.01344  -4112049.89244  23730453.1414   23730453.8034
  -8626676.78444  -6722080.41944  22712527.8564   22712528.8424
 -24646304.20444 -19204901.72044  20328687.7214   20328687.0174
 96  3 14  2  3  0.0000000  0  7G 4G24G 9G 6G16G20G 5
   3692259.98944   2877092.68144  23032618.6424   23032619.0464
 -18848548.51744 -14687163.87244  20723294.7284   20723294.6224
   3132159.75644   2440644.44844  23378459.3034   23378459.6634
  -5345159.86244  -4165056.22344  23717508.7944   23717509.1534
  -8711689.65844  -6788324.18144  22696350.1954   22696351.2464
 -18109355.83644 -14111180.43844  21600175.1984   21600175.3134
 -24668438.32744 -19222149.08644  20324475.7654   20324475.2544
 96  3 14  2  3 30.0000000  0  7G20G24G 4G 9G 6G16G 5
 -18183098.30244 -14168642.09544  21586142.7384   21586142.5294
 -18807859.27344 -14655457.95744  20731037.5264   20731037.5384
   3784480.30744   2948952.67244  23050167.7254   23050166.6694
   3222060.27644   2510696.77144  23395567.3454   23395568.5194
  -5413138.12044  -4218026.28944  23704573.6184   23704574.1544
  -8796466.00244  -6854383.63844  22680218.6244   22680218.6184
 -24690075.29844 -19239009.06244  20320358.4714   20320357.7124
 96  3 14  2  4  0.0000000  0  7G20G24G 4G 9G 6G16G 5
 -18256506.76444 -14225843.48444  21572173.8444   21572173.7854
 -18766796.28444 -14623460.82044  20738851.7464   20738851.8334
   3876831.84144   3020914.91144  23067741.0474   23067741.1334
   3312090.64344   2580850.27644  23412699.3874   23412699.9684
  -5481076.61344  -4270965.32044  23691644.5984   23691645.0644
  -8881014.93044  -6920265.89044  22664129.6134   22664130.7994
 -24711226.76344 -19255490.72044  20316333.2114   20316332.7344
 96  3 14  2  4 30.0000000  0  7G20G24G 4G 9G 6G16G 5
 -18329597.39944 -14282797.21544  21558264.5584   21558264.8204
 -18725369.79444 -14591180.43044  20746734.8764   20746735.1594
   3969313.51044   3092978.54344  23085340.7894   23085340.9954
   3402257.69644   2651110.29444  23429858.2594   23429858.8254
  -5548982.61044  -4323879.04044  23678722.2184   23678723.6854
  -8965337.32844  -6985971.61444  22648083.4684   22648084.0404
 -24731898.09744 -19271598.24644  20312399.6484   20312399.1064
 96  3 14  2  5  0.0000000  0  7G 4G24G 9G 6G16G20G 5
   4061924.08744   3165142.63544  23102963.3974   23102962.7794
 -18683578.95844 -14558616.13944  20754687.2574   20754687.4704
   3492565.43944   2721479.93244  23447044.2274   23447044.0974
  -5616851.00444  -4376763.45744  23665807.8764   23665808.1334
  -9049433.06844  -7051500.73044  22632079.8044   22632081.3224
 -18402365.64544 -14339499.71944  21544417.4394   21544417.4804
 -24752086.03844 -19287329.11044  20308557.9704   20308557.5144
 96  3 14  2  5 30.0000000  0  7G20G24G 4G 9G 6G16G 5
 -18474808.52744 -14395948.69844  21530632.2704   21530632.1954
 -18641423.51244 -14525767.73544  20762709.3584   20762709.3034
   4154663.82644   3237407.37544  23120610.6764   23120609.7904
   3583007.60844   2791954.33344  23464254.6184   23464254.8804
  -5684680.13544  -4429617.28944  23652900.8904   23652900.2054
  -9133279.60244  -7116835.65044  22616124.5234   22616125.2374
 -24771795.69544 -19302687.28344  20304807.4744   20304806.9974
 96  3 14  2  6  0.0000000  0  7G20G24G 4G 9G 6G16G 5
 -18546918.13744 -14452138.00044  21516910.3434   21516909.9514
 -18598909.48544 -14492639.91844  20770799.5174   20770799.4874
   4247517.47044   3309760.85544  23138281.3104   23138280.1624
   3673559.70144   2862514.39944  23481485.2494   23481484.8964
  -5752488.25044  -4482454.77144  23639996.9484   23639998.2384
  -9216861.80544  -7181964.60444  22600219.8404   22600220.4204
 -24791030.50844 -19317675.44744  20301147.3114   20301146.6784
 96  3 14  2  6 30.0000000  0  7G 4G24G 9G 6G16G20G 5
   4340474.58844   3382194.98644  23155969.9544   23155967.8524
 -18556029.22844 -14459226.72544  20778959.4034   20778959.2984
   3764197.17444   2933140.99044  23498732.6414   23498733.9074
  -5820270.50644  -4535272.10444  23627097.5984   23627098.1564
  -9300174.24144  -7246883.33944  22584365.9344   22584366.5344
 -18618674.41644 -14508051.97344  21503254.9924   21503255.6784
 -24809777.50344 -19332283.49544  20297579.9334   20297579.3254
 96  3 14  2  7  0.0000000  0  7G20G24G 4G 9G 6G16G 5
 -18690070.01844 -14563684.88944  21489669.0164   21489668.7224
 -18512793.96344 -14425536.90444  20787186.6934   20787186.7674
   4433540.33244   3454713.73744  23173679.0214   23173678.5994
   3854890.02944   3003810.69944  23515990.4194   23515991.6944
  -5888030.56044  -4588072.09944  23614204.3084   23614204.4404
  -9383227.49244  -7311600.12644  22568561.0664   22568561.5414
 -24828044.40444 -19346517.44644  20294103.8684   20294103.2894
 96  3 14  2  7 30.0000000  0  7G20G24G 4G 9G 6G16G 5
 -18761105.72944 -14619037.38844  21476151.4384   21476151.2624
 -18469205.31044 -14391571.71944  20795481.0854   20795481.0674
   4526726.20744   3527326.10644  23191411.9734   23191411.1914
   3945636.44644   3074522.16544  23533259.5364   23533259.1604
  -5955763.18744  -4640850.72344  23601314.6854   23601314.9534
  -9466006.17544  -7376102.95744  22552808.6384   22552809.3564
 -24845822.33844 -19360370.37944  20290720.6954   20290720.0644
 96  3 14  2  8  0.0000000  0  7G20G24G 4G 9G 6G16G 5
 -18831789.29344 -14674115.47644  21462700.5254   21462700.6464
 -18425270.91844 -14357337.12144  20803841.6354   20803841.7064
   4620023.88544   3600025.60844  23209166.2114   23209164.7274
   4036420.77644   3145263.17244  23550536.5584   23550538.7394
  -6023458.26644  -4693600.10544  23588433.3594   23588433.4924
  -9548521.31344  -7440400.41744  22537106.0714   22537106.2474
 -24863110.76244 -19373841.87844  20287430.8814   20287430.3254
 96  3 14  2  8 30.0000000  0  7G20G24G 4G 9G 6G16G 5
 -18902122.85344 -14728920.82844  21449317.1424   21449317.4354
 -18380989.32844 -14322831.98444  20812268.2414   20812268.2404
   4713439.66144   3672817.13344  23226942.6754   23226942.9514
   4127259.34944   3216046.44544  23567822.2124   23567822.3914
  -6091104.28744  -4746311.29744  23575559.8524   23575558.8674
  -9630771.44944  -7504491.40144  22521455.4484   22521455.9164
 -24879900.82344 -19386925.04444  20284235.7834   20284235.1654
 96  3 14  2  9  0.0000000  0  7G20G24G 4G 9G 6G16G 5
 -18972123.08744 -14783466.45444  21435996.4404   21435996.2144
 -18336366.71144 -14288061.11044  20820759.6484   20820759.6664
   4806957.70444   3745688.31544  23244738.8894   23244738.5124
   4218160.21944   3286878.27844  23585119.8584   23585119.3274
  -6158719.38944  -4798998.33844  23562692.9204   23562693.3354
  -9712767.50744  -7568384.38944  22505851.0684   22505851.2444
 -24896205.76344 -19399630.18944  20281133.1654   20281132.6244
 96  3 14  2  9 30.0000000  0  7G20G24G 4G 9G 6G16G 5
 -19041767.71444 -14837734.98444  21422743.4674   21422744.0464
 -18291368.26244 -14252997.37844  20829322.4804   20829322.4104
   4900568.10244   3818631.48044  23262552.0964   23262550.3754
   4309158.68144   3357786.16744  23602435.7544   23602436.3624
  -6226285.43244  -4851647.17444  23549835.7774   23549835.7134
  -9794473.01444  -7632050.98544  22490303.0614   22490303.4894
 -24912006.19644 -19411942.21544  20278126.3434   20278125.7454
 96  3 14  2 10  0.0000000  0  7G20G24G 4G 9G 6G16G 5
 -19111052.77444 -14891723.33344  21409558.5534   21409558.4844
 -18246011.01944 -14217654.06844  20837953.6284   20837953.7364
   4994245.82644   3891627.12744  23280378.1754   23280376.5354
   4400250.94644   3428767.10544  23619769.9654   23619769.3954
  -6293821.95344  -4904273.00844  23536984.0694   23536984.6064
  -9875905.53544  -7695504.86744  22474807.2984   22474808.0954
 -24927307.67744 -19423865.44944  20275214.4504   20275214.0184
 96  3 14  2 10 30.0000000  0  7G20G 4G24G 9G 6G16G 5
 -19179966.44344 -14945422.28544  21396445.1264   21396444.7344
   5088002.89344   3964684.59644  23298219.2104   23298218.9794
 -18200291.96444 -14182028.82944  20846653.8064   20846653.9284
   4491448.38744   3499830.02044  23637124.6974   23637124.2474
  -6361340.54144  -4956884.87444  23524135.0924   23524135.2374
  -9957060.90344  -7758742.78044  22459364.0994   22459364.8034
 -24942101.91344 -19435393.42344  20272399.5814   20272398.6214
 96  3 14  2 11  0.0000000  0  7G 4G 9G24G 6G16G20G 5
   5181842.15844   4037806.08544  23316076.8634   23316076.4604
   4582735.55044   3570962.84544  23654496.1654   23654496.5594
 -18154210.29544 -14146121.03244  20855422.8034   20855422.9824
  -6428837.58644  -5009479.92244  23511290.5334   23511292.5244
 -10037929.25744  -7821757.04444  22443975.0194   22443976.3794
 -19248499.88744 -14998824.95344  21383403.5404   21383403.4614
 -24956398.61744 -19446533.71244  20269679.0304   20269678.3624
 96  3 14  2 11 30.0000000  0  7G20G 4G24G 9G 6G16G 5
 -19316648.73444 -15051927.94044  21370435.3174   21370434.9834
   5275773.31544   4110999.20144  23333951.1834   23333949.0984
 -18107762.68644 -14109928.08344  20864261.3904   20864261.4754
   4674099.01244   3642155.12444  23671881.8724   23671882.5134
  -6496296.25244  -5062045.02044  23498452.6004   23498457.2104
 -10118496.67044  -7884536.81244  22428643.6784   22428645.0244
 -24970181.49944 -19457273.61944  20267055.8244   20267055.1434
 96  3 14  2 12  0.0000000  0  7G 4G 9G24G 6G16G20G 5
   5369821.89244   4184283.80644  23351847.2194   23351847.3464
   4765523.45944   3713394.93744  23689279.9184   23689280.5264
 -18060964.33844 -14073461.83244  20873166.7734   20873166.8384
  -6563719.99444  -5114582.51844  23485623.7024   23485624.2564
 -10198777.10044  -7947092.95944  22413366.9954   22413367.5554
 -19384410.60544 -15104729.39044  21357540.9744   21357540.8994
 -24983444.94144 -19467608.76544  20264532.0424   20264531.5074
 96  3 14  2 12 30.0000000  0  7G16G 4G24G 9G 6G20G 5
 -10278768.31244  -8009423.74544  22398144.9194   22398145.3624
   5463981.82944   4257655.18044  23369765.0794   23369763.8264
 -18013811.38144 -14036719.26444  20882139.9554   20882140.0264
   4856992.20744   3784669.26244  23706685.3674   23706685.6634
  -6631110.49244  -5167094.71444  23472800.4454   23472800.8934
 -19451799.26144 -15157240.01544  21344716.9544   21344717.1714
 -24996205.89944 -19477552.36644  20262103.6444   20262103.0204
 96  3 14  2 13  0.0000000  0  7G16G 4G24G 9G 6G20G 5
 -10358442.31644  -8071507.35244  22382983.7914   22382984.6634
   5558256.32344   4331115.81144  23387705.4254   23387706.0614
 -17966292.42844 -13999691.50244  20891182.5444   20891182.1564
   4948515.73244   3855986.27144  23724102.0074   23724102.3784
  -6698443.05844  -5219561.99244  23459987.7814   23459987.0844
 -19518810.62844 -15209456.64744  21331965.0674   21331964.6524
 -25008455.31144 -19487097.36544  20259772.8194   20259772.1804
 96  3 14  2 13 30.0000000  0  7G16G 4G24G 9G 6G20G 5
 -10437805.67644  -8133348.89344  22367880.6784   22367881.1444
   5652632.68644   4404655.84044  23405664.9014   23405663.7024
 -17918427.64244 -13962394.25544  20900290.7324   20900290.8394
   5040091.77044   3927344.20444  23741528.7854   23741529.2914
  -6765729.93044  -5271993.28344  23447183.4824   23447181.5894
 -19585461.94444 -15261392.73044  21319281.5904   21319281.8274
 -25020192.83744 -19496243.48544  20257539.0484   20257538.4814
 96  3 14  2 14  0.0000000  0  7G16G24G 4G 9G 6G20G 5
 -10516862.97244  -8194951.94344  22352836.9344   22352837.4674
 -17870245.72344 -13924849.89844  20909459.4394   20909459.3444
   5747112.61244   4478276.56144  23423643.9384   23423643.0404
   5131721.29244   3998743.79944  23758965.4334   23758965.0204
  -6832997.82244  -5324409.78144  23434381.1604   23434381.5634
 -19651765.58744 -15313057.89744  21306664.2094   21306664.2114
 -25031431.78844 -19505001.10744  20255400.5164   20255399.9304
 96  3 14  2 14 30.0000000  0  7G16G24G 4G 9G 6G20G 5
 -10595595.18044  -8256301.68244  22337855.0374   22337856.2694
 -17821732.98844 -13887047.76144  20918691.1384   20918690.8954
   5841685.83944   4551969.98244  23441640.5024   23441640.1724
   5223415.55144   4070193.85344  23776414.6934   23776413.0304
  -6900236.32444  -5376803.34244  23421587.1424   23421588.9414
 -19717719.66944 -15364450.67544  21294113.5454   21294113.7144
 -25042157.19844 -19513358.56844  20253359.4954   20253358.8784
 96  3 14  2 15  0.0000000  0  7G 4G24G 9G 6G16G20G 5
   5936357.67044   4625740.24044  23459655.6444   23459654.5964
 -17772890.53344 -13848988.69944  20927985.6414   20927985.7284
   5315169.36144   4141690.29844  23793875.1824   23793875.8994
  -6967445.08244  -5429173.77944  23408797.7584   23408797.7104
 -10674008.58044  -8317403.00844  22322932.9394   22322934.2944
 -19783314.78344 -15415563.74744  21281631.6884   21281631.4034
 -25052356.07444 -19521305.74344  20251418.5174   20251417.9674
 96  3 14  2 15 30.0000000  0  7G16G24G 4G 9G 6G20G 5
 -10752127.35744  -8378274.75044  22308067.1964   22308068.0134
 -17723728.03044 -13810680.25244  20937340.7174   20937340.7524
   6031109.04844   4699572.49844  23477685.5914   23477686.7704
   5406968.98644   4213222.43844  23811342.1244   23811342.5554
  -7034644.69844  -5481537.08344  23396010.4444   23396010.9694
 -19848542.83744 -15466390.79044  21269219.0634   21269218.6464
 -25062032.92344 -19528846.14644  20249577.2264   20249576.6314
 96  3 14  2 16  0.0000000  0  7G16G 4G24G 9G 6G20G 5
 -10829962.99144  -8438925.85744  22293255.6564   22293256.1424
   6125920.74544   4773451.72044  23495728.6794   23495728.6734
 -17674238.19144 -13772116.73644  20946758.4044   20946758.5564
   5498802.35244   4284780.87144  23828817.4454   23828817.7394
  -7101834.25344  -5533892.56344  23383224.5764   23383223.9374
 -19913381.05244 -15516914.06644  21256881.3244   21256880.9244
 -25071184.63444 -19535977.35544  20247835.7834   20247835.1574
 96  3 14  2 16 30.0000000  0  7G16G 4G24G 9G 6G20G 5
 -10907518.47944  -8499358.68044  22278497.4984   22278498.4364
   6220768.22544   4847358.87444  23513777.6284   23513775.5804
 -17624406.32844 -13733286.70844  20956241.2834   20956241.1544
   5590655.60744   4356354.81244  23846297.3444   23846297.2834
  -7168996.27644  -5586226.58744  23370443.5994   23370443.9874
 -19977805.89344 -15567115.23044  21244620.8694   21244621.1924
 -25079821.10444 -19542707.07144  20246192.1504   20246191.6144
 96  3 14  2 17  0.0000000  0  7G16G 4G24G 9G 6G20G 5
 -10984769.27844  -8559554.07144  22263796.8984   22263797.4064
   6315668.25444   4921306.95144  23531835.9824   23531837.0284
 -17574239.79644 -13694195.89844  20965787.6364   20965787.7494
   5682526.21044   4427942.29044  23863779.3784   23863779.8014
  -7236126.57744  -5638535.88244  23357668.5544   23357669.9474
 -20041793.33044 -15616975.55544  21232444.6204   21232444.9884
 -25087942.17344 -19549035.17844  20244646.7094   20244646.0544
 96  3 14  2 17 30.0000000  0  7G16G 4G24G 9G 6G20G 5
 -11061675.68744  -8619481.11044  22249162.7024   22249163.2144
   6410636.68444   4995308.31444  23549908.4764   23549910.8594
 -17523740.93044 -13654846.12744  20975397.0814   20975397.0704
   5774430.40744   4499555.90944  23881267.9694   23881269.0834
  -7303200.63944  -5690801.36144  23344904.8834   23344906.4614
 -20105322.84044 -15666479.06544  21220355.3374   21220355.4984
 -25095536.40644 -19554952.76044  20243201.5354   20243201.0504
 96  3 14  2 18  0.0000000  0  7G24G 4G 9G 6G16G20G 5
 -17472915.22944 -13615241.68044  20985069.1444   20985069.1334
   6505689.01944   5069375.07444  23567996.2264   23567994.1284
   5866350.33344   4571181.76244  23898760.5194   23898761.7194
  -7370224.57744  -5743027.77844  23332151.3034   23332151.4874
 -11138221.99644  -8679127.54344  22234596.1934   22234596.6094
 -20168397.85344 -15715628.41244  21208352.7154   21208352.2944
 -25102605.19444 -19560460.90744  20241856.5574   20241856.0304
 96  3 14  2 18 30.0000000  0  7G24G 4G 9G 6G16G20G 5
 -17421777.68444 -13575394.23944  20994799.6864   20994799.8904
   6600828.95944   5143510.11644  23586100.7524   23586099.1214
   5958271.00544   4642808.26544  23916252.6224   23916254.2154
  -7437217.57744  -5795230.09944  23319402.4744   23319402.8034
 -11214403.53644  -8738489.75644  22220098.8364   22220099.6344
 -20231060.98644 -15764456.81844  21196428.0694   21196428.0564
 -25109167.32044 -19565574.24744  20240607.8174   20240607.3274
 96  3 14  2 19  0.0000000  0  7G24G 4G 9G 6G16G20G 5
 -17370322.29744 -13535299.12944  21004591.7554   21004591.6954
   6696067.58244   5217722.00644  23604224.3524   23604223.5214
   6050202.97444   4714443.52744  23933746.4804   23933747.2314
  -7504177.63944  -5847406.74344  23306659.4744   23306660.4614
 -11290213.50944  -8797562.43644  22205672.9884   22205674.4274
 -20293320.85844 -15812970.98944  21184580.2684   21184580.8324
 -25115215.53144 -19570287.14244  20239456.9064   20239456.0634
 96  3 14  2 19 30.0000000  0  7G24G 4G 9G 6G16G20G 5
 -17318533.84644 -13494944.48644  21014446.5584   21014446.6114
   6791399.21744   5292006.41644  23622366.0494   23622365.6154
   6142157.47144   4786096.34144  23951244.3844   23951245.2134
  -7571093.91144  -5899549.25844  23293925.2404   23293926.7894
 -11365666.59644  -8856357.01844  22191314.4974   22191315.1444
 -20355181.83244 -15861174.33244  21172808.7334   21172808.8324
 -25120745.00244 -19574595.82444  20238404.6964   20238404.0994
 96  3 14  2 20  0.0000000  0  7G24G 4G 9G 6G16G20G 5
 -17266396.48844 -13454317.97144  21024368.2734   21024368.3544
   6886802.42944   5366346.57444  23640519.9574   23640519.5704
   6234131.77844   4857764.59744  23968747.1074   23968748.0924
  -7637971.75144  -5951661.83044  23281199.8604   23281199.8134
 -11440776.00744  -8914883.80444  22177022.2364   22177022.8114
 -20416656.36744 -15909076.56344  21161110.7414   21161110.6354
 -25125765.01344 -19578507.52044  20237449.4894   20237448.8404
 96  3 14  2 20 30.0000000  0  7G24G 4G 9G 6G16G20G 5
 -17213935.40344 -13413439.20144  21034351.2654   21034351.0524
   6982250.84144   5440721.98344  23658682.9254   23658682.5304
   6326139.03244   4929458.54444  23986255.4524   23986256.0664
  -7704810.59244  -6003744.00044  23268481.2154   23268481.2584
 -11515557.62444  -8973155.16544  22162791.1684   22162791.6744
 -20477757.21244 -15956687.59644  21149482.9384   21149483.2244
 -25130289.43744 -19582033.04544  20236588.4624   20236587.9964
 96  3 14  2 21  0.0000000  0  7G24G 4G 9G 6G16G20G 5
 -17161159.19344 -13372314.87744  21044393.9574   21044394.1294
   7077741.01744   5515129.91244  23676854.3384   23676854.8334
   6418186.64644   5001183.93044  24003771.9604   24003771.5774
  -7771604.53744  -6055791.19344  23255771.0794   23255771.3724
 -11590010.16144  -9031170.09844  22148623.6224   22148624.0744
 -20538457.60144 -16003986.58744  21137932.7364   21137932.8424
 -25134297.00244 -19585155.82144  20235825.7914   20235825.1934
 96  3 14  2 21 30.0000000  0  7G24G 4G 9G 6G16G20G 5
 -17108076.10444 -13330951.42844  21054495.7274   21054495.7984
   7173278.18744   5589574.47144  23695034.1104   23695034.2174
   6510283.27244   5072947.49444  24021297.5704   24021296.9004
  -7838355.35744  -6107804.80644  23243068.9354   23243068.5054
 -11664112.06544  -9088911.80644  22134522.7024   22134523.6694
 -20598748.95644 -16050966.85744  21126459.3584   21126459.5024
 -25137754.17744 -19587849.72244  20235167.8304   20235167.3184
 96  3 14  2 22  0.0000000  0  7G24G 4G 9G 6G16G20G 5
 -17054724.75544 -13289378.94244  21064647.7564   21064647.9174
   7268842.31844   5664040.03144  23713219.2414   23713217.4314
   6602399.35444   5144726.21044  24038824.8794   24038825.6444
  -7905100.35544  -6159813.87044  23230367.2814   23230367.6144
 -11737879.68644  -9146393.03944  22120484.5584   22120485.6604
 -20658654.49344 -16097646.48444  21115059.7684   21115059.8214
 -25140674.88944 -19590125.60144  20234612.2144   20234611.5004
 96  3 14  2 22 30.0000000  0  7G24G 4G 9G 6G16G20G 5
 -17001119.41144 -13247608.53944  21074848.6174   21074848.6494
   7364447.32144   5738537.45144  23731411.3864   23731411.8454
   6694531.31244   5216517.31844  24056357.0364   24056357.2184
  -7971846.51744  -6211823.84644  23217665.8404   23217665.8394
 -11811304.71344  -9203607.31344  22106512.3544   22106512.9224
 -20718159.06944 -16144013.67444  21103736.1374   21103735.9514
 -25143037.16744 -19591966.34444  20234162.6434   20234162.1224
 96  3 14  2 23  0.0000000  0  7G24G 4G 9G 6G16G20G 5
 -16947228.46644 -13205615.58944  21085103.5594   21085103.5384
   7460102.46644   5813073.91244  23749615.3284   23749616.3854
   6786669.09844   5288312.99344  24073890.7424   24073890.8794
  -8038574.44944  -6263819.58144  23204968.0844   23204967.8434
 -11884362.70844  -9260535.59144  22092609.7784   22092610.5054
 -20777239.48544 -16190050.34944  21092493.5364   21092493.5624
 -25144823.93744 -19593358.63244  20233822.5994   20233822.0104
 96  3 14  2 23 30.0000000  0  7G24G 4G 9G 6G16G20G 5
 -16893039.98644 -13163390.79844  21095415.3274   21095415.4114
   7555801.20244   5887644.36744  23767826.6034   23767826.2004
   6878798.93844   5360102.42344  24091422.8614   24091420.8104
  -8105273.43844  -6315792.78844  23192275.8054   23192275.1364
 -11957051.64744  -9317176.29544  22078777.5944   22078778.0844
 -20835888.58444 -16235750.93744  21081333.5314   21081333.3924
 -25146056.80544 -19594319.30444  20233588.0014   20233587.5014
 96  3 14  2 24  0.0000000  0  7G24G 4G 9G 6G16G20G 5
 -16838532.58244 -13120917.49344  21105787.8834   21105788.0734
   7651551.22244   5962254.76844  23786046.5954   23786045.2574
   6970906.96844   5431874.88844  24108951.1544   24108951.4184
  -8171920.23944  -6367725.33344  23179593.4714   23179593.8454
 -12029371.14244  -9373529.12444  22065015.8784   22065016.0584
 -20894076.23844 -16281091.95744  21070260.8634   21070260.8794
 -25146752.26644 -19594861.22144  20233455.4984   20233455.1254
 96  3 14  2 24 30.0000000  0  7G24G 4G 9G 6G16G20G 5
 -16783707.97044 -13078197.01344  21116220.5664   21116220.8034
   7747337.76344   6036893.63244  23804274.0714   23804273.2204
   7062977.03644   5503617.76544  24126471.7444   24126471.3004
  -8238503.27844  -6419608.19344  23166923.1674   23166923.1714
 -12101318.12044  -9429591.66944  22051324.9024   22051325.7054
 -20951803.50144 -16326074.22444  21059274.9914   21059275.4444
 -25146919.06144 -19594991.19744  20233424.0284   20233423.5144
 96  3 14  2 25  0.0000000  0  7G24G 4G 9G 6G16G20G 5
 -16728568.68244 -13035231.33344  21126713.4294   21126713.8674
   7843157.66044   6111558.48344  23822507.7044   23822507.1134
   7154994.58244   5575319.73144  24143981.5724   24143982.1324
  -8305021.98844  -6471440.92644  23154265.1144   23154264.6044
 -12172902.38744  -9485371.59244  22037702.4664   22037703.3274
 -21009074.04944 -16370700.61844  21048377.4314   21048377.2734
 -25146574.07844 -19594722.38044  20233489.6694   20233489.1344
 96  3 14  2 25 30.0000000  0  7G24G 4G 9G 6G16G20G 5
 -16673110.85944 -12992017.44144  21137266.3244   21137266.6904
   7939040.17244   6186272.14544  23840754.0954   23840754.4434
   7246992.56344   5647006.42444  24161488.6214   24161488.6074
  -8371466.66644  -6523215.97744  23141621.2444   23141620.6234
 -12244102.28444  -9540851.99944  22024153.4294   22024154.0254
 -21065866.71244 -16414954.63344  21037569.7954   21037569.7074
 -25145695.99044 -19594038.15644  20233656.6494   20233656.2024
 96  3 14  2 26  0.0000000  0  7G24G 4G 9G 6G16G20G 5
 -16617361.43644 -12948576.32844  21147875.2234   21147875.5274
   8034982.03944   6261032.01644  23859010.9154   23859010.5904
   7338979.61144   5718684.60944  24178993.1234   24178993.6304
  -8437855.14944  -6574947.24144  23128987.8974   23128988.0164
 -12314914.96844  -9596030.67844  22010678.3644   22010679.2444
 -21122197.27344 -16458848.56944  21026850.4054   21026850.0764
 -25144286.10044 -19592939.54044  20233925.0414   20233924.4354
 96  3 14  2 26 30.0000000  0  7G24G 4G 9G 6G16G20G 5
 -16561337.03344 -12904920.94644  21158536.6884   21158536.5074
   8130979.71544   6335835.41844  23877278.1354   23877278.2384
   7430969.04244   5790364.65344  24196497.5624   24196497.8984
  -8504201.42844  -6626645.60644  23116361.1854   23116361.2164
 -12385333.22644  -9650902.01844  21997278.7064   21997279.0464
 -21178084.93144 -16502397.38744  21016215.4984   21016215.3384
 -25142341.52844 -19591424.30044  20234295.0534   20234294.3864
 96  3 14  2 27  0.0000000  0  7G24G 4G 9G 6G16G20G 5
 -16505034.97344 -12861049.20044  21169250.3974   21169250.3674
   8227034.48944   6410683.27244  23895556.4344   23895557.7504
   7522972.17844   5862055.36644  24214005.9754   24214007.7604
  -8570511.02144  -6678315.38944  23103743.6764   23103744.0704
 -12455349.89744  -9705460.43544  21983954.8054   21983955.2424
 -21233526.73244 -16545598.78144  21005665.1924   21005664.8674
 -25139875.79444 -19589502.95444  20234764.3164   20234763.8364
 96  3 14  2 27 30.0000000  0  7G24G 4G 9G 6G16G20G 5
 -16448463.74044 -12816967.72144  21180015.3394   21180015.6684
   8323129.86344   6485562.79244  23913842.6594   23913840.9604
   7614996.75844   5933762.79844  24231517.5274   24231516.7984
  -8636785.96644  -6729958.16444  23091132.2494   23091132.7284
 -12524959.00644  -9759701.27244  21970708.4804   21970708.9574
 -21288539.54144 -16588465.89744  20995196.6784   20995196.8244
 -25136889.66944 -19587176.11044  20235332.5904   20235331.9634
 96  3 14  2 28  0.0000000  0  7G24G 4G 9G 6G16G20G 5
 -16391636.74244 -12772686.94444  21190829.3404   21190828.9614
   8419224.88144   6560442.01544  23932129.6574   23932128.7414
   7706995.07644   6005449.79044  24249023.5944   24249022.6844
  -8703064.15644  -6781603.47844  23078519.7694   23078518.6694
 -12594195.88144  -9813652.05444  21957533.1634   21957533.5384
 -21343159.60744 -16631026.98344  20984802.9494   20984802.5854
 -25133412.99544 -19584467.01544  20235994.1034   20235993.6144
 96  3 14  2 28 30.0000000  0  7G24G 4G 9G 6G16G20G 5
 -16334534.94644 -12728192.02844  21201695.3444   21201695.0814
   8515328.77344   6635328.17944  23950417.4274   23950417.8214
   7798965.75944   6077115.20144  24266524.6234   24266524.6444
  -8769327.63844  -6833237.34144  23065909.9914   23065909.5804
 -12663061.67544  -9867313.69144  21944428.2114   21944428.9434
 -21397370.91144 -16673269.55244  20974486.4634   20974486.1904
 -25129430.57244 -19581363.83844  20236751.9344   20236751.3474
 96  3 14  2 29  0.0000000  0  7G24G 4G 9G 6G16G20G 5
 -16277153.50144 -12683479.21244  21212614.8294   21212614.6804
   8611445.27744   6710224.15544  23968708.6414   23968707.5314
   7890908.48344   6148758.84444  24284021.6404   24284022.2274
  -8835573.50944  -6884857.47744  23053303.7574   23053303.5524
 -12731548.76644  -9920680.23344  21931395.6634   21931396.2754
 -21451149.35544 -16715174.82544  20964252.8344   20964252.9234
 -25124923.64544 -19577851.94544  20237609.4634   20237608.6714
 96  3 14  2 29 30.0000000  0  7G24G 4G 9G 6G16G20G 5
 -16219499.09144 -12638553.69644  21223585.9184   21223585.9374
   8707569.02444   6785125.77544  23987000.3594   23986998.7454
   7982809.95844   6220370.34244  24301511.0854   24301513.1554
  -8901812.18944  -6936472.00244  23040698.7884   23040698.8784
 -12799664.06244  -9973757.06244  21918433.7504   21918434.2424
 -21504489.03044 -16756738.20244  20954102.9714   20954102.7904
 -25119885.73444 -19573926.30544  20238568.2864   20238567.6554
 96  3 14  2 30  0.0000000  0  7G24G 4G 9G 6G16G20G 5
 -16161575.89444 -12593418.73444  21234608.5674   21234608.7604
   8803709.75544   6860040.63644  24005295.3214   24005293.7384
   8074659.85744   6291941.68544  24318988.2074   24318988.8094
  -8968037.40944  -6988076.04644  23028096.9574   23028097.1664
 -12867410.83444 -10026546.72944  21905542.4494   21905542.7504
 -21557375.99244 -16797948.81344  20944038.6954   20944038.5184
 -25114316.02144 -19569586.26944  20239627.8824   20239627.2064
 96  3 14  2 30 30.0000000  0  7G24G 4G 9G 6G16G20G 5
 -16103398.41844 -12548085.63144  21245679.4844   21245679.1124
   8899879.61144   6934978.16944  24023595.4314   24023594.8924
   8166471.43744   6363483.13544  24336459.3914   24336459.0754
  -9034225.04244  -7039650.79344  23015502.0584   23015501.8434
 -12934767.41844 -10079032.35344  21892724.3074   21892724.3994
 -21609802.94344 -16838800.97744  20934062.3014   20934062.2844
 -25108193.51244 -19564815.48944  20240793.2874   20240792.7894
 96  3 14  2 31  0.0000000  0  7G24G 4G 9G 6G16G20G 5
 -16044962.25844 -12502550.95044  21256799.6804   21256799.3094
   8996091.21644   7009948.26544  24041904.0474   24041903.2534
   8258254.38444   6435002.27244  24353925.1724   24353925.1554
  -9100367.43244  -7091190.29944  23002915.4184   23002914.2674
 -13001703.51744 -10131190.33344  21879987.3704   21879987.7374
 -21661757.28444 -16879284.87444  20924175.7494   20924175.6074
 -25101493.64144 -19559594.81444  20242067.9974   20242067.2124
 96  3 14  2 31 30.0000000  0  7G24G 4G 9G 6G16G20G 5
 -15986277.58544 -12456822.63344  21267966.6804   21267966.5204
   9092335.33944   7084943.70044  24060218.2104   24060219.7674
   8349991.95644   6506486.08444  24371382.1014   24371381.4524
  -9166465.53844  -7142695.27244  22990337.4524   22990336.7714
 -13068224.63144 -10183024.94544  21867327.9704   21867328.6444
 -21713269.84344 -16919424.52644  20914373.0234   20914372.9274
 -25094240.95144 -19553943.37144  20243448.2724   20243447.8014
 96  3 14  2 32  0.0000000  0  7G24G 4G 9G 6G16G20G 5
 -15927362.84144 -12410915.03644  21279177.8864   21279177.5564
   9188603.90844   7159958.15044  24078538.1314   24078535.1544
   8441664.53444   6577919.23044  24388827.4774   24388829.0824
  -9232533.13744  -7194176.55844  22977764.2904   22977763.9934
 -13134339.50844 -10234543.00044  21854746.7094   21854746.8844
 -21764352.72944 -16959229.35944  20904652.4144   20904652.3654
 -25086448.76044 -19547871.53544  20244931.0654   20244930.1224
 96  3 14  2 32 30.0000000  0  7G24G 4G 9G 6G16G20G 5
 -15868213.78944 -12364824.85644  21290433.3254   21290433.5944
   9284892.09244   7234987.91244  24096860.9664   24096859.0374
   8533278.25944   6649306.50444  24406260.6884   24406261.0694
  -9298580.90844  -7245642.30644  22965196.3514   22965196.1554
 -13200029.97644 -10285730.36344  21842246.5954   21842247.2124
 -21814983.81244 -16998682.13944  20895017.3124   20895017.2344
 -25078113.93344 -19541376.86444  20246517.1314   20246516.6634
 96  3 14  2 33  0.0000000  0  7G24G 4G 9G 6G16G20G 5
 -15808809.61544 -12318535.88644  21301737.9304   21301738.1404
   9381202.34244   7310034.84644  24115188.3124   24115187.5754
   8624830.32944   6720645.74644  24423682.3454   24423681.2884
  -9364608.02344  -7297091.97144  22952632.2154   22952631.8674
 -13265299.66744 -10336589.83844  21829825.8734   21829826.5014
 -21865136.95344 -17037762.50544  20885473.8594   20885473.7224
 -25069258.72344 -19534476.70544  20248202.1624   20248201.5994
 96  3 14  2 33 30.0000000  0  7G24G 4G 9G 6G16G20G 5
 -15749132.08044 -12272033.90244  21313094.1094   21313093.8344
   9477523.65144   7385090.43444  24133518.6404   24133517.4944
   8716310.20044   6791928.72444  24441088.9184   24441089.3584
  -9430599.01844  -7348513.51644  22940074.8574   22940075.0734
 -13330160.62544 -10387130.82344  21817482.9744   21817483.4744
 -21914798.28244 -17076459.63444  20876023.2364   20876023.2334
 -25059904.32644 -19527187.57044  20249982.2444   20249981.7614
 96  3 14  2 34  0.0000000  0  7G24G 4G 9G 6G16G20G 5
 -15689175.26644 -12225314.30044  21324503.1464   21324503.1864
   9573840.44744   7460142.45044  24151846.4094   24151846.5864
   8807712.94644   6863151.60644  24458482.6354   24458482.5454
  -9496548.47944  -7399902.68844  22927524.5364   22927524.0664
 -13394617.08844 -10437356.62044  21805217.7484   21805218.3284
 -21963949.38244 -17114759.18544  20866670.5354   20866670.5294
 -25050029.24844 -19519492.70944  20251861.5954   20251860.5614
 96  3 14  2 34 30.0000000  0  7G24G 4G 9G 6G16G20G 5
 -15628928.67744 -12178368.90644  21335967.9134   21335967.5014
   9670140.81244   7535181.73844  24170171.4704   24170168.2454
   8899044.28344   6934318.86544  24475862.9914   24475864.6954
  -9562435.09144  -7451242.87144  22914986.8734   22914986.3814
 -13458668.15544 -10487266.51244  21793029.0294   21793029.8954
 -22012587.61144 -17152659.08944  20857414.6844   20857414.6974
 -25039613.13144 -19511376.25344  20253843.5724   20253842.9854
 96  3 14  2 35  0.0000000  0  7G24G 4G 9G 6G16G20G 5
 -15568382.57444 -12131190.11944  21347489.4774   21347489.2014
   9766424.00844   7610207.61044  24188494.3484   24188495.4944
   8990289.97144   7005419.36544  24493227.4614   24493226.8214
  -9628246.01544  -7502524.10044  22902463.7124   22902462.7764
 -13522320.46544 -10536865.69444  21780916.5364   21780917.2734
 -22060723.99444 -17190167.95044  20848254.6224   20848254.1924
 -25028645.57644 -19502830.11344  20255930.5954   20255930.1564
 96  3 14  2 35 30.0000000  0  7G24G 4G 9G 6G16G20G 5
 -15507557.74644 -12083794.14444  21359063.9014   21359063.9324
   9862676.61744   7685209.65444  24206810.4294   24206808.2544
   9081444.31944   7076448.70644  24510573.2014   24510574.9594
  -9694002.90244  -7553763.22544  22889950.0554   22889949.0534
 -13585567.23144 -10586148.86844  21768880.8764   21768881.4404
 -22108380.18044 -17227302.63244  20839185.8914   20839185.8844
 -25017100.22944 -19493833.74544  20258127.7904   20258127.3434
 96  3 14  2 36  0.0000000  0  7G24G 4G 9G 6G16G20G 5
 -15446467.49744 -12036191.35844  21370689.0034   21370689.2464
   9958917.01744   7760202.15044  24225124.7164   24225122.4284
   9172519.38844   7147416.23344  24527903.9404   24527905.6724
  -9759719.18944  -7604970.70144  22877444.8864   22877444.5404
 -13648375.13144 -10635090.06644  21756929.0024   21756929.5184
 -22155560.72544 -17264066.68144  20830207.9794   20830207.7784
 -25004962.21244 -19484375.55744  20260437.3764   20260436.8534
 96  3 14  2 36 30.0000000  0  7G24G 4G 9G 6G16G20G 5
 -15385111.94244 -11988381.83444  21382364.4494   21382364.6434
  10055175.22744   7835208.54244  24243442.0604   24243439.3284
   9263533.72844   7218336.46844  24545222.6334   24545224.1554
  -9825387.53544  -7656140.81344  22864948.5904   22864948.2324
 -13710721.12244 -10683671.33344  21745065.1344   21745065.7244
 -22202255.06344 -17300451.87644  20821321.9454   20821322.0734
 -24992241.16144 -19474463.05544  20262858.1824   20262857.5654
 96  3 14  2 37  0.0000000  0  7G24G 4G 9G 6G16G20G 5
 -15323501.17244 -11940373.43544  21394088.6024   21394088.4114
  10151472.07444   7910245.08644  24261765.2174   24261763.0614
   9354486.31544   7289208.61944  24562531.6324   24562533.1514
  -9891011.93444  -7707276.69144  22852460.1374   22852459.7684
 -13772583.64544 -10731875.87244  21733292.9494   21733293.5034
 -22248465.05844 -17336459.65544  20812528.9084   20812528.9494
 -24978953.00144 -19464108.65144  20265386.9714   20265386.5164
 96  3 14  2 37 30.0000000  0  7G24G 4G 9G 6G16G20G 5
 -15261642.68544 -11892172.01444  21405860.2504   21405860.1024
  10247817.09844   7985319.15744  24280099.8264   24280098.9874
   9445388.74344   7360041.61544  24579828.8764   24579830.2584
  -9956577.45944  -7758366.68544  22839983.0654   22839983.4954
 -13833947.29344 -10779691.67944  21721615.6944   21721616.0474
 -22294192.63944 -17372091.52744  20803827.0254   20803827.1704
 -24965108.97844 -19453321.10344  20268021.4464   20268020.9594
 96  3 14  2 38  0.0000000  0  7G24G 4G 9G 6G16G20G 5
 -15199555.86544 -11843792.67344  21417674.9014   21417674.7214
  10344216.77144   8060435.78044  24298444.1264   24298442.4604
   9536236.32844   7430831.91344  24597116.8644   24597117.8174
 -10022063.84544  -7809395.01444  22827521.5584   22827521.3784
 -13894824.24344 -10827128.24644  21710031.1834   21710031.7124
 -22339433.25344 -17407343.94344  20795218.2444   20795217.9144
 -24950741.42944 -19442125.62244  20270755.3444   20270754.9524
 96  3 14  2 38 30.0000000  0  7G24G 4G 9G 6G16G20G 5
 -15137256.47044 -11795247.69144  21429530.0074   21429529.9294
  10440662.16444   8135588.05344  24316795.8594   24316796.2814
   9627021.11544   7501573.27644  24614393.4104   24614392.5774
 -10087478.11844  -7860367.14444  22815073.7894   22815073.5954
 -13955245.29944 -10874209.56644  21698533.6894   21698534.0864
 -22384184.66244 -17442215.16344  20786702.1084   20786701.9554
 -24935855.44944 -19430526.16944  20273587.9244   20273587.4014
 96  3 14  2 39  0.0000000  0  7G24G 4G 9G 6G16G20G 5
 -15074759.45144 -11746548.71244  21441422.8284   21441422.5364
  10537124.59544   8210753.51644  24335152.2524   24335150.5454
   9717720.88444   7572248.43544  24631652.9974   24631654.1724
 -10152840.12444  -7911298.54944  22802636.1544   22802635.6994
 -14015225.01444 -10920946.98544  21687119.8024   21687119.8474
 -22428451.48544 -17476708.78344  20778278.3954   20778278.1174
 -24920457.75844 -19418527.97544  20276518.3194   20276517.6254
 96  3 14  2 39 30.0000000  0  7G24G 4G 9G 6G16G20G 5
 -15012078.04944 -11697706.06044  21453350.6514   21453350.3864
  10633584.51244   8285917.15644  24353507.7344   24353508.1874
   9808340.03644   7642860.70044  24648896.1584   24648898.7894
 -10218160.87944  -7962197.81844  22790205.7364   22790205.5054
 -14074783.73444 -10967356.35544  21675786.2224   21675786.8224
 -22472222.24844 -17510815.86944  20769949.3904   20769949.0624
 -24904544.26444 -19406127.85144  20279546.3664   20279545.7294
 96  3 14  2 40  0.0000000  0  7G24G 4G 9G 6G16G20G 5
 -14949233.74344 -11648736.47044  21465309.7134   21465309.9294
  10730001.29844   8361047.09844  24371857.0134   24371854.9894
   9898850.94544   7713388.64044  24666121.2004   24666123.1894
 -10283491.12944  -8013104.48044  22777773.7664   22777774.1544
 -14133953.41644 -11013462.58144  21664526.4114   21664526.3874
 -22515508.04744 -17544545.05344  20761712.1754   20761712.1434
 -24888123.32144 -19393332.31244  20282671.2344   20282670.6444
 96  3 14  2 40 30.0000000  0  7G24G 4G 9G 6G16G20G 5
 -14886160.43044 -11599588.43244  21477311.9414   21477312.0094
  10826393.83644   8436158.17344  24390199.4354   24390199.2024
   9989284.56444   7783856.37444  24683329.5164   24683329.7674
 -10348805.96944  -8063999.14044  22765345.4744   22765345.1344
 -14192687.09144 -11059229.06144  21653349.7034   21653350.1094
 -22558271.80644 -17577867.45744  20753574.3734   20753574.4634
 -24871138.03744 -19380097.03044  20285903.4464   20285902.9774
 96  3 14  2 41  0.0000000  0  8G24G 4G 9G17G 6G16G20G 5
 -14822878.54944 -11550277.87544  21489353.6734   21489353.7514
  10922705.32044   8511206.05244  24408527.0704   24408524.1774
  10079597.72344   7854230.19544  24700515.9544   24700518.0354
        -0.06154                  25536649.9194
 -10414129.16444  -8114900.30644  22752914.6984   22752914.3004
 -14251002.66244 -11104669.74444  21642252.6854   21642252.8484
 -22600557.05444 -17610816.99644  20745527.9384   20745527.6664
 -24853621.72044 -19366447.95844  20289236.5684   20289236.1114
 96  3 14  2 41 30.0000000  0  8G24G 4G 9G17G 6G16G20G 5
 -14759355.96644 -11500779.76344  21501441.8354   21501442.0984
  11018952.67144   8586204.04144  24426841.2974   24426838.1014
  10169802.56044   7924519.65644  24717680.1294   24717676.8614
    -98457.06444                  25517916.0414
 -10479448.13744  -8165798.18844  22740484.3384   22740484.3104
 -14308883.50144 -11149771.67944  21631238.3234   21631238.6294
 -22642357.79944 -17643389.00044  20737573.5804   20737573.5564
 -24835555.37944 -19352370.29644  20292674.5464   20292673.9094
 96  3 14  2 42  0.0000000  0  8G24G 4G 9G17G 6G16G20G 5
 -14695573.11744 -11451078.84444  21513579.5374   21513579.5894
  11115138.12244   8661153.72244  24445144.7374   24445142.2404
  10259883.05244   7994712.21844  24734823.4844   24734822.3134
   -196820.67544                  25499199.3264
 -10544753.59444  -8216685.53544  22728057.3504   22728057.4274
 -14366316.51644 -11194524.65844  21620309.0764   21620309.6614
 -22683672.52844 -17675582.29244  20729711.8814   20729711.4834
 -24816940.17344 -19337864.94644  20296217.0704   20296216.4274
 96  3 14  2 42 30.0000000  0  8G24G 4G 9G17G 6G16G20G 5
 -14631513.04244 -11401161.90044  21525769.4344   21525769.4174
  11211295.99944   8736081.91844  24463443.3864   24463441.3144
  10349865.93644   8064828.77044  24751946.0664   24751945.9374
   -295062.66144                  25480504.3364
 -10609999.76444  -8267526.68444  22715641.5594   22715641.1564
 -14423268.64344 -11238902.91544  21609471.7364   21609472.2804
 -22724476.43344 -17707377.53744  20721947.0624   20721946.8894
 -24797757.63444 -19322917.51844  20299867.2134   20299866.5724
 96  3 14  2 43  0.0000000  0  7G24G 4G 9G 6G16G20G 5
 -14567192.62744 -11351042.09244  21538009.5004   21538009.6394
  11307437.43044   8810997.34544  24481738.9254   24481737.2674
  10439758.97444   8134875.23944  24769052.7374   24769055.7494
 -10675172.68844  -8318310.76644  22703239.3694   22703238.8754
 -14479738.15344 -11282905.11544  21598725.8324   21598726.2114
 -22764756.83644 -17738764.86144  20714281.6254   20714281.4864
 -24778006.17644 -19307526.77844  20303625.7734   20303625.2254
 96  3 14  2 43 30.0000000  0  7G24G 4G 9G 6G16G20G 5
 -14502624.20844 -11300729.04044  21550296.2954   21550296.2944
  11403587.51044   8885919.46944  24500035.8184   24500035.3344
  10529560.20344   8204850.21344  24786139.5404   24786141.3324
 -10740265.98344  -8369032.79444  22690852.6744   22690852.3354
 -14535728.61344 -11326534.02444  21588070.8924   21588071.1334
 -22804496.28744 -17769730.66544  20706719.3594   20706719.5174
 -24757686.92744 -19291693.60444  20307492.2894   20307491.8624
 96  3 14  2 44  0.0000000  0  7G24G 4G 9G 6G16G20G 5
 -14437821.63744 -11250233.52744  21562628.0074   21562628.2204
  11499761.38844   8960860.16744  24518336.6384   24518336.0744
  10619286.79344   8274766.96344  24803214.9844   24803216.9254
 -10805254.64044  -8419673.27744  22678485.7784   22678484.8934
 -14591220.18144 -11369774.18644  21577511.4794   21577511.8584
 -22843674.42044 -17800259.07744  20699263.8394   20699263.6564
 -24736786.45044 -19275407.52644  20311469.5334   20311469.0774
 96  3 14  2 44 30.0000000  0  7G24G 4G 9G 6G16G20G 5
 -14372825.82244 -11199587.43644  21574996.0894   21574996.3554
  11595924.65544   9035792.63544  24536636.5814   24536635.9174
  10708913.09944   8344605.62044  24820270.0344   24820270.8494
 -10870165.73444  -8470253.33944  22666133.5724   22666133.2814
 -14646234.26644 -11412642.28744  21567042.5924   21567043.1294
 -22882325.55244 -17830376.83944  20691909.1214   20691908.8094
 -24715338.67344 -19258694.97444  20315551.0824   20315550.7064
 96  3 14  2 45  0.0000000  0  8G24G 4G 9G17G 6G16G20G 5
 -14307645.51444 -11148797.58744  21587399.4754   21587399.7534
  11692078.99844   9110718.10944  24554933.9484   24554933.5784
  10798421.01144   8414352.03844  24837302.4404   24837302.9104
        -0.00754         1.10454  25387375.2714
 -10935011.85144  -8520782.76444  22653793.8354   22653794.0264
 -14700771.25044 -11455138.62644  21556664.5854   21556664.6604
 -22920456.59444 -17860089.33544  20684653.0594   20684652.8714
 -24693358.23444 -19241567.36244  20319733.7404   20319733.2374
 96  3 14  2 45 30.0000000  0  8G24G 4G 9G17G 6G16G20G 5
 -14242282.55244 -11097865.41044  21599837.8194   21599837.9124
  11788222.97344   9185635.52744  24573229.1794   24573227.4284
  10887796.01144   8483994.82944  24854311.0744   24854309.6834
    -97409.11344                  25368816.4304
 -10999811.46244  -8571275.95544  22641462.5504   22641463.0064
 -14754828.23344 -11497260.93344  21546377.6484   21546377.9574
 -22958075.13844 -17889402.48244  20677494.4894   20677494.1864
 -24670858.41044 -19224035.03844  20324015.5494   20324014.9214
 96  3 14  2 46  0.0000000  0  8G24G 6G 4G 9G17G16G20G 5
 -14176725.97144 -11046782.36344  21612312.6384   21612312.7274
 -11064566.80544  -8621734.64844  22629140.4504   22629140.8084
  11884348.67044   9260538.61544  24591520.0674   24591520.6634
  10977053.93044   8553546.42144  24871295.8244   24871296.6614
   -194875.35844   -151849.45244  25350261.3044
 -14808391.89544 -11538998.82944  21536184.8344   21536185.2924
 -22995181.86544 -17918316.80944  20670433.0904   20670433.0114
 -24647832.84444 -19206093.04544  20328397.3454   20328396.6214
 96  3 14  2 46 30.0000000  0  8G24G 6G 4G 9G17G16G20G 5
 -14110987.49344 -10995557.57244  21624822.4724   21624822.2604
 -11129293.80744  -8672171.26744  22616822.9944   22616823.1394
  11980451.16544   9335423.67644  24609808.7534   24609812.0224
  11066168.89744   8622986.65344  24888254.4554   24888254.7764
   -292237.75144   -227716.17644  25331734.1794
 -14861484.56444 -11580369.71644  21526081.9224   21526082.3354
 -23031796.87644 -17946847.97744  20663465.6034   20663465.2324
 -24624299.56444 -19187755.43044  20332875.2834   20332874.5864
 96  3 14  2 47  0.0000000  0  8G24G 6G 4G 9G17G16G20G 5
 -14045054.41544 -10944181.14644  21637369.1334   21637369.3264
 -11193994.88544  -8722587.67744  22604510.8484   22604510.7784
  12076555.87944   9410310.48744  24628095.7494   24628093.7344
  11155151.09644   8692323.39944  24905187.1554   24905186.4174
   -389470.05344   -303481.57244  25313230.3184   25313227.7664
 -14914112.07144 -11621378.14444  21516067.3304   21516067.6904
 -23067904.59744 -17974983.86444  20656594.5734   20656594.5124
 -24600232.65744 -19169002.00444  20337454.8464   20337454.2954
 96  3 14  2 47 30.0000000  0  8G24G 4G 9G17G 6G16G20G 5
 -13978923.15544 -10892650.29444  21649953.5574   21649953.3724
  12172634.91944   9485177.29144  24646379.9554   24646379.6924
  11244005.53944   8761560.57444  24922095.6064   24922094.4394
   -486566.55444   -379141.16144  25294751.9574
 -11258669.78844  -8772983.67444  22592203.6084   22592203.1614
 -14966282.00644 -11662030.01844  21506139.8894   21506139.9524
 -23103502.57244 -18002722.53844  20649820.4954   20649820.4034
 -24575618.45644 -19149822.11344  20342138.7714   20342138.3104
 96  3 14  2 48  0.0000000  0  8G24G 4G 9G17G 6G16G20G 5
 -13912602.98044 -10840972.23244  21662573.8714   21662573.7584
  12268671.68244   9560011.14644  24664655.9394   24664655.5924
  11332732.18544   8830698.22344  24938979.3424   24938979.9134
   -583539.85044                  25276293.8704
 -11323317.89844  -8823358.80344  22579901.7614   22579901.2274
 -15017992.50544 -11702323.89644  21496299.2544   21496299.5894
 -23138595.92944 -18030068.01244  20643142.3984   20643142.1534
 -24550455.84844 -19130214.89144  20346927.2314   20346926.7434
 96  3 14  2 48 30.0000000  0  8G24G 6G 4G 9G17G16G20G 5
 -13846101.74944 -10789153.09144  21675228.8624   21675228.4704
 -11387943.63044  -8873716.49944  22567604.1514   22567603.0634
  12364661.21044   9634808.14544  24682921.4864   24682918.4284
  11421315.40144   8899724.05144  24955836.7464   24955839.5704
   -680399.78444                  25257858.7184
 -15069236.36744 -11742254.16344  21486548.0684   21486548.4714
 -23173177.53244 -18057014.71444  20636561.8984   20636561.5164
 -24524738.62444 -19110175.50144  20351821.0304   20351820.6264
 96  3 14  2 49  0.0000000  0  7G24G 6G 4G 9G16G20G 5
 -13779404.71144 -10737181.36744  21687920.4644   21687920.3654
 -11452531.70644  -8924044.85544  22555313.3354   22555312.2404
  12460585.89044   9709554.75744  24701174.5844
  11509774.47244   8968653.17144  24972669.2734
 -15119980.74044 -11781795.21244  21476891.5244   21476891.9944
 -23207220.71344 -18083541.86544  20630083.4794   20630083.1444
 -24498456.46644 -19089695.90644  20356822.4114   20356821.9964
 96  3 14  2 49 30.0000000  0  7G24G 6G 4G 9G16G20G 5
 -13712507.00044 -10685053.27844  21700650.6214   21700650.3274
 -11517063.40144  -8974329.27144  22543032.5934   22543032.0824
  12556441.46344   9784247.38744  24719414.8774   24719414.0444
  11598104.61144   9037481.82344  24989478.4824   24989478.0524
 -15170194.35444 -11820922.68244  21467335.8644   21467336.3604
 -23240718.58344 -18109644.10244  20623709.2144   20623708.8014
 -24471615.93544 -19068781.21244  20361930.0004   20361929.5494
 96  3 14  2 50  0.0000000  0  8G24G 4G 9G17G 6G16G20G 5
 -13645378.59844 -10632745.42044  21713424.8934   21713424.6254
  12652292.29244   9858936.30344  24737655.1594   24737654.5564
  11686343.43144   9106239.33544  25006269.6924   25006273.2784
        -0.31354         0.56054  25202720.1104   25202718.4464
 -11581499.22344  -9024538.97644  22530770.3064   22530770.5984
 -15219830.60244 -11859600.26244  21457890.6624   21457890.9594
 -23273629.72344 -18135289.14344  20617446.3264   20617446.0334
 -24444186.68044 -19047407.77444  20367149.5944   20367149.1054
 96  3 14  2 50 30.0000000  0  8G24G 6G16G 4G 9G17G20G 5
 -13578106.05944 -10580325.26144  21726225.9664   21726225.6954
 -11645924.96444  -9074740.82644  22518511.0174   22518511.1464
 -15268996.34744 -11897911.21144  21448534.7454   21448535.0634
  12748054.74744   9933556.34344  24755878.2524   24755875.7514
  11774387.62744   9174845.16244  25023024.4344   25023023.5294
    -96387.51344    -75106.31844  25184379.6054   25184376.5044
 -23306040.41144 -18160544.22544  20611278.8034   20611278.6064
 -24416271.57744 -19025655.75444  20372461.7434   20372461.2444
 96  3 14  2 51  0.0000000  0  8G24G 6G16G 4G 9G17G20G 5
 -13510663.16744 -10527772.35744  21739060.4584   21739060.3164
 -11710322.16944  -9124920.44344  22506256.7004   22506256.3664
 -15317685.04544 -11935850.44244  21439269.4594   21439269.8744
  12843755.36844  10008128.29744  24774088.8404
  11862252.31444   9243311.09744  25039743.8074   25039744.4174
   -192691.93644   -150148.67044  25166053.3944   25166049.0104
 -23337939.48344 -18185400.64244  20605208.5784   20605208.4924
 -24387860.75544 -19003517.45844  20377868.1084   20377867.6564
 96  3 14  2 51 30.0000000  0  8G24G 6G16G 4G 9G17G20G 5
 -13443006.94844 -10475053.22144  21751934.5854   21751934.6124
 -11774654.19844  -9175049.27644  22494014.6674   22494014.1954
 -15365866.52744 -11973394.43944  21430101.1744   21430101.4524
  12939456.23444  10082700.47844  24792301.1874   24792298.0834
  11949972.56044   9311664.52244  25056437.6294   25056438.4044
   -288869.52644   -225092.23344  25147750.7854   25147746.2384
 -23369285.66144 -18209826.23244  20599243.5464   20599243.4564
 -24358905.09344 -18980954.60844  20383378.1664   20383377.6784
 96  3 14  2 52  0.0000000  0  8G24G 6G16G 4G 9G17G20G 5
 -13375146.63744 -10422175.05744  21764848.4684   21764848.0994
 -11838917.50144  -9225124.56344  22481785.7334   22481785.2524
 -15413550.63044 -12010550.86044  21421026.8584   21421027.2744
  13035146.95244  10157264.72044  24810510.7234   24810507.7044
  12037559.38144   9379914.00644  25073104.4134   25073101.2564
   -384929.53644   -299944.17444  25129470.8154   25129469.0944
 -23400069.08844 -18233813.32044  20593385.6864   20593385.3314
 -24329401.71144 -18957964.97044  20388992.4924   20388992.0794
 96  3 14  2 52 30.0000000  0  8G24G 6G16G 4G 9G17G20G 5
 -13307088.64944 -10369142.85344  21777799.3794   21777799.0344
 -11903121.23144  -9275153.42544  22469568.6564   22469567.9414
 -15460740.26844 -12047321.98444  21412046.8514   21412047.2554
  13130785.75944  10231788.46744  24828709.9594   24828706.7334
  12124986.27944   9448038.78444  25089740.9234   25089741.2194
   -480890.76144   -374719.15944  25111209.2424
 -23430305.58844 -18257374.22744  20587631.9904   20587631.6154
 -24299359.67244 -18934555.59744  20394709.2264   20394708.7464
 96  3 14  2 53  0.0000000  0  7G24G 4G 9G 6G16G20G 5
 -13238836.34544 -10315959.24344  21790787.1524   21790787.1834
  13226371.04844  10306270.54744  24846899.4674   24846896.0724
  12212271.05644   9516052.87144  25106350.5024   25106349.8974
 -11967243.06944  -9325118.46344  22457367.0804   22457366.1204
 -15507401.71644 -12083681.53544  21403167.6944   21403168.1374
 -23459987.76344 -18280503.19344  20581983.5434   20581983.4754
 -24268759.08144 -18910710.98844  20400532.3874   20400531.8834
 96  3 14  2 53 30.0000000  0  7G24G 6G16G 4G 9G20G 5
 -13170417.20144 -10262645.63444  21803806.6334   21803806.9654
 -12031274.33244  -9375012.94044  22445182.3094   22445181.6714
 -15553528.48144 -12119624.45044  21394390.1284   21394390.4314
  13321887.76744  10380699.19344  24865077.0024   24865074.1804
  12299412.58244   9583955.27644  25122934.2094
 -23489117.47744 -18303201.67244  20576440.2944   20576440.2914
 -24237601.64944 -18886432.47644  20406461.5124   20406460.9054
 96  3 14  2 54  0.0000000  0  8G24G 6G16G 4G 9G17G20G 5
 -13101814.14444 -10209188.70944  21816861.4434   21816861.5904
 -12095189.51444  -9424816.95744  22433019.0244   22433018.1884
 -15599088.06344 -12155125.40444  21385720.1574   21385720.5234
  13417356.84044  10455090.65844  24883243.1014   24883242.6884
  12386436.53944                  25139491.6034
        -0.68854                  25056564.0704
 -23517682.93144 -18325460.46444  20571004.5624   20571004.5274
 -24205867.59144 -18861704.64344  20412500.1744   20412499.7514
 96  3 14  2 54 30.0000000  0  8G24G 6G16G 4G 9G17G20G 5
 -13032979.25244 -10155551.12844  21829960.6954   21829960.3584
 -12158949.56344  -9474500.09544  22420885.9414   22420885.0884
 -15644035.27944 -12190149.19344  21377167.1804   21377167.5304
  13512842.97544  10529495.47744  24901413.7224
  12473387.93644                  25156038.6664
    -95330.24844                  25038427.2934
 -23545655.88644 -18347257.57444  20565681.1254   20565681.3234
 -24173517.66544 -18836496.91744  20418656.3574   20418655.8824
 96  3 14  2 55  0.0000000  0  8G24G 6G16G 4G 9G17G20G 5
 -12964002.99844 -10101803.38744  21843086.2584   21843085.6904
 -12222643.26044  -9524131.52944  22408765.0834   22408764.5054
 -15688473.00344 -12224775.97044  21368710.6714   21368711.1054
  13608298.41444                  24919577.6304
  12560196.53844                  25172557.5694
   -190500.92944                  25020319.1914
 -23573111.14944 -18368651.28344  20560456.9044   20560456.7044
 -24140637.88744 -18810876.31844  20424912.9594   20424912.5304
 96  3 14  2 55 30.0000000  0  8G24G 6G16G 4G 9G17G20G 5
 -12894898.19844 -10047955.49544  21856236.2754   21856236.2124
 -12286320.69144  -9573750.28544  22396647.7224   22396647.2224
 -15732441.14944 -12259036.84444  21360343.6874   21360344.0454
  13703712.38444                  24937735.1764
  12646828.04244                  25189043.4364
   -285534.08944   -222493.79044  25002237.0304
 -23600059.96044 -18389650.35744  20555328.8444   20555328.6444
 -24107251.98444 -18784861.33644  20431266.2754   20431265.6494
 96  3 14  2 56  0.0000000  0  8G24G 6G16G 4G 9G17G20G 5
 -12825663.29244  -9994006.21944  21869411.8664   21869411.1494
 -12350017.51044  -9623384.16344  22384526.7844   22384525.9724
 -15775956.02844 -12292944.52844  21352063.0414   21352063.4234
  13799069.62544                  24955880.9424
  12733264.24244   9922021.46644  25205493.5124
   -380443.60944   -296449.21744  24984177.2894   24984175.2234
 -23626514.26444 -18410264.10044  20550294.2684   20550294.0174
 -24073381.18744 -18758468.51344  20437711.7434   20437710.9204
 96  3 14  2 56 30.0000000  0  8G24G 6G16G 4G 9G17G20G 5
 -12756294.91144  -9939952.93144  21882611.8364   21882611.2784
 -12413722.63344  -9673024.49344  22372404.0054   22372403.5274
 -15819003.48644 -12326487.98344  21343871.7734   21343871.8774
  13894362.28644                  24974013.3304
  12819498.21444   9989216.72844  25221902.0424   25221905.1334
   -475231.34044   -370309.72844  24966139.5864   24966139.7574
 -23652441.15944 -18430466.87644  20545360.8444   20545360.4714
 -24039008.14444 -18731684.33344  20444252.6114   20444251.9834
 96  3 14  2 57  0.0000000  0  8G24G 6G16G 4G 9G17G20G 5
 -12686905.80244  -9885883.49944  21895815.8764   21895815.5044
 -12477546.97044  -9722757.72744  22360258.6414   22360258.1794
 -15861669.97544 -12359734.57544  21335752.3404   21335752.6614
  13989475.46244                  24992096.1804
  12905400.01544  10056153.15344  25238249.4514   25238249.7364
   -570023.34444   -444173.57344  24948100.1774   24948104.4554
 -23677933.61044 -18450331.12244  20540509.7374   20540509.4354
 -24004217.52144 -18704574.76544  20450873.3094   20450872.6754
 96  3 14  2 57 30.0000000  0  7G24G 6G 9G17G16G20G 5
 -12617340.43844  -9831676.70644  21909053.7064   21909053.6624
 -12541320.15144  -9772451.09744  22348122.7324   22348122.6324
  12991135.20944  10122959.77944  25254564.1524   25254564.0764
   -664660.16044   -517916.46844  24930089.7874   24930096.1504
 -15903764.12444 -12392535.19844  21327742.0544   21327742.4884
 -23702838.37944 -18469737.44144  20535770.7034   20535770.0824
 -23968844.53644 -18677011.40544  20457604.2644   20457603.6754
 96  3 14  2 58  0.0000000  0  7G24G 6G16G 9G17G20G 5
 -12547567.03544  -9777307.81944  21922331.2004   21922330.8404
 -12604992.03544  -9822065.53844  22336007.1294   22336006.0144
 -15945246.79444 -12424859.34044  21319848.2254   21319848.1864
  13076744.90844  10189668.59644  25270855.5554   25270860.0384
   -759122.78644                  24912109.7044
 -23727124.81544 -18488661.93844  20531149.0104   20531148.7994
 -23932862.41644 -18648973.39844  20464451.5054   20464450.6504
 96  3 14  2 58 30.0000000  0  8G24G 6G16G25G 9G17G20G 5
 -12477593.04044  -9722782.62744  21935647.0524   21935646.8464
 -12668540.51944  -9871583.82044  22323913.8434   22323913.5334
 -15986122.92944 -12456710.85444  21312069.5154   21312069.7784
        -0.34154                  25113470.5324
  13162216.57344  10256269.86544  25287119.3274   25287120.2194
   -853421.87944                  24894163.1124
 -23750788.58844 -18507101.24044  20526645.9334   20526645.5464
 -23896272.54644 -18620461.81744  20471414.3784   20471413.5534
 96  3 14  2 59  0.0000000  0  8G24G 6G16G25G 9G17G20G 5
 -12407446.20344  -9668122.75144  21948996.0034   21948995.6724
 -12731997.91444  -9921031.13344  22311838.3724   22311837.6014
 -16026442.17244 -12488128.42944  21304397.2294   21304397.0974
    -27941.15944                  25108150.6754
  13247520.75144  10322740.63544  25303352.5474
   -947598.55744                  24876243.9804
 -23773881.37544 -18525095.62044  20522251.6544   20522251.2774
 -23859126.71244 -18591517.01744  20478482.8104   20478482.1454
 96  3 14  2 59 30.0000000  0  8G24G 6G16G25G 9G17G20G 5
 -12337138.48044  -9613337.50944  21962374.7494   21962374.2484
 -12795379.78944  -9970419.58144  22299776.6914   22299776.3854
 -16066247.90444 -12519145.86944  21296822.5674   21296822.1784
    -55417.41544                  25102923.1034
  13332640.77044                  25319550.6114
  -1041678.49344                  24858343.4244
 -23796414.20744 -18542653.66944  20517963.7844   20517963.4434
 -23821476.17844 -18562178.94444  20485647.6784   20485646.9234
 96  3 14  3  0  0.0000000  0  7G24G 6G16G 9G17G20G 5
 -12266679.89344  -9558434.71444  21975782.5944   21975782.1504
 -12858708.62144 -10019766.70544  22287726.2654   22287725.3634
 -16105566.09744 -12549783.40444  21289340.4844   21289340.6294
  13417528.17044                  25335703.0674
  -1135672.76744   -884939.06444  24840458.9644   24840458.7754
 -23818397.06544 -18559783.17044  20513780.5564   20513780.2194
 -23783349.43244 -18532469.80044  20492902.9204   20492902.2274
 96  3 14  3  0 30.0000000  0  7G24G 6G16G 9G17G20G 5
 -12196057.24244  -9503404.07544  21989221.4634   21989221.3844
 -12921959.32544 -10069052.95344  22275689.4514   22275688.9724
 -16144368.95944 -12580019.38044  21281956.6984   21281956.8334
  13502196.40444                  25351816.8234
  -1229541.47544   -958083.45444  24822597.5504   24822595.2634
 -23839818.68744 -18576475.33944  20509703.9334   20509703.6574
 -23744718.81544 -18502368.02944  20500254.1714   20500253.5504
 96  3 14  3  1  0.0000000  0  7G24G 6G 9G17G16G20G 5
 -12125195.82444  -9448187.38544  22002705.9054   22002705.8684
 -12985076.43744 -10118235.10344  22263678.7684   22263678.3094
  13586723.63344  10587054.42644  25367899.9904
  -1323197.13244  -1031061.84344  24804775.3974   24804774.9594
 -16182577.92144 -12609792.57644  21274685.8814   21274685.9854
 -23860611.60344 -18592677.61444  20505747.2734   20505747.0684
 -23705524.02744 -18471826.64144  20507712.6854   20507712.1214
 96  3 14  3  1 30.0000000  0  7G24G 6G16G 9G17G20G 5
 -12054157.42244  -9392832.78844  22016223.9594   22016224.4244
 -13048115.36344 -10167356.33644  22251682.8824   22251682.0944
 -16220233.37244 -12639134.47144  21267519.8584   21267520.3674
  13671056.31344  10652768.15544  25383949.0744
  -1416673.14844  -1103900.28244  24786987.2824   24786987.9824
 -23880831.85144 -18608433.64744  20501899.6784   20501899.3144
 -23665821.85044 -18440889.88844  20515267.5284   20515267.1454
 96  3 14  3  2  0.0000000  0  7G24G 6G16G 9G17G20G 5
 -11982962.60044  -9337356.30544  22029772.3504   22029772.0124
 -13111072.59744 -10216413.90444  22239702.8944   22239702.3964
 -16257342.83444 -12668050.92144  21260458.3284   21260458.6894
  13755194.60244  10718330.45444  25399960.9434
  -1509959.68244  -1176591.03344  24769234.1824   24769235.7204
 -23900504.33744 -18623762.86044  20498156.1004   20498155.8794
 -23625606.01444 -18409552.88244  20522920.5394   20522920.0244
 96  3 14  3  2 30.0000000  0  7G24G 6G16G 9G17G20G 5
 -11911627.37144  -9281770.40244  22043346.9044   22043346.2394
 -13173951.69444 -10265410.58644  22227737.1334   22227736.4134
 -16293911.35144 -12696545.85344  21253499.4694   21253499.8384
  13839152.08344                  25415935.0084
  -1603068.30244  -1249143.14944  24751515.7904   24751519.5394
 -23919631.07444 -18638666.80644  20494516.5884   20494516.3074
 -23584874.74244 -18377814.23644  20530671.4194   20530670.8894
 96  3 14  3  3  0.0000000  0  7G24G 6G 9G17G16G20G 5
 -11840200.07044  -9226112.76344  22056938.9114   22056938.8804
 -13236806.51444 -10314388.35844  22215776.2834   22215775.7684
  13922889.52144  10849001.68844  25431870.7324
  -1696044.15544  -1321591.86144  24733822.3504   24733825.7294
 -16329974.70144 -12724647.14944  21246636.8474   21246636.7044
 -23938237.01344 -18653164.94444  20490975.5924   20490975.3814
 -23543671.94944 -18345708.17444  20538512.1444   20538511.5824
 96  3 14  3  3 30.0000000  0  7G24G 6G 9G17G16G20G 5
 -11768692.25544  -9170392.38744  22070546.1184   22070546.4724
 -13299636.61444 -10363346.86144  22203819.7764   22203819.1654
  14006408.68244                  25447764.1944
  -1788894.61844  -1393942.79444  24716153.3674   24716155.6064
 -16365533.80344 -12752355.52944  21239870.1344   21239870.2984
 -23956316.97444 -18667253.22344  20487535.4474   20487535.3464
 -23501978.59344 -18313219.85144  20546445.9844   20546445.2594
 96  3 14  3  4  0.0000000  0  7G24G 6G16G 9G17G20G 5
 -11697066.15644  -9114579.84744  22084176.2714   22084175.7384
 -13362409.60644 -10412260.86744  22191874.6584   22191874.3014
 -16400551.31644 -12779641.88744  21233206.6844   21233206.7894
  14089740.46944                  25463620.7064
  -1881598.56144  -1466179.56544  24698510.7734   24698514.3414
 -23973825.38044 -18680896.13744  20484203.3784   20484203.4684
 -23459739.24044 -18280306.07644  20554483.9384   20554483.4914
 96  3 14  3  4 30.0000000  0  8G24G 6G16G25G 9G17G20G 5
 -11625328.32944  -9058680.24544  22097827.5214   22097827.2914
 -13425162.67144 -10461159.34544  22179933.0694   22179932.5724
 -16435022.53944 -12806502.56444  21226647.0584   21226647.4734
         0.56954                  25055759.0664
  14172865.49444                  25479441.0764
  -1974179.44344  -1538320.50544  24680893.3254   24680898.1214
 -23990761.54344 -18694093.15044  20480980.5154   20480980.4184
 -23416955.82744 -18246968.35744  20562625.2474   20562624.8724
 96  3 14  3  5  0.0000000  0  8G24G 6G16G25G 9G17G20G 5
 -11553480.52444  -9002694.94244  22111499.8694   22111500.0214
 -13487903.37644 -10510048.19044  22167994.2214   22167993.7344
 -16468956.25144 -12832944.39644  21220189.6144   21220190.0314
    -22182.65944    -17284.54744  25051536.8304   25051530.1494
  14255765.23244                  25495216.2724
  -2066651.27044  -1610376.45344  24663295.2214
 -24007139.19044 -18706854.95144  20477864.0944   20477864.0964
 -23373628.84344 -18213207.07844  20570870.0054   20570869.4894
 96  3 14  3  5 30.0000000  0  8G24G 6G16G25G 9G17G20G 5
 -11481453.01944  -8946569.60844  22125206.1104   22125205.7064
 -13550551.83644 -10558865.15344  22156072.5964   22156072.2494
 -16502287.42144 -12858916.72744  21213846.8294   21213847.0674
    -43840.41244                  25047414.4094
  14338503.88244                  25510962.9534
  -2158953.78944  -1682300.39344  24645730.7524   24645734.9134
 -24022895.07344 -18719132.26144  20474866.0774   20474865.8194
 -23329682.79744 -18178963.41944  20579232.9994   20579232.5384
 96  3 14  3  6  0.0000000  0  7G24G 6G25G17G16G20G 5
 -11409245.88944  -8890304.31144  22138946.4744   22138946.0154
 -13613099.91644 -10607603.89944  22144170.3024   22144169.5294
    -64975.86744                  25043390.5524
  -2251081.44744  -1754088.18844  24628200.5304   24628201.6724
 -16535017.07244 -12884420.32944  21207618.6794   21207618.9584
 -24038019.78144 -18730917.74244  20471987.6604   20471987.7554
 -23285139.58644 -18144254.43344  20587709.1244   20587708.6504
 96  3 14  3  6 30.0000000  0  7G24G25G17G 6G16G20G 5
 -11336953.62944  -8833972.67944  22152703.3834   22152703.1014
    -85678.18544    -66761.45444  25039447.9754
  -2343113.91644  -1825801.73144  24610689.1254   24610687.8974
 -13675630.32144 -10656328.86944  22132270.8774   22132270.4744
 -16567242.85744 -12909531.31544  21201486.0794   21201486.2984
 -24052592.59344 -18742273.18444  20469214.8504   20469214.7884
 -23240118.50844 -18109173.08044  20596276.3424   20596275.8974
 96  3 14  3  7  0.0000000  0  7G24G 6G16G25G17G20G 5
 -11264538.95644  -8777545.66144  22166482.9694   22166483.2934
 -13738067.38244 -10704981.10644  22120389.2054   22120389.2684
 -16598922.68144 -12934216.87844  21195457.8214   21195458.1254
   -105896.02144    -82515.61344  25035598.2224   25035596.0734
  -2434993.69044  -1897396.36044  24593205.0894   24593207.8984
 -24066572.15044 -18753166.34944  20466554.3614   20466554.2894
 -23194599.39344 -18073703.64944  20604938.1384   20604937.5674
 96  3 14  3  7 30.0000000  0  7G24G 6G16G25G17G20G 5
 -11191976.66844  -8721003.62144  22180291.4604   22180291.8074
 -13800380.48644 -10753536.74844  22108531.6844   22108531.3274
 -16630027.93244 -12958454.72244  21189538.2864   21189538.4964
   -125596.93244    -97866.95244  25031848.5464   25031850.4354
  -2526678.72444  -1968839.21744  24575758.3634   24575757.8794
 -24079920.83944 -18763567.92344  20464014.4324   20464014.0744
 -23148573.59744 -18037839.39444  20613696.9644   20613696.4654
 96  3 14  3  8  0.0000000  0  7G24G 6G16G25G17G20G 5
 -11119246.87344  -8664331.05544  22194131.6474   22194131.8414
 -13862559.96944 -10801988.27744  22096699.4464   22096698.5834
 -16660542.40044 -12982232.22144  21183731.6394   21183731.8564
   -144763.90244   -112802.22044  25028202.1964
  -2618154.80344  -2040119.25244  24558351.7184   24558350.8794
 -24092634.63144 -18773474.77444  20461595.0004   20461594.7064
 -23102041.23444 -18001580.41544  20622551.5514   20622551.0964
 96  3 14  3  8 30.0000000  0  7G24G 6G16G25G17G20G 5
 -11046377.31044  -8607549.58344  22207998.3184   22207997.7614
 -13924627.56644 -10850352.62344  22084888.3894   22084887.9054
 -16690465.33544 -13005548.77944  21178037.6424   21178037.7054
   -163416.27044   -127336.56044  25024656.1704   25024657.9314
  -2709460.79744  -2111266.73844  24540976.8364   24540975.0224
 -24104764.15744 -18782926.35244  20459286.6554   20459286.3394
 -23055007.65844 -17964930.89044  20631501.8114   20631501.2624
 96  3 14  3  9  0.0000000  0  7G24G 6G16G25G17G20G 5
 -10973394.04944  -8550679.50644  22221886.7244   22221887.0074
 -13986609.50944 -10898650.21944  22073093.2624   22073093.2814
 -16719803.08744 -13028409.34644  21172454.8614   21172454.7604
   -181576.54344   -141487.45044  25021202.9164   25021200.7524
  -2800624.74844  -2182303.55244  24523628.6364   24523627.0734
 -24116347.11144 -18791952.03244  20457082.5024   20457082.4804
 -23007467.68744 -17927886.76644  20640548.3884   20640547.9254
 96  3 14  3  9 30.0000000  0  7G24G 6G16G25G17G20G 5
 -10900279.95144  -8493707.48544  22235799.4404   22235799.1784
 -14048500.47144 -10946876.92144  22061315.0044   22061315.5064
 -16748539.55744 -13050801.38244  21166986.2784   21166986.5894
   -199222.39144   -155237.45244  25017846.1864   25017839.9854
  -2891632.45644  -2253218.63644  24506308.9934   24506310.7854
 -24127359.14944 -18800532.83944  20454987.2274   20454986.9364
 -22959390.47944 -17890424.01144  20649697.0194   20649696.6554
 96  3 14  3 10  0.0000000  0  7G24G 6G16G25G17G20G 5
 -10827070.86444  -8436661.43744  22249730.7164   22249730.4014
 -14110323.99044 -10995051.07644  22049550.8134   22049550.3814
 -16776698.49844 -13072743.40344  21161628.0724   21161627.7744
   -216391.18944   -168615.71244  25014580.2414   25014579.1564
  -2982513.76644  -2324035.15544  24489015.5744   24489016.0644
 -24137831.05644 -18808692.76644  20452994.4734   20452994.1364
 -22910798.32144 -17852559.99644  20658943.9724   20658943.6464
 96  3 14  3 10 30.0000000  0  7G24G 6G16G25G17G20G 5
 -10753798.66244  -8379566.20344  22263674.0204   22263673.8484
 -14172099.64144 -11043187.93244  22037795.7074   22037795.2484
 -16804308.59144 -13094257.74944  21156374.0664   21156374.3714
   -233108.25244   -181641.97144  25011399.5174   25011397.2784
  -3073268.56644  -2394753.13344  24471744.0704   24471747.4304
 -24147766.71844 -18816434.84044  20451103.6094   20451103.3884
 -22861708.66344 -17814308.32044  20668285.4674   20668285.0714
 96  3 14  3 11  0.0000000  0  7G24G 6G16G25G17G20G 5
 -10680446.49744  -8322408.66744  22277632.4634   22277632.5704
 -14233821.04444 -11091282.51944  22026050.7514   22026050.2434
 -16831384.19644 -13115355.60644  21151221.5034   21151221.6964
   -249362.20944   -194307.42344  25008304.6764   25008301.8304
  -3163861.19144  -2465344.74444  24454504.2954   24454507.2514
 -24157130.46644 -18823731.26844  20449321.7584   20449321.3584
 -22812127.92144 -17775673.98444  20677720.1754   20677719.8144
 96  3 14  3 11 30.0000000  0  7G24G 6G16G25G17G20G 5
 -10606959.25944  -8265145.88844  22291616.9104   22291616.8814
 -14295439.43544 -11139296.82744  22014324.8204   22014324.7094
 -16857889.13144 -13136008.78744  21146177.7604   21146178.0164
   -265103.91744   -206573.63544  25005307.4704   25005307.2894
  -3254231.29744  -2535762.94744  24437308.2734   24437313.2724
 -24165872.41744 -18830543.18044  20447658.2704   20447658.2954
 -22762034.26644 -17736639.97944  20687252.7884   20687252.4384
 96  3 14  3 12  0.0000000  0  7G24G 6G25G17G16G20G 5
 -10533349.12044  -8207787.34144  22305624.7694   22305625.0734
 -14356974.60544 -11187246.29044  22002614.6134   22002614.8874
   -280348.62944   -218452.67544  25002404.8274
  -3344387.39244  -2606014.41144  24420152.1384   24420154.4734
 -16883831.07844 -13156223.27244  21141241.3494   21141241.4614
 -24174020.20944 -18836892.11144  20446107.7634   20446107.5774
 -22711439.71144 -17697215.65744  20696880.8904   20696880.4514
 96  3 14  3 12 30.0000000  0  7G24G 6G25G17G16G20G 5
 -10459608.24844  -8150326.91544  22319656.4894   22319656.1984
 -14418419.87344 -11235125.70244  21990922.2954   21990921.6224
   -295087.37744                  24999600.7304
  -3434323.10544  -2676094.19044  24403037.3944   24403041.0364
 -16909198.12144 -13175989.78244  21136414.1814   21136414.3784
 -24181567.17044 -18842772.86544  20444671.4474   20444671.4484
 -22660333.56444 -17657392.69144  20706606.0934   20706605.5454
 96  3 14  3 13  0.0000000  0  7G24G 6G25G17G16G20G 5
 -10385719.73044  -8092751.45044  22333717.0544   22333716.9044
 -14479758.03944 -11282921.66244  21979250.1644   21979249.5154
   -309316.30544                  24996893.8824
  -3524040.05144  -2746003.43444  24385965.2704   24385967.1524
 -16933975.55244 -13195296.85544  21131699.0544   21131699.4814
 -24188508.45844 -18848181.66044  20443350.4584   20443350.3524
 -22608704.02744 -17617161.89644  20716430.7854   20716430.2404
 96  3 14  3 13 30.0000000  0  7G24G 6G25G17G16G20G 5
 -10311732.14844  -8035098.79144  22347796.5954   22347796.4374
 -14541031.67044 -11330667.33244  21967590.2484   21967589.6114
   -323089.39544                  24994274.7564
  -3613599.41344  -2815789.91544  24368922.0544   24368925.1274
 -16958193.79144 -13214168.19944  21127090.7394   21127090.6774
 -24194894.61544 -18853157.89044  20442135.4874   20442135.2574
 -22556583.54944 -17576548.53844  20726348.8914   20726348.4504
 96  3 14  3 14  0.0000000  0  7G24G 6G25G17G16G20G 5
 -10237673.85544  -7977391.03544  22361888.9334   22361888.5704
 -14602252.00444 -11378371.46944  21955940.4514   21955939.8344
   -336426.14444   -262149.48944  24991737.2204
  -3703036.70244  -2885481.31544  24351902.9354   24351900.3004
 -16981858.00744 -13232607.83144  21122587.3064   21122587.4304
 -24200726.75444 -18857702.41644  20441025.7024   20441025.3694
 -22503974.32244 -17535554.34044  20736359.9604   20736359.5834
 96  3 14  3 14 30.0000000  0  7G24G 6G25G17G16G20G 5
 -10163542.57244  -7919626.38944  22375996.1314   22375996.1194
 -14663407.35744 -11426024.97644  21944302.7774   21944302.2394
   -349335.03944   -272208.37844  24989280.8934
  -3792358.98544  -2955083.06044  24334906.0184   24334907.0874
 -17004969.68544 -13250616.91044  21118189.3664   21118189.7204
 -24205987.50344 -18861801.70044  20440024.5774   20440024.5534
 -22450888.04644 -17494188.42444  20746461.9374   20746461.4834
 96  3 14  3 15  0.0000000  0  7G24G 6G25G17G16G20G 5
 -10089339.85344  -7861806.08544  22390116.3264   22390116.2564
 -14724502.78244 -11473631.79244  21932676.7314   21932676.0874
   -361804.23644                  24986908.3624
  -3881567.14844  -3024595.86344  24317930.8144   24317930.3094
 -17027536.57044 -13268201.48244  21113895.1414   21113895.3684
 -24210682.25144 -18865459.94944  20439131.3304   20439131.0934
 -22397320.53344 -17452447.51744  20756655.4884   20756655.3604
 96  3 14  3 15 30.0000000  0  7G24G 6G25G17G16G20G 5
 -10015080.05044  -7803941.31044  22404247.8574   22404247.8054
 -14785546.02744 -11521197.94344  21921060.6314   21921060.1204
   -373821.33044   -291288.53044  24984620.8514
  -3970660.90244  -3094019.51944  24300976.6804   24300976.6494
 -17049550.17944 -13285354.92044  21109706.1404   21109705.8334
 -24214811.65344 -18868677.66544  20438345.3964   20438345.2494
 -22343270.27044 -17410330.44944  20766941.0734   20766940.6354
 96  3 14  3 16  0.0000000  0  7G24G 6G25G17G16G20G 5
  -9940749.78944  -7746021.62244  22418392.6864   22418392.1894
 -14846508.98044 -11568701.52944  21909459.7664   21909459.1544
   -385365.23644                  24982423.6754
  -4059616.49844  -3163335.55544  24284049.6964   24284049.0254
 -17071004.17944 -13302072.30744  21105623.6854   21105623.7614
 -24218360.16944 -18871442.75044  20437670.2394   20437669.9574
 -22288721.83644 -17367825.18644  20777321.3394   20777320.9094
 96  3 14  3 16 30.0000000  0  7G24G 6G25G17G16G20G 5
  -9866311.04144  -7688017.39944  22432557.4104   22432556.8364
 -14907362.96044 -11616120.19444  21897879.6364   21897878.9644
   -396408.68244   -308889.05844  24980319.2464
  -4148388.11044  -3232508.20344  24267156.4854   24267157.0224
 -17091874.84144 -13318335.14444  21101651.8064   21101652.1274
 -24221312.62944 -18873743.36844  20437108.2044   20437108.1004
 -22233650.37044 -17324912.36544  20787800.9654   20787800.6064
 96  3 14  3 17  0.0000000  0  7G24G 6G25G17G16G20G 5
  -9791734.05544  -7629905.46344  22446748.8184   22446749.0504
 -14968083.31444 -11663434.73544  21886324.6384   21886324.4154
   -406915.58544   -317076.27344  24978321.2284
  -4236945.57244  -3301513.99544  24250305.9554   24250305.8724
 -17112128.22544 -13334116.99244  21097797.7764   21097797.7404
 -24223646.01444 -18875561.59244  20436664.3004   20436664.0454
 -22178020.08344 -17281564.09844  20798387.2074   20798386.7304
 96  3 14  3 17 30.0000000  0  7G24G 6G25G17G16G20G 5
  -9717025.86744  -7571691.29544  22460965.4064   22460964.9864
 -15028670.88644 -11710645.81544  21874795.3524   21874794.5394
   -416919.14644                  24976415.8884
  -4325306.08944  -3370366.32744  24233489.5394   24233491.6114
 -17131763.95844 -13349417.55044  21094060.9924   21094061.3174
 -24225360.78744 -18876897.78144  20436338.1204   20436337.8264
 -22121868.39444 -17237809.54144  20809072.4514   20809071.9874
 96  3 14  3 18  0.0000000  0  7G24G25G17G 6G16G20G 5
  -9642185.73844  -7513374.32944  22475206.6994   22475206.9614
   -426436.59044                  24974603.9074
  -4413472.52144  -3439067.40844  24216712.5674   24216712.8794
 -15089131.92444 -11757758.29944  21863290.3064   21863289.6654
 -17150795.54744 -13364247.34744  21090439.5004   21090439.3874
 -24226465.71844 -18877758.76644  20436127.6764   20436127.4574
 -22065221.75544 -17193669.30744  20819852.0974   20819851.6274
 96  3 14  3 18 30.0000000  0  7G24G 6G25G17G16G20G 5
  -9567223.30744  -7454962.04444  22489471.5354   22489471.2884
 -15149489.87244 -11804790.45044  21851804.4344   21851804.1024
   -435472.38744   -339328.32344  24972884.6084
  -4501453.71144  -3507624.10744  24199969.6714   24199972.3714
 -17169224.81544 -13378607.80244  21086932.5474   21086932.6964
 -24226964.71144 -18878147.59744  20436032.8274   20436032.6104
 -22008101.31944 -17149159.88144  20830721.6494   20830721.1644
 96  3 14  3 19  0.0000000  0  7G24G25G17G 6G16G20G 5
  -9492181.28244  -7396487.74044  22503752.1354   22503752.1534
   -444042.73544   -346006.60344  24971251.5934
  -4589282.46144  -3576062.08944  24183255.7894   24183256.7484
 -15209772.38944 -11851763.82544  21840332.9604   21840332.5294
 -17187076.52944 -13392518.21544  21083535.5534   21083535.2504
 -24226881.73844 -18878082.94544  20436048.6374   20436048.4124
 -21950535.00444 -17104303.02544  20841676.0514   20841675.9094
 96  3 14  3 19 30.0000000  0  7G24G25G17G 6G16G20G 5
  -9417063.68744  -7337954.55344  22518046.6464   22518046.1754
   -452133.66344                  24969712.6274
  -4676929.78044  -3644358.67544  24166577.0824   24166580.2474
 -15269972.47744 -11898672.96844  21828877.3804   21828876.7854
 -17204351.22244 -13405979.00344  21080248.0364   21080248.2664
 -24226201.66444 -18877553.01944  20436177.8714   20436177.5724
 -21892517.48044 -17059094.57544  20852716.1814   20852716.0064
 96  3 14  3 20  0.0000000  0  7G24G25G17G 6G16G20G 5
  -9341874.93844  -7279365.91244  22532354.6244   22532354.4634
   -459723.36444   -358225.16844  24968268.5904
  -4764389.31044  -3712508.88944  24149934.5144   24149935.7694
 -15330098.57944 -11945524.47344  21817435.8664   21817434.8274
 -17221056.56744 -13418996.14044  21077069.3614   21077069.2744
 -24224924.58244 -18876557.89444  20436421.0854   20436420.6204
 -21834027.42244 -17013517.91644  20863846.6734   20863846.4424
 96  3 14  3 20 30.0000000  0  7G24G25G17G 6G16G20G 5
  -9266632.85444  -7220735.72244  22546672.8774   22546672.5104
   -466819.28244   -363754.50144  24966920.2094   24966923.2994
  -4851682.51944  -3780529.54144  24133322.7594   24133324.8354
 -15390159.15944 -11992324.92344  21806006.5204   21806005.5984
 -17237196.90644 -13431573.01944  21073997.9384   21073997.5884
 -24223064.77144 -18875108.69344  20436774.6004   20436774.4054
 -21775060.05044 -16967569.33444  20875067.8274   20875067.4644
 96  3 14  3 21  0.0000000  0  7G24G25G17G 6G16G20G 5
  -9191301.09844  -7162035.65244  22561007.7384   22561007.9284
   -473401.95944   -368883.83944  24965670.5254   24965670.1634
  -4938768.24644  -3848388.52844  24116751.9944   24116753.9294
 -15450118.03844 -12039046.11344  21794596.4064   21794595.7544
 -17252735.65544 -13443681.12144  21071041.1084   21071040.7624
 -24220592.37444 -18873182.15344  20437245.1824   20437245.1304
 -21715574.16444 -16921216.70344  20886387.7444   20886387.1854
 96  3 14  3 21 30.0000000  0  7G24G25G17G 6G16G20G 5
  -9115857.19844  -7103248.19244  22575364.1624   22575364.2624
   -479476.10944   -373616.99844  24964514.0244   24964511.3074
  -5025637.78044  -3916079.05344  24100220.7534   24100221.3114
 -15509957.15144 -12085673.98744  21783209.6454   21783208.7424
 -17267648.99944 -13455301.89644  21068202.9914   21068203.3144
 -24217488.43344 -18870763.49744  20437836.2084   20437836.0164
 -21655553.88444 -16874447.65444  20897809.5044   20897808.9544
 96  3 14  3 22  0.0000000  0  7G24G25G17G 6G16G20G 5
  -9040331.67844  -7044397.13344  22589735.5934   22589735.8914
   -485084.76744   -377987.36244  24963447.9154
  -5112338.25644  -3983637.82644  24083722.6414   24083724.0304
 -15569694.92444 -12132222.89744  21771841.9934   21771841.3714
 -17281948.43544 -13466444.30444  21065481.7934   21065481.9504
 -24213783.17244 -18867876.28044  20438541.3624   20438540.9944
 -21595025.22644 -16827282.47944  20909327.4694   20909327.0594
 96  3 14  3 22 30.0000000  0  7G24G25G17G 6G16G20G 5
  -8964745.15544  -6985498.55544  22604119.2304   22604119.6614
   -490260.37744   -382020.29144  24962462.5524   24962462.6484
  -5198883.84144  -4051075.90844  24067252.9584   24067253.2464
 -15629346.46844 -12178704.60744  21760490.1814   21760489.8404
 -17295649.63944 -13477120.55344  21062874.3134   21062874.4374
 -24209497.79344 -18864537.02644  20439356.5294   20439356.2294
 -21534023.00244 -16779748.28844  20920935.6164   20920935.3444
 96  3 14  3 23  0.0000000  0  7G24G25G17G 6G16G20G 5
  -8889108.56244  -6926560.95644  22618512.9124   22618512.0044
   -495018.00744   -385727.51744  24961558.2974   24961557.9924
  -5285271.54144  -4118390.97644  24050813.8904   24050813.0994
 -15688918.04944 -12225124.00544  21749154.5044   21749154.1374
 -17308769.74244 -13487344.00044  21060377.8114   21060378.1324
 -24204627.38544 -18860741.90644  20440283.1984   20440283.0544
 -21472573.67444 -16731865.70744  20932629.1964   20932628.9494
 96  3 14  3 23 30.0000000  0  7G24G25G17G 6G16G20G 5
  -8813388.27044  -6867558.14344  22632922.2234   22632921.9004
   -499292.64944   -389058.41444  24960744.3444   24960742.9454
  -5371466.07544  -4185555.52744  24034412.6144   24034413.1404
 -15748353.34044 -12271437.20644  21737844.2394   21737843.5554
 -17321262.65944 -13497078.72544  21058000.4804   21058000.6074
 -24199128.74144 -18856457.25344  20441329.8734   20441329.6954
 -21410638.91144 -16683604.86144  20944414.5124   20944414.4094
 96  3 14  3 24  0.0000000  0  7G24G25G17G 6G16G20G 5
  -8737584.92744  -6808490.58744  22647347.1544   22647347.1074
   -503075.57444   -392006.11544  24960021.3544   24960018.0424
  -5457461.14344  -4252564.65144  24018048.4774   24018047.3744
 -15807656.17744 -12317647.19744  21726559.0004   21726558.4574
 -17333147.42244 -13506339.56744  21055738.9834   21055739.1624
 -24193012.63944 -18851691.46144  20442493.8694   20442493.5674
 -21348231.87944 -16634976.01344  20956290.7094   20956290.4804
 96  3 14  3 24 30.0000000  0  7G24G25G17G 6G16G20G 5
  -8661714.52744  -6749370.79744  22661784.5304   22661784.8764
   -506387.39344   -394586.71244  24959391.8744   24959389.3984
  -5543280.03644  -4319436.49044  24001716.5904   24001717.5744
 -15866849.71044 -12363772.00644  21715295.3774   21715294.7884
 -17344466.63144 -13515159.72044  21053585.0864   21053584.7794
 -24186309.21444 -18846468.01844  20443769.4244   20443769.3944
 -21285385.21244 -16586004.59744  20968249.7474   20968249.5854
 96  3 14  3 25  0.0000000  0  7G24G25G17G 6G16G20G 5
  -8585770.73644  -6690193.81644  22676236.3384   22676235.8624
   -509207.48344   -396784.17544  24958854.3804   24958857.0684
  -5628920.12144  -4386169.00744  23985419.4284   23985419.3934
 -15925927.06144 -12409806.28744  21704053.5254   21704053.1544
 -17355211.55844 -13523532.37844  21051540.5744   21051540.6194
 -24179008.47044 -18840779.13244  20445158.5084   20445158.2644
 -21222072.68744 -16536670.17344  20980297.9114   20980297.6944
 96  3 14  3 25 30.0000000  0  7G24G25G17G 6G16G20G 5
  -8509726.47344  -6630938.55444  22690707.0684   22690706.7294
   -511512.62044   -398580.46044  24958415.6824   24958415.1634
  -5714366.41544  -4452750.50744  23969159.9044   23969160.2584
 -15984871.79644 -12455737.24344  21692836.4684   21692835.9304
 -17365358.22844 -13531438.86544  21049609.2954   21049609.5214
 -24171106.11244 -18834621.45644  20446662.3214   20446661.9524
 -21158261.61544 -16486947.27144  20992440.9124   20992440.5424
 96  3 14  3 26  0.0000000  0  7G24G25G17G 6G16G20G 5
  -8433584.99644  -6571607.51644  22705196.5644   22705195.8494
   -513319.54644   -399988.45244  24958070.7684
  -5799612.54444  -4519176.03044  23952938.8124   23952937.9484
 -16043703.48344 -12501580.11244  21681640.7764   21681640.3264
 -17374926.94844 -13538895.00044  21047788.5014   21047788.4224
 -24162598.93844 -18827992.49344  20448281.1904   20448281.1174
 -21093966.32444 -16436847.05444  21004675.9224   21004675.4794
 96  3 14  3 26 30.0000000  0  7G24G25G17G 6G16G20G 5
  -8357380.22944  -6512227.18244  22719697.5274   22719696.6234
   -514657.60344   -401031.10244  24957814.6814   24957816.6064
  -5884687.53244  -4585468.21544  23936749.4794   23936748.7974
 -16102460.14644 -12547364.51444  21670459.7814   21670459.7894
 -17383941.17644 -13545919.06044  21046073.0624   21046073.2334
 -24153511.33044 -18820911.25244  20450010.6474   20450010.3464
 -21029213.57444 -16386390.37444  21016997.7734   21016997.4004
 96  3 14  3 27  0.0000000  0  7G24G25G17G 6G16G20G 5
  -8281117.93344  -6452802.01144  22734209.4304   22734209.2354
   -515522.93044   -401705.41344  24957651.1604   24957650.0114
  -5969587.20644  -4651623.77344  23920592.5194   23920592.6284
 -16161160.24744 -12593104.83944  21659289.6044   21659289.1794
 -17392390.70644 -13552503.10144  21044465.5074   21044465.5314
 -24143853.07244 -18813385.34644  20451848.4834   20451848.2094
 -20964006.48044 -16335579.66344  21029406.3994   21029405.9794
 96  3 14  3 27 30.0000000  0  7G24G25G17G 6G16G20G 5
  -8204767.75344  -6393308.36844  22748739.0604   22748739.3714
   -515886.61844   -401988.79744  24957583.1514   24957583.3514
  -6054261.50944  -4717603.71344  23904479.3014   23904481.3954
 -16219752.00044 -12638760.74544  21648140.0224   21648139.4664
 -17400233.49744 -13558614.35744  21042972.9324   21042972.8574
 -24133591.04744 -18805388.96444  20453801.0164   20453800.9224
 -20898328.88044 -16284402.32144  21041904.4994   21041904.0384
 96  3 14  3 28  0.0000000  0  7G24G25G17G 6G16G20G 5
  -8128368.74144  -6333776.67344  22763276.6074   22763275.9824
   -515783.59144   -401908.53644  24957603.6634   24957604.4454
  -6138739.76444  -4783430.90044  23888403.6894   23888405.7024
 -16278262.65944 -12684353.45844  21637006.0814   21637005.3704
 -17407503.35744 -13564279.17244  21041589.5694   21041589.6054
 -24122752.49544 -18796943.34444  20455863.8734   20455863.5264
 -20832222.45544 -16232890.83144  21054483.9914   21054483.8194
 96  3 14  3 28 30.0000000  0  7G24G25G17G 6G16G20G 5
  -8051907.10844  -6274196.17344  22777827.1714   22777827.5974
   -515219.88344   -401469.31544  24957710.4854   24957710.2364
  -6223025.69444  -4849108.23944  23872364.1384   23872366.2794
 -16336672.88744 -12729867.91144  21625890.7294   21625890.1034
 -17414171.34244 -13569474.99244  21040320.3394   21040320.8364
 -24111345.71044 -18788054.94344  20458034.3604   20458034.1294
 -20765671.59744 -16181033.03244  21067148.0014   21067147.7544
 96  3 14  3 29  0.0000000  0  7G24G25G17G 6G16G20G 5
  -7975410.29744  -6214588.27844  22792384.1174   22792384.4204
   -514222.76344   -400692.29444  24957899.2884   24957898.5364
  -6307138.03644  -4914650.26744  23856358.6904   23856360.6874
 -16394986.63244 -12775307.18244  21614793.8014   21614793.4984
 -17420255.82144 -13574216.14244  21039162.7654   21039162.7544
 -24099391.65244 -18778740.09644  20460309.3154   20460309.1634
 -20698695.26444 -16128843.69444  21079893.3614   21079893.0164
 96  3 14  3 29 30.0000000  0  7G24G25G17G 6G16G20G 5
  -7898880.57544  -6154954.72444  22806947.4534   22806946.7284
   -512798.39644   -399582.48344  24958169.0264   24958170.6864
  -6391071.26144  -4980052.74444  23840387.6784   23840390.6064
 -16453176.70444 -12820650.08744  21603720.6634   21603720.0654
 -17425751.08244 -13578498.15344  21038116.7854   21038116.8574
 -24086868.35144 -18768981.68244  20462692.3044   20462692.2584
 -20631283.75744 -16076315.25644  21092721.4744   21092721.1424
 96  3 14  3 30  0.0000000  0  7G24G25G17G 6G16G20G 5
  -7822324.06744  -6095300.30644  22821514.7924   22821515.3634
   -510961.00544   -398150.74544  24958518.2894   24958520.6264
  -6474847.38444  -5045332.79444  23824445.4904   23824445.8954
 -16511260.95844 -12865910.53344  21592667.8964   21592667.1164
 -17430663.63444 -13582326.10544  21037182.4314   21037182.1914
 -24073783.68544 -18758785.84344  20465182.3834   20465182.2724
 -20563437.36344 -16023447.94544  21105632.1654   21105631.8454
 96  3 14  3 30 30.0000000  0  7G24G25G17G 6G16G20G 5
  -7745742.65044  -6035626.48244  22836087.7214   22836088.8054
   -508704.76944   -396392.64844  24958949.9744   24958950.6004
  -6558471.95844  -5110494.77644  23808532.6994   23808532.0594
 -16569228.03544 -12911079.67444  21581637.1184   21581636.4224
 -17434977.41344 -13585687.47944  21036361.3904   21036361.3674
 -24060134.24844 -18748149.93144  20467779.5424   20467779.4114
 -20495156.69844 -15970242.24844  21118625.8354   21118625.5434
 96  3 14  3 31  0.0000000  0  7G24G25G17G 6G16G20G 5
  -7669134.38744  -5975931.74644  22850666.8084   22850666.5084
   -506004.46244   -394288.48344  24959461.7154   24959461.4844
  -6641918.87344  -5175518.34244  23792652.3464   23792651.5924
 -16627069.65044 -12956151.05344  21570630.1594   21570629.3754
 -17438675.74344 -13588569.28744  21035657.3524   21035657.6594
 -24045893.57044 -18737053.30844  20470489.3784   20470489.4384
 -20426430.39044 -15916689.29144  21131703.9074   21131703.4234
 96  3 14  3 31 30.0000000  0  7G24G25G17G 6G16G20G 5
  -7592478.20444  -5916199.64344  22865254.0304   22865253.4804
   -502842.39844   -391824.54344  24960064.1314
  -6725180.56544  -5240397.53844  23776809.1944   23776808.6274
 -16684775.56744 -13001116.69644  21559648.9404   21559648.3174
 -17441738.21644 -13590955.62944  21035074.6414   21035074.9824
 -24031040.39144 -18725479.40444  20473316.2144   20473315.8624
 -20357253.51544 -15862785.23144  21144867.6974   21144867.5294
 96  3 14  3 32  0.0000000  0  7G24G25G17G 6G16G20G 5
  -7515778.92944  -5856433.97744  22879848.5084   22879847.9304
   -499219.80244                  24960755.2684
  -6808267.87644  -5305140.85544  23760996.1534   23760996.3424
 -16742367.40144 -13045993.43844  21548689.4154   21548688.8964
 -17444187.54444 -13592864.18444  21034608.4964   21034608.6274
 -24015592.91044 -18713442.41544  20476255.5894   20476255.5024
 -20287651.33744 -15808549.76844  21158112.7324   21158112.3134
 96  3 14  3 32 30.0000000  0  7G24G25G17G 6G16G20G 5
  -7439054.04944  -5796648.35544  22894449.1344   22894448.9374
   -495153.40644                  24961527.7434
  -6891189.64544  -5369755.22144  23745218.1584   23745217.1614
 -16799866.11044 -13090797.61944  21537748.1804   21537747.2484
 -17446062.79844 -13594325.41144  21034251.7574   21034251.7824
 -23999560.93944 -18700949.97944  20479306.5184   20479306.1614
 -20217644.52044 -15753999.00044  21171434.5784   21171434.1964
 96  3 14  3 33  0.0000000  0  7G24G25G17G 6G16G20G 5
  -7362262.03644  -5736810.40644  22909062.4124   22909062.2334
   -490604.39244   -382288.40844  24962394.5134
  -6973897.22744  -5434202.63044  23729479.0864   23729479.5574
 -16857236.33744 -13135501.68144  21526831.0024   21526830.2434
 -17447344.41444 -13595324.05944  21034007.9134   21034007.8354
 -23982898.60044 -18687966.34444  20482477.1264   20482477.0634
 -20147187.50544 -15699097.43544  21184841.8974   21184841.5264
 96  3 14  3 33 30.0000000  0  7G24G25G17G 6G16G20G 5
  -7285383.70644  -5676905.21844  22923691.7694   22923691.8394
   -485555.97444   -378354.62544  24963354.9984
  -7056391.09944  -5498483.54244  23713780.0554   23713781.7724
 -16914450.34544 -13180084.02044  21515943.4524   21515942.6374
 -17448036.98544 -13595863.71844  21033876.2274   21033876.2344
 -23965592.20744 -18674480.84744  20485770.4844   20485770.3804
 -20076279.25844 -15643844.27044  21198335.3334   21198334.9424
 96  3 14  3 34  0.0000000  0  7G24G25G17G 6G16G20G 5
  -7208422.37144  -5616935.35044  22938336.8544   22938336.0294
   -480015.24044                  24964408.5234
  -7138663.26344  -5562591.70544  23698124.9424   23698126.6034
 -16971496.44644 -13224535.52444  21505088.0334   21505087.2244
 -17448133.56044 -13595938.96244  21033857.6774   21033857.8084
 -23947649.82744 -18660499.77744  20489184.5654   20489184.4164
 -20004905.83144 -15588228.61444  21211917.5044   21211917.1084
 96  3 14  3 34 30.0000000  0  7G24G25G17G 6G16G20G 5
  -7131401.09544  -5556918.77144  22952993.6774   22952991.8334
   -474011.39844                  24965552.8434
  -7220735.02144  -5626543.68244  23682507.3854   23682508.3734
 -17028392.28444 -13268869.94044  21494260.6684   21494259.8124
 -17447628.66244 -13595545.52844  21033953.3884   21033953.5604
 -23929090.24044 -18646037.76344  20492716.3274   20492716.6724
 -19933077.77644 -15532258.70544  21225585.8294   21225585.2684
 96  3 14  3 35  0.0000000  0  7G24G25G17G 6G16G20G 5
  -7054323.75744  -5496858.51244  22967660.7664   22967660.1284
   -467540.52644   -364316.60644  24966782.7694
  -7302611.19944  -5690343.25244  23666925.8304   23666926.7934
 -17085127.36644 -13313079.08844  21483464.4244   21483463.9124
 -17446491.73844 -13594659.60944  21034170.2984   21034170.2474
 -23909928.05844 -18631106.20344  20496362.8144   20496362.8894
 -19860802.31144 -15475940.18044  21239339.6664   21239339.0704
 96  3 14  3 35 30.0000000  0  7G24G25G17G 6G16G20G 5
  -6977195.50144  -5436758.56544  22982337.4104   22982337.2334
   -460600.52544   -358908.83344  24968102.3984
  -7384280.24244  -5753981.43744  23651384.1624   23651386.4514
 -17141699.09544 -13357160.94344  21472699.3234   21472698.7194
 -17444716.14044 -13593276.01644  21034508.0534   21034508.2714
 -23890173.35544 -18615712.93444  20500122.1524   20500122.3944
 -19788086.83444 -15419278.78144  21253176.6674   21253176.3414
 96  3 14  3 36  0.0000000  0  7G24G25G17G 6G16G20G 5
  -6900017.33444  -5376619.74244  22997023.7444   22997024.2874
   -453188.15344                  24969514.4354
  -7465717.67744  -5817439.14544  23635887.0084   23635889.8174
 -17198111.72444 -13401118.83044  21461964.3004   21461963.4484
 -17442293.21744 -13591388.01544  21034969.0084   21034969.0044
 -23869829.29444 -18599860.42544  20503993.3074   20503993.4714
 -19714914.48844 -15362261.36344  21267100.6454   21267100.3494
 96  3 14  3 36 30.0000000  0  7G24G25G17G 6G16G20G 5
  -6822793.36844  -5316445.24144  23011719.8884   23011719.2224
   -445294.18044   -346981.85844  24971017.5844
  -7546927.27444  -5880719.32144  23620434.3984   23620436.0324
 -17254375.23044 -13444960.51344  21451257.3784   21451256.8804
 -17439243.37944 -13589011.51144  21035549.5024   21035549.3834
 -23848889.41644 -18583543.64344  20507978.1814   20507978.2364
 -19641302.77244 -15304901.58844  21281108.6674   21281108.7904
 96  3 14  3 37  0.0000000  0  7G24G25G17G 6G16G20G 5
  -6745527.71444  -5256238.22444  23026423.2234   23026423.0244
   -436918.99544   -340455.72644  24972611.5274   24972612.6734
  -7627912.55244  -5943824.67544  23605023.4234   23605024.9604
 -17310487.56844 -13488684.40044  21440579.6464   21440579.3214
 -17435594.33944 -13586168.09644  21036243.8384   21036244.1184
 -23827369.92844 -18566775.21644  20512073.0534   20512073.0904
 -19567262.62344 -15247207.97044  21295197.9624   21295197.7474
 96  3 14  3 37 30.0000000  0  7G24G25G17G 6G16G20G 5
  -6668235.86744  -5196010.81544  23041131.3494   23041131.5314
   -428093.38744   -333578.67544  24974290.2954
  -7708691.85944  -6006769.53344  23589651.4694   23589651.9584
 -17366480.46244 -13532315.22244  21429924.7084   21429924.1754
 -17431383.32344 -13582886.78244  21037045.1884   21037044.9534
 -23805276.19944 -18549559.33544  20516277.3854   20516277.3054
 -19492811.86644 -15189194.40744  21309365.4514   21309365.2934
 96  3 14  3 38  0.0000000  0  7G24G25G17G 6G16G20G 5
  -6590917.86344  -5135763.02944  23055844.1764   23055844.8924
   -418827.31044   -326358.29744  24976054.2474
  -7789279.14944  -6069564.80744  23574316.2214   23574316.2254
 -17422362.16844 -13575859.40344  21419290.8044   21419290.2174
 -17426600.24444 -13579159.70444  21037955.4444   21037955.6874
 -23782598.38944 -18531888.32144  20520592.9374   20520592.9824
 -19417943.69144 -15130855.59044  21323612.4644   21323611.8234
 96  3 14  3 38 30.0000000  0  7G24G25G17G 6G16G20G 5
  -6513573.48944  -5075494.69044  23070562.4584   23070562.7764
   -409121.53344   -318795.41944  24977900.1624   24977901.4934
  -7869678.45844  -6132213.59744  23559016.8904   23559016.7124
 -17478131.04244 -13619315.65244  21408678.2884   21408677.7014
 -17421236.90244 -13574980.46744  21038976.1064   21038976.1264
 -23759325.26744 -18513753.42744  20525021.9964   20525021.8204
 -19342661.19244 -15072193.92544  21337938.6124   21337938.2064
 96  3 14  3 39  0.0000000  0  7G24G25G17G 6G16G20G 5
  -6436207.30944  -5015209.34944  23085284.0604   23085284.5804
   -398993.05544   -310903.11744  24979827.3934   24979828.4174
  -7949881.88844  -6194709.73944  23543755.1584   23543753.9424
 -17533792.32044 -13662688.06844  21398086.3774   21398085.6154
 -17415295.74044 -13570350.98544  21040106.4134   21040106.3284
 -23735465.06944 -18495161.07444  20529562.4354   20529562.2994
 -19266974.17944 -15013217.04344  21352340.9764   21352340.5804
 96  3 14  3 39 30.0000000  0  7G24G25G17G 6G16G20G 5
  -6358837.36444  -4954921.07144  23100007.5174   23100008.7034
   -388445.74044   -302684.45644  24981834.7774
  -8029887.60544  -6257051.82044  23528530.4614   23528530.9844
 -17589353.17144 -13705982.22644  21387513.4444   21387512.7084
 -17408780.88844 -13565274.46644  21041346.2054   21041346.3234
 -23710999.01944 -18476096.62844  20534217.9414   20534217.8854
 -19190889.69144 -14953930.44144  21366819.8604   21366819.4534
 96  3 14  3 40  0.0000000  0  7G24G25G17G 6G16G20G 5
  -6281459.13644  -4894626.33744  23114731.4044   23114730.8064
   -377469.71044   -294131.68944  24983923.0824
  -8109694.51544  -6319238.96444  23513343.9884   23513343.8354
 -17644795.09144 -13749183.70744  21376963.1114   21376962.8104
 -17401684.91444 -13559745.12944  21042696.3404   21042695.9874
 -23685950.70044 -18456578.46544  20538984.5604   20538984.6084
 -19114414.46044 -14894339.35744  21381372.0424   21381371.8894
 96  3 14  3 40 30.0000000  0  7G24G25G17G 6G16G20G 5
  -6204001.08344  -4834269.40444  23129471.2624   23129473.1774
   -366000.26944   -285194.39744  24986105.8454   24986102.6404
  -8189237.63144  -6381220.58844  23498206.7414   23498208.0384
 -17700047.10244 -13792237.21444  21366448.8584   21366448.3764
 -17393956.11044 -13553722.67844  21044167.3544   21044167.0694
 -23660272.62444 -18436569.58644  20543871.0294   20543870.7114
 -19037507.13944 -14834411.58944  21396007.0014   21396006.8364
 96  3 14  3 41  0.0000000  0  7G24G25G17G 6G16G20G 5
  -6126492.54144  -4773873.11944  23144221.5334   23144221.7234
   -354079.15944   -275905.28044  24988372.8244   24988373.0774
  -8268569.29244  -6443037.43844  23483110.0004   23483109.4114
 -17755143.17144 -13835169.21144  21355964.7174   21355963.8574
 -17385637.86444 -13547240.92344  21045750.1254   21045750.0834
 -23634020.81244 -18416113.63744  20548866.3584   20548866.1544
 -18960218.88544 -14774186.98344  21410714.5094   21410714.1234
 96  3 14  3 41 30.0000000  0  7G24G25G17G 6G16G20G 5
  -6048961.75844  -4713459.62344  23158974.6894   23158975.1114
   -341734.52744   -266286.10644  24990721.4304   24990719.8954
  -8347738.92944  -6504728.03544  23468045.0424   23468045.4474
 -17810101.23244 -13877993.66844  21345506.7044   21345505.7474
 -17376745.93544 -13540312.14044  21047442.2504   21047442.1224
 -23607246.83844 -18395250.81044  20553961.0724   20553961.0964
 -18882575.25844 -14713685.45744  21425489.5744   21425489.2524
 96  3 14  3 42  0.0000000  0  7G24G25G17G 6G16G20G 5
  -5971376.08944  -4653003.24044  23173738.5874   23173738.0324
   -328957.72644   -256330.12044  24993152.2994   24993153.7584
  -8426737.52144  -6566285.34044  23453012.5644   23453013.4304
 -17864902.21844 -13920695.72044  21335077.9774   21335077.3804
 -17367249.97044 -13532912.67944  21049249.1054   21049249.2964
 -23579945.28144 -18373976.88544  20559156.6244   20559156.7854
 -18804555.28844 -14652890.67144  21440336.6124   21440336.2284
 96  3 14  3 42 30.0000000  0  7G24G25G17G 6G16G20G 5
  -5893744.23744  -4592510.88944  23188512.4274   23188511.8184
   -315754.43644   -246041.88844  24995665.5184   24995664.7334
  -8505560.77844  -6627706.02844  23438012.5784   23438013.0644
 -17919549.24044 -13963277.80344  21324678.8364   21324678.3064
 -17357157.13244 -13525048.12044  21051169.9234   21051169.7394
 -23552089.00744 -18352270.71244  20564457.3954   20564457.5734
 -18726146.60044 -14591793.00044  21455257.4934   21455257.0714
 96  3 14  3 43  0.0000000  0  7G24G25G17G 6G16G20G 5
  -5816081.61344  -4531994.55844  23203290.3334   23203289.7114
   -302139.84144   -235433.13244  24998256.4784   24998254.9074
  -8584214.08644  -6688994.28844  23423044.3734   23423046.3074
 -17974041.41544 -14005739.22944  21314309.8074   21314308.9104
 -17346474.75944 -13516724.18744  21053202.7184   21053202.8854
 -23523681.64444 -18330135.11044  20569863.2524   20569863.2154
 -18647336.36744 -14530382.42544  21470254.3434   21470254.2044
 96  3 14  3 43 30.0000000  0  7G24G25G17G 6G16G20G 5
  -5738405.20444  -4471467.50244  23218071.6964   23218072.0174
   -288122.24544   -224510.44744  25000923.7924   25000923.5024
  -8662696.34544  -6750149.25244  23408110.2194   23408110.6964
 -18028395.36244 -14048092.94944  21303966.7344   21303966.0614
 -17335211.93644 -13507947.95644  21055346.1044   21055345.7744
 -23494708.20844 -18307558.41244  20575376.6884   20575376.5444
 -18568118.77444 -14468654.44144  21485328.5024   21485328.1674
 96  3 14  3 44  0.0000000  0  7G24G25G17G 6G16G20G 5
  -5660722.87944  -4410935.81744  23232853.9064   23232854.4454
   -273705.40944   -213276.56644  25003668.3544   25003664.7874
  -8740991.42344  -6811158.38044  23393210.8924   23393210.8704
 -18082619.48244 -14090345.50644  21293647.8824   21293647.3504
 -17323388.56944 -13498734.93644  21057595.8294   21057595.6984
 -23465142.44344 -18284520.15744  20581002.6894   20581002.8284
 -18488489.40944 -14406605.59444  21500481.5704   21500481.4924
 96  3 14  3 44 30.0000000  0  7G24G25G17G 6G16G20G 5
  -5583031.01044  -4350396.71244  23247638.3784   23247638.4744
   -258872.74444   -201718.61644  25006491.5584   25006490.4424
  -8819080.89044  -6872007.28444  23378351.1364   23378352.7124
 -18136693.88344 -14132481.39844  21283357.8364   21283357.1094
 -17310997.04944 -13489079.20244  21059954.0344   21059953.8674
 -23434984.10344 -18261020.15844  20586741.7134   20586741.8184
 -18408452.43544 -14344239.14144  21515712.3804   21515712.0774
 96  3 14  3 45  0.0000000  0  7G24G25G17G 6G16G20G 5
  -5505333.87844  -4289853.48144  23262424.3874   23262423.1004
   -243621.40144                  25009392.1664
  -8896959.44744  -6932691.82444  23363529.9644   23363533.0504
 -18190613.82144 -14174496.93144  21273096.8994   21273096.5154
 -17298025.37944 -13478971.40244  21062422.2884   21062422.0514
 -23404238.45544 -18237062.51844  20592592.3874   20592592.4744
 -18328016.70944 -14281561.97344  21531018.5124   21531018.6914
 96  3 14  3 45 30.0000000  0  7G24G25G17G 6G16G20G 5
  -5427639.68044  -4229312.53244  23277208.0814   23277209.0334
   -227933.84844                  25012378.5874
  -8974616.78744  -6993204.00744  23348754.0894   23348754.4854
 -18244369.88444 -14216384.76344  21262867.8944   21262867.2534
 -17284457.93944 -13468399.36644  21065003.9914   21065004.1744
 -23372892.56044 -18212637.16144  20598557.6394   20598557.6394
 -18247195.02544 -14218584.06344  21546398.9634   21546398.4994
 96  3 14  3 46  0.0000000  0  7G24G25G17G 6G16G20G 5
  -5349945.53744  -4168771.66444  23291992.4724   23291994.4464
   -211810.47644   -165048.46444  25015446.7964
  -9052040.69444  -7053534.30944  23334021.0534   23334020.6104
 -18297943.90844 -14258130.75044  21252673.0754   21252671.9964
 -17270281.42244 -13457352.72644  21067701.8954   21067701.7904
 -23340970.27244 -18187762.66244  20604632.0594   20604632.3394
 -18165995.84544 -14155312.00344  21561850.3864   21561849.9924
 96  3 14  3 46 30.0000000  0  7G24G25G17G 6G16G20G 5
  -5272239.79844  -4108221.75544  23306779.7804   23306778.7364
   -195237.32544                  25018600.5354
  -9129223.73344  -7113676.90644  23319334.0394   23319333.4404
 -18351315.46844 -14299718.97944  21242517.2774   21242516.0964
 -17255471.73344 -13445812.71144  21070519.9414   21070520.0134
 -23308471.42544 -18162438.89544  20610816.3894   20610816.6494
 -18084423.04344 -14091748.78244  21577373.2594   21577372.6824
 96  3 14  3 47  0.0000000  0  7G24G25G17G 6G16G20G 5
  -5194530.69144  -4047669.20644  23321568.7014   23321568.1734
   -178215.35344                  25021839.3474
  -9206171.18844  -7173635.94344  23304690.4004   23304691.1164
 -18404499.17044 -14341160.82444  21232396.1664   21232395.3434
 -17240043.70944 -13433790.86644  21073455.6374   21073455.3094
 -23275384.29844 -18136656.73244  20617112.7764   20617113.1014
 -18002471.66644 -14027890.57844  21592968.0794   21592967.5824
 96  3 14  3 47 30.0000000  0  7G24G25G17G 6G16G20G 5
  -5116804.65944  -3987103.47644  23336358.4324   23336357.4114
   -160754.92244                  25025163.1094
  -9282890.22944  -7233416.96944  23290090.6864   23290093.1934
 -18457517.81044 -14382474.04744  21222307.1854   21222306.4474
 -17224009.80744 -13421296.91444  21076506.7634   21076506.8344
 -23241724.84844 -18110428.59144  20623517.9734   20623518.2854
 -17920150.52344 -13963744.24544  21608633.6104   21608633.0674
 96  3 14  3 48  0.0000000  0  7G24G25G17G 6G16G20G 5
  -5039019.00544  -3926491.28244  23351160.8714   23351161.1764
   -142852.63144                  25028567.5054
  -9359369.11644  -7293010.86544  23275537.7194   23275537.4664
 -18510364.90544 -14423653.59344  21212250.7814   21212249.8934
 -17207367.66844 -13408329.01244  21079673.7044   21079673.6724
 -23207486.71144 -18083749.53344  20630032.9574   20630033.2554
 -17837431.96644 -13899288.25044  21624374.3504   21624373.9424
 96  3 14  3 48 30.0000000  0  7G24G25G17G 6G16G20G 5
  -4961189.34844  -3865844.81444  23365971.4044   23365971.8694
   -124527.75744    -97036.60644  25032055.8464   25032056.3654
  -9435644.84144  -7352446.48844  23261023.8474   23261024.4734
 -18563066.74944 -14464719.96044  21202222.0814   21202220.9654
 -17190155.24444 -13394916.73244  21082949.4764   21082949.0274
 -23172678.71944 -18056626.43144  20636656.9824   20636656.8714
 -17754334.71744 -13834537.16544  21640186.9384   21640186.7424
 96  3 14  3 49  0.0000000  0  7G24G25G17G 6G16G20G 5
  -4883322.17744  -3805169.07944  23380788.8094   23380789.7624
   -105796.49744    -82440.53244  25035620.8594   25035622.1004
  -9511724.86044  -7411729.61044  23246545.6414   23246545.7144
 -18615652.68444 -14505696.01344  21192215.3824   21192214.2644
 -17172387.11144 -13381071.42844  21086330.3614   21086330.3014
 -23137311.67344 -18029067.70744  20643387.1524   20643387.4194
 -17670865.85044 -13769496.51244  21656070.5234   21656070.3764
 96  3 14  3 49 30.0000000  0  7G24G25G17G 6G16G20G 5
  -4805432.35544  -3744475.68344  23395610.0734   23395610.6534
    -86678.37744    -67541.30144  25039259.4904   25039259.1174
  -9587620.72444  -7470869.20744  23232102.2014   23232102.5984
 -18668114.10244 -14546575.03344  21182232.0504   21182231.1414
 -17154062.65944 -13366792.62844  21089817.5064   21089817.1904
 -23101404.40344 -18001088.02644  20650220.1194   20650219.9294
 -17587041.89844 -13704179.14444  21672021.2574   21672021.2094
 96  3 14  3 50  0.0000000  0  7G24G25G17G 6G16G20G 5
  -4727543.14344  -3683782.77344  23410432.7204   23410431.8954
    -67172.12944    -52337.30244  25042971.7144   25042971.4854
  -9663342.48244  -7529873.14744  23217693.7524   23217694.1354
 -18720428.21744 -14587339.27244  21172276.9274   21172276.3964
 -17135176.02944 -13352075.76644  21093411.4294   21093411.3304
 -23064945.31244 -17972678.35244  20657157.7684   20657157.7274
 -17502873.84844 -13638593.65144  21688038.3354   21688038.0834
 96  3 14  3 50 30.0000000  0  7G24G25G17G 6G16G20G 5
  -4649666.30544  -3623099.52244  23425252.5554   23425252.6644
    -47258.93144    -36812.47444  25046760.2284   25046760.3634
  -9738867.59044  -7588723.85744  23203321.1664   23203321.4784
 -18772581.85244 -14627978.46144  21162352.3874   21162351.7874
 -17115698.76044 -13336898.65944  21097117.9054   21097117.4984
 -23027909.53144 -17943819.30744  20664205.5044   20664205.4134
 -17418369.63744 -13572746.23144  21704118.6724   21704118.9604
 96  3 14  3 51  0.0000000  0  7G24G25G17G 6G16G20G 5
  -4571822.00544  -3562441.67344  23440065.5684   23440065.3024
    -26949.48644    -20969.38244  25050625.3544   25050625.0734
  -9814190.07144  -7647416.66944  23188988.1424   23188987.2794
 -18824575.20044 -14668492.75944  21152458.4994   21152457.8984
 -17095622.06444 -13321254.47844  21100938.5504   21100938.3914
 -22990306.60344 -17914518.33344  20671361.1664   20671361.0514
 -17333547.47844 -13506651.06544  21720260.3244   21720260.0134
 96  3 14  3 51 30.0000000  0  7G24G25G17G 6G16G20G 5
  -4494003.87444  -3501804.18344  23454873.5544   23454873.9124
     -6244.08844     -4829.05744  25054564.9714   25054564.7604
  -9889325.08844  -7705963.43544  23174689.8614   23174689.2764
 -18876388.42644 -14708866.69444  21142598.7404   21142598.0264
 -17074946.21244 -13305143.42144  21104872.8094   21104872.6614
 -22952138.91144 -17884777.28244  20678624.4364   20678624.4394
 -17248407.18344 -13440308.00044  21736461.6884   21736462.1144
 96  3 14  3 52  0.0000000  0  7G24G25G17G 6G16G20G 5
  -4416174.80344  -3441158.16344  23469683.7764   23469684.0554
     14872.12544     11606.85044  25058583.1924   25058582.8314
  -9964253.16144  -7764348.91044  23160431.5874   23160432.0054
 -18928018.12744 -14749097.62044  21132774.0204   21132773.2554
 -17053665.57144 -13288561.09744  21108922.3994   21108922.2184
 -22913398.54544 -17854589.98944  20685996.4424   20685996.4974
 -17162921.89344 -13373696.10644  21752729.3004   21752729.3664
 96  3 14  3 52 30.0000000  0  7G24G25G17G 6G16G20G 5
  -4338322.52944  -3380494.03244  23484499.0194   23484498.1264
     36410.22544     28380.23544  25062681.9084   25062682.0664
 -10038950.18244  -7822554.34844  23146217.3634   23146218.3894
 -18979453.98244 -14789177.49944  21122985.9324   21122985.3074
 -17031787.17244 -13271512.99244  21113085.5234   21113085.6384
 -22874092.10244 -17823961.60744  20693476.3304   20693476.6084
 -17077074.37644 -13306801.94544  21769065.2614   21769065.0104
 96  3 14  3 53  0.0000000  0  7G24G25G17G 6G16G20G 5
  -4260443.98544  -3319809.44644  23499318.7214   23499318.1784
     58356.75244     45476.49944  25066858.6094   25066857.5264
 -10113437.56344  -7880596.43944  23132043.2744   23132043.7824
 -19030695.02544 -14829105.58144  21113234.9144   21113234.0904
 -17009331.26244 -13254014.87344  21117358.9634   21117358.4494
 -22834241.48844 -17792909.18644  20701059.7474   20701059.2494
 -16990860.69844 -13239622.45444  21785471.2084   21785470.7284
 96  3 14  3 53 30.0000000  0  6G24G17G 6G16G20G 5
  -4182544.35744  -3259108.45344  23514141.6854   23514142.7734
 -10187725.01444  -7938482.75444  23117906.4294   23117906.6994
 -19081750.87644 -14868889.35644  21103519.8534   21103518.8784
 -16986313.37544 -13236078.84444  21121738.8824   21121738.8564
 -22793850.96844 -17761436.05944  20708745.7794   20708745.6844
 -16904283.05544 -13172159.35744  21801946.4424   21801946.5644
 96  3 14  3 54  0.0000000  0  6G24G17G 6G16G20G 5
  -4104645.24944  -3198407.85044  23528965.6414   23528967.0324
 -10261792.40944  -7996197.55344  23103811.9194   23103813.1354
 -19132620.75144 -14908528.21444  21093839.3024   21093838.3784
 -16962738.95944 -13217709.17144  21126225.0334   21126224.6114
 -22752928.37344 -17729548.33244  20716532.8864   20716532.7914
 -16817352.47244 -13104421.25744  21818488.8654   21818488.9084
 96  3 14  3 54 30.0000000  0  7G24G25G17G 6G16G20G 5
  -4026758.77044  -3137717.10344  23543787.0554   23543786.3804
        -0.18954         0.20954  25079843.6464
 -10335623.56844  -8053728.31244  23089761.8684   23089763.4994
 -19183279.31444 -14948002.41244  21084199.0304   21084198.5344
 -16938580.68044 -13198884.52744  21130822.2074   21130822.0614
 -22711444.86044 -17697223.52444  20724426.8544   20724426.9294
 -16730074.98044 -13036412.83244  21835096.9604   21835096.3624
 96  3 14  3 55  0.0000000  0  6G24G17G 6G16G 5G20
  -3948898.30644  -3077046.60144  23558603.8134   23558601.6464
 -10409243.88344  -8111094.75944  23075753.3074   23075753.9824
 -19233751.11044 -14987331.07144  21074594.5694   21074593.9374
 -16913846.57644 -13179611.19644  21135528.9854   21135528.7504
 -16642469.06344 -12968148.47844  21851767.6334   21851767.2414
 -22669408.14444 -17664467.64144  20732425.8384   20732425.9704
 96  3 14  3 55 30.0000000  0  6G24G17G 6G16G 5G20
  -3871062.77944  -3016395.54044  23573415.5214   23573417.2964
 -10482638.22544  -8168285.14144  23061786.0704   23061788.8864
 -19284033.10644 -15026511.83844  21065026.1944   21065025.6164
 -16888537.61544 -13159889.91744  21140344.9234   21140344.8244
 -16554535.05644 -12899628.47944  21868500.7874   21868501.1014
 -22626809.85444 -17631274.16644  20740532.2364   20740532.1604
 96  3 14  3 56  0.0000000  0  6G24G17G 6G16G20G 5
  -3793220.18944  -2955739.00444  23588227.8514   23588228.9064
 -10555775.06744  -8225274.87744  23047869.3594   23047869.5694
 -19334087.81944 -15065515.51044  21055501.2834   21055500.5774
 -16862625.61644 -13139698.75944  21145276.0394   21145275.8824
 -22583609.99844 -17597611.96044  20748753.2664   20748753.0594
 -16466251.64844 -12830836.23544  21885300.9184   21885300.6344
 96  3 14  3 56 30.0000000  0  7G24G23G17G 6G16G20G 5
  -3715366.58444  -2895073.87444  23603043.3644   23603043.2554
        -1.06454        -0.63854  25234825.6824
 -10628678.21144  -8282082.49744  23033995.8684   23033996.7534
 -19383933.27144 -15104356.12044  21046015.9994   21046015.3354
 -16836115.23144 -13119041.31344  21150320.5464   21150320.5774
 -22539809.92444 -17563482.04544  20757088.1784   20757087.8784
 -16377629.76144 -12761780.23844  21902165.1504   21902165.2134
 96  3 14  3 57  0.0000000  0  7G24G23G17G 6G16G20G 5
  -3637497.13944  -2834396.38144  23617861.7574   23617861.1844
   -107265.52144    -83583.28244  25214414.7874
 -10701372.96744  -8338727.73044  23020162.6924   23020162.4324
 -19433590.52444 -15143050.08044  21036566.4914   21036565.5164
 -16809036.15344 -13097940.73244  21155473.9254   21155473.7244
 -22495448.69344 -17528914.86044  20765529.6444   20765529.8334
 -16288681.24444 -12692469.71244  21919091.7104   21919091.8924
 96  3 14  3 57 30.0000000  0  7G24G23G17G 6G16G20G 5
  -3559605.22244  -2773701.36644  23632684.0384   23632683.9454
   -214542.11644   -167175.41444  25194002.1904   25194006.6844
 -10773851.32444  -8395204.34644  23006371.3524   23006370.3164
 -19483044.96844 -15181586.00944  21027156.1614   21027155.3284
 -16781380.01344 -13076390.49344  21160736.4524   21160736.3684
 -22450522.44844 -17493907.41244  20774078.7224   20774078.9834
 -16199399.69244 -12622899.69644  21936081.1324   21936081.3644
 96  3 14  3 58  0.0000000  0  7G24G23G17G 6G16G20G 5
  -3481719.92444  -2713011.54444  23647504.8804   23647504.4614
   -321868.36444   -250806.26444  25173578.0894   25173580.8294
 -10846152.47244  -8451542.88944  22992611.4264   22992611.8534
 -19532331.87844 -15219991.38944  21017776.6454   21017776.1724
 -16753166.30244 -13054405.77944  21166105.4134   21166105.1954
 -22405072.47144 -17458491.85644  20782727.7084   20782728.0414
 -16109814.88144 -12553093.36844  21953129.0114   21953129.1974
 96  3 14  3 58 30.0000000  0  7G24G23G17G 6G16G20G 5
  -3403840.00144  -2652325.89844  23662325.3294   23662325.0784
   -429228.09544   -334463.11644  25153148.1814   25153150.0694
 -10918281.41744  -8507747.24344  22978885.9794   22978886.3384
 -19581460.72444 -15258273.60644  21008427.4504   21008427.0174
 -16724394.36844 -13031986.09344  21171580.8054   21171580.9934
 -22359130.18544 -17422692.68444  20791470.2254   20791470.3484
 -16019920.72344 -12483045.99044  21970235.0284   21970234.4824
 96  3 14  3 59  0.0000000  0  7G24G23G17G 6G16G20G 5
  -3325947.17944  -2591630.19044  23677147.7194   23677146.2154
   -536590.91244   -418122.44944  25132717.8914
 -10990215.57444  -8563799.79144  22965196.9304   22965198.0814
 -19630404.94044 -15296411.95344  20999113.7824   20999112.9854
 -16695057.67144 -13009126.32344  21177163.4464   21177162.8544
 -22312675.92544 -17386494.56244  20800310.0394   20800310.1274
 -15929691.64444 -12412737.62444  21987405.2144   21987404.5794
 96  3 14  3 59 30.0000000  0  7G24G23G17G16G 5G 6G20
  -3248025.98444  -2530912.37344  23691974.9654   23691975.8974
   -643907.96844   -501746.07344  25112295.9204   25112304.3604
 -11061915.25444  -8619669.64644  22951553.5804   22951554.0194
 -16665132.78344 -12985808.22244  21182857.6454   21182857.5364
 -15839104.67644 -12342150.37944  22004643.1474   22004643.1674
 -19679139.84844 -15334387.20144  20989840.3174   20989839.6254
 -22265670.07944 -17349866.63844  20809255.3064   20809255.3144
 96  3 14  4  0  0.0000000  0  7G24G23G17G16G 5G 6G20
  -3170083.75744  -2470178.16444  23706806.9444   23706806.7564
   -751160.91744   -585319.83344  25091885.7544
 -11133385.21444  -8675360.49244  22937953.6444   22937953.6664
 -16634638.17844 -12962046.19344  21188660.5944   21188660.4004
 -15748177.51844 -12271298.06444  22021946.4484   22021945.8944
 -19727668.60244 -15372201.80644  20980605.4734   20980604.7334
 -22218123.62844 -17312817.45844  20818302.9784   20818302.7784
 96  3 14  4  0 30.0000000  0  7G24G23G17G16G 5G 6G20
  -3092146.70044  -2409448.01644  23721638.2254   23721637.6444
   -858345.97944                  25071470.6604
 -11204642.06144  -8730885.29444  22924393.7914   22924394.3864
 -16603610.09444 -12937868.46244  21194564.8484   21194564.5504
 -15656941.59644 -12200205.15144  22039307.6354   22039307.7414
 -19776000.58744 -15409863.09244  20971408.1374   20971407.2174
 -22170051.45344 -17275358.62244  20827450.7774   20827450.7774
 96  3 14  4  1  0.0000000  0  7G24G23G17G16G 5G 6G20
  -3014190.67344  -2348703.05344  23736473.2424   23736471.7984
   -964748.29644                  25051098.9874
 -11275652.95344  -8786218.43844  22910879.8334   22910879.9924
 -16572023.72244 -12913255.70544  21200575.4524   21200575.5104
 -15565377.88044 -12128856.83044  22056731.8514   22056731.8004
 -19824099.65344 -15447342.88044  20962254.9684   20962254.2954
 -22121409.09844 -17237455.49744  20836707.2874   20836707.2444
 96  3 14  4  1 30.0000000  0  6G24G17G16G 5G 6G20
  -2936255.25744  -2287974.19144  23751303.7404   23751303.3064
 -11346445.53544  -8841381.45744  22897409.2464   22897408.7964
 -16539897.11844 -12888221.98844  21206689.2424   21206689.1344
 -15473522.78744 -12057281.44944  22074210.7164   22074210.6484
 -19871994.77344 -15484663.74944  20953141.0404   20953140.1534
 -22072240.27644 -17199142.14144  20846063.9264   20846064.0834
 96  3 14  4  2  0.0000000  0  6G24G17G16G 5G 6G20
  -2858372.52244  -2227286.36244  23766123.9964   23766122.5714
 -11417053.40644  -8896400.55644  22883972.8944   22883973.1744
 -16507240.95244 -12862775.61944  21212903.5864   21212903.2274
 -15381402.69144 -11985499.57044  22091741.2614   22091741.7434
 -19919708.47644 -15521843.25444  20944061.4764   20944060.5064
 -22022572.26644 -17160439.80144  20855514.9224   20855515.0594
 96  3 14  4  2 30.0000000  0  7G24G23G17G16G 5G 6G20
  -2780508.07744  -2166612.76144  23780940.6234   23780943.0804
        -0.41454        -0.21554  24989927.4494   24989932.3034
 -11487439.93244  -8951247.16444  22870579.0864   22870579.7064
 -16474001.59544 -12836874.82044  21219228.7374   21219228.3494
 -15288985.62744 -11913486.29744  22109327.1724   22109326.8264
 -19967203.53944 -15558852.38744  20935023.4064   20935022.4494
 -21972364.08644 -17121316.55344  20865069.5184   20865069.2494
 96  3 14  4  3  0.0000000  0  7G24G23G17G16G 5G 6G20
  -2702707.98344  -2105989.30944  23795745.2854   23795745.6584
   -107219.58944    -83547.55944  24969524.7974   24969526.5424
 -11557639.89744  -9005948.42144  22857219.7754   22857219.9524
 -16440217.10944 -12810549.24544  21225657.6554   21225657.2124
 -15196309.53944 -11841271.17744  22126963.3684   22126962.3374
 -20014522.45544 -15595724.26444  20926018.8894   20926017.8574
 -21921665.59344 -17081811.24544  20874716.9364   20874716.8454
 96  3 14  4  3 30.0000000  0  7G24G23G17G16G 5G 6G20
  -2624985.64344  -2045426.46144  23810535.8234   23810535.8494
   -214476.42744   -167124.28544  24949115.0074
 -11627670.70744  -9060517.84644  22843893.2954   22843893.8184
 -16405906.92644 -12783814.03344  21232186.4704   21232186.1774
 -15103387.45544 -11768864.36344  22144646.0494   22144645.2134
 -20061677.98844 -15632468.83244  20917045.7564   20917044.7334
 -21870493.01744 -17041936.52044  20884454.7524   20884454.9294
 96  3 14  4  4  0.0000000  0  7G24G23G17G16G 5G 6G20
  -2547269.23244  -1984868.23844  23825325.1224   23825324.5204
   -321696.37044   -250672.27244  24928711.0464   24928714.3454
 -11697461.49944  -9114900.26344  22830612.5314   22830613.3624
 -16371013.26544 -12756624.16844  21238826.4384   21238826.2434
 -15010160.60344 -11696220.07244  22162386.3534   22162386.7744
 -20108596.67844 -15669028.84544  20908117.2394   20908116.5034
 -21818767.90544 -17001631.23844  20894297.9234   20894297.5434
 96  3 14  4  4 30.0000000  0  7G24G23G17G16G 5G 6G20
  -2469532.75244  -1924294.38444  23840118.5404   23840117.9774
   -428840.55544   -334161.19844  24908321.6024   24908324.5074
 -11766986.81244  -9169075.80444  22817382.8384   22817382.6194
 -16335546.17144 -12728987.46844  21245576.0134   21245575.7194
 -14916609.44744 -11623323.07944  22180188.4924   22180188.1454
 -20155248.51044 -15705380.92444  20899239.5644   20899238.9174
 -21766478.22844 -16960886.04444  20904248.1804   20904247.9864
 96  3 14  4  5  0.0000000  0  7G24G23G17G16G 5G 6G20
  -2391832.34644  -1863748.62444  23854904.4144   23854903.0794
   -535967.58644   -417636.71844  24887935.4394   24887938.7834
 -11836310.51344  -9223094.24844  22804190.6274   22804191.0574
 -16299586.04144 -12700966.58944  21252418.8634   21252418.8304
 -14822780.90244 -11550209.93844  22198043.4974   22198043.5174
 -20201702.92644 -15741579.17344  20890399.5834   20890398.6014
 -21713689.81344 -16919752.21944  20914293.8494   20914293.7194
 96  3 14  4  5 30.0000000  0  7G24G23G17G16G 5G 6G20
  -2314134.92244  -1803205.17244  23869689.2284   23869689.1954
   -643078.24044   -501099.50644  24867552.7624   24867555.6834
 -11905419.60144  -9276945.45544  22791039.4584   22791040.0494
 -16263116.00444 -12672548.37544  21259358.7404   21259358.6874
 -14728662.48144 -11476870.94444  22215953.4214   22215953.4864
 -20247940.74244 -15777608.64344  20881600.9084   20881600.3734
 -21660378.73744 -16878211.13144  20924438.3224   20924438.3484
 96  3 14  4  6  0.0000000  0  7G24G23G17G16G 5G 6G20
  -2236419.69844  -1742647.85044  23884478.3614   23884478.1944
   -750144.54144   -584527.70544  24847179.7714   24847181.0014
 -11974281.31544  -9330603.90444  22777935.6074   22777936.0154
 -16226102.73944 -12643706.86544  21266402.2424   21266402.1774
 -14634224.31844 -11403282.77844  22233924.5484   22233924.4154
 -20293928.91544 -15813443.57444  20872849.6954   20872849.0454
 -21606527.05944 -16836248.79344  20934686.0664   20934686.3034
 96  3 14  4  6 30.0000000  0  7G24G23G17G16G 6G20G 5
  -2158685.06344  -1682075.40544  23899271.2464   23899272.2884
   -857175.89844   -667928.77344  24826812.6384   24826812.9094
 -12042907.92444  -9384079.15744  22764876.3194   22764876.9134
 -16188548.82444 -12614444.07644  21273548.3454   21273548.3014
 -20339683.92544 -15849096.82344  20864142.9574   20864141.8074
 -21552159.29144 -16793884.31944  20945031.6544   20945032.0474
 -14539476.44644 -11329453.27944  22251954.6254   22251954.4384
 96  3 14  4  7  0.0000000  0  7G24G23G17G16G 5G 6G20
  -2080941.90044  -1621496.33244  23914064.5904   23914065.0514
   -964189.81044   -751316.11944  24806448.7934   24806449.1984
 -12111318.23544  -9437385.87044  22751859.2844   22751858.6634
 -16150442.66444 -12584750.96644  21280799.9694   21280799.5944
 -14444437.36844 -11255396.86944  22270040.1244   22270039.7564
 -20385223.77644 -15884582.41544  20855476.8234   20855476.0094
 -21497296.57344 -16751134.17144  20955471.3364   20955471.5324
 96  3 14  4  7 30.0000000  0  7G24G23G17G16G 6G20G 5
  -2003210.89144  -1560926.74444  23928855.4024   23928857.2634
  -1071183.91344   -834688.09744  24786087.0864
 -12179524.46644  -9490533.57844  22738879.5544   22738878.8684
 -16111779.02644 -12554623.45544  21288156.8044   21288156.4534
 -20430552.02144 -15919903.12344  20846851.1834   20846849.9534
 -21441959.04944 -16708014.03444  20966002.1464   20966001.8254
 -14349135.39644 -11181135.60744  22288174.8524   22288174.5384
 96  3 14  4  8  0.0000000  0  7G24G23G17G16G 5G 6G20
  -1925513.21844  -1500383.14044  23943640.5924   23943641.2164
  -1178144.91244   -918034.29544  24765733.1824   24765736.4454
 -12247537.96644  -9543531.08644  22725936.5374   22725936.1514
 -16072566.39044 -12524068.15844  21295619.7024   21295619.6064
 -14253586.09344 -11106681.61844  22306357.1394   22306356.3634
 -20475680.34944 -15955068.05244  20838263.4994   20838262.6854
 -21386155.70044 -16664530.91944  20976621.1244   20976621.1874
 96  3 14  4  8 30.0000000  0  7G24G23G17G 6G16G20G 5
  -1847835.43844  -1439855.00144  23958422.9354   23958423.2704
  -1285058.42944  -1001343.45544  24745388.1414   24745393.1994
 -12315354.43544  -9596375.06944  22713031.7574   22713031.4694
 -20520600.23544 -15990070.55744  20829715.7574   20829714.4234
 -16032797.54644 -12493079.44344  21303187.2344   21303187.0754
 -21329860.53044 -16620664.56244  20987334.1694   20987334.3744
 -14157795.88544 -11032039.91744  22324586.1794   22324585.6984
 96  3 14  4  9  0.0000000  0  7G24G23G17G 6G16G20G 5
  -1770172.87544  -1379338.73744  23973201.9064   23973202.1224
  -1391883.39444  -1084583.60344  24725060.1544   24725060.2794
 -12382954.16044  -9649050.15444  22700167.9084   22700168.0364
 -20565272.52244 -16024880.12944  20821214.8634   20821213.8724
 -15992447.32044 -12461637.71044  21310865.1954   21310865.0324
 -21273028.06344 -16576379.52744  20998149.3694   20998149.4104
 -14061740.55944 -10957191.62744  22342864.7834   22342864.8934
 96  3 14  4  9 30.0000000  0  7G24G23G17G 6G16G20G 5
  -1692569.47044  -1318868.54144  23987968.9484   23987968.4344
  -1498643.23044  -1167773.05844  24704743.2914   24704750.1564
 -12450366.47844  -9701579.21944  22687340.1064   22687340.2394
 -20609726.11844 -16059519.29044  20812755.4894   20812754.5264
 -15951567.40144 -12429783.22744  21318644.5344   21318644.5964
 -21215678.07244 -16531691.23444  21009062.0874   21009062.4244
 -13965466.53044 -10882172.89744  22361184.6284   22361184.5814
 96  3 14  4 10  0.0000000  0  7G24G23G17G 6G16G20G 5
  -1615024.84544  -1258444.19644  24002726.1574   24002724.9684
  -1605335.66044  -1250909.94244  24684440.3184   24684444.7024
 -12517585.28544  -9753957.49244  22674549.0404   22674549.6514
 -20653940.32344 -16093971.92344  20804341.7024   20804340.6084
 -15910165.63344 -12397522.10844  21326522.9204   21326522.7594
 -21157805.52244 -16486595.76044  21020074.9444   21020075.1754
 -13868972.99744 -10806983.13744  22379546.7784   22379546.8634
 96  3 14  4 10 30.0000000  0  7G24G23G17G 6G16G20G 5
  -1537507.08844  -1198040.75944  24017476.7184   24017474.5684
  -1711934.34844  -1333973.79944  24664155.6764   24664157.9154
 -12584569.95044  -9806153.31044  22661802.3154   22661802.1454
 -20697870.89544 -16128203.53844  20795982.2084   20795981.0424
 -15868203.66144 -12364824.47044  21334508.2414   21334508.0404
 -21099391.73644 -16441078.54644  21031190.4804   21031190.9264
 -13772218.62744 -10731590.13944  22397959.0844   22397958.5284
 96  3 14  4 11  0.0000000  0  7G24G23G17G 6G16G20G 5
  -1460016.87044  -1137658.76244  24032222.5314   24032223.8284
  -1818454.52244  -1416976.47644  24643885.5454   24643890.3604
 -12651317.23944  -9858164.16844  22649100.3014   22649100.7604
 -20741527.46244 -16162221.63344  20787674.5684   20787673.3214
 -15825696.49444 -12331702.00044  21342596.9724   21342596.8574
 -21040468.28744 -16395164.19144  21042403.1884   21042403.5734
 -13675198.83944 -10655990.30644  22416421.6114   22416421.1764
 96  3 14  4 11 30.0000000  0  7G24G23G17G 6G16G20G 5
  -1382523.27344  -1077274.15444  24046968.1834   24046967.5854
  -1924899.83844  -1499920.79344  24623630.8314   24623635.6174
 -12717803.19844  -9909971.40244  22636448.4654   22636448.5094
 -20784899.66744 -16196018.15644  20779421.1964   20779420.1394
 -15782634.72144 -12298147.36844  21350791.5284   21350791.7214
 -20981047.72444 -16348862.46544  21053710.8204   21053711.1384
 -13577898.87444 -10580172.15844  22434936.1644   22434936.2044
 96  3 14  4 12  0.0000000  0  7G24G23G17G 6G16G20G 5
  -1305028.73344  -1016888.78044  24061716.2004   24061715.9414
  -2031293.99344  -1582825.28844  24603384.0814   24603388.5714
 -12784037.02144  -9961582.15044  22623844.4064   22623844.5844
 -20828000.13744 -16229602.93944  20771219.2784   20771218.3094
 -15739028.66644 -12264168.62444  21359089.2734   21359089.1924
 -20921150.41144 -16302189.24544  21065108.8614   21065108.8624
 -13480316.97044 -10504134.33844  22453505.6784   22453505.6514
 96  3 14  4 12 30.0000000  0  7G24G23G17G 6G16G20G 5
  -1227536.00244   -956504.84544  24076462.1374   24076462.9994
  -2137666.17344  -1665712.63544  24583141.4074   24583144.2074
 -12850041.59444 -10013014.27244  22611284.4034   22611284.8154
 -20870873.13044 -16263010.46544  20763060.8714   20763059.7334
 -15694906.77944 -12229787.93744  21367485.8184   21367485.4164
 -20860786.28244 -16255152.26944  21076595.9364   21076595.7064
 -13382477.37944 -10427895.69244  22472124.1494   22472123.8264
 96  3 14  4 13  0.0000000  0  7G24G23G17G 6G16G20G 5
  -1150044.09044   -896121.57644  24091207.9334   24091210.9734
  -2244018.79044  -1748584.75544  24562904.8824   24562908.2404
 -12915837.40744 -10064283.71344  22598763.3874   22598763.4764
 -20913530.25144 -16296249.78044  20754943.2764   20754942.5534
 -15650280.84244 -12195014.48144  21375977.3854   21375977.6164
 -20799946.81944 -16207744.89944  21088173.1424   21088172.8524
 -13284401.33344 -10351472.81044  22490787.4344   22490786.7204
 96  3 14  4 13 30.0000000  0  7G24G23G17G 6G16G20G 5
  -1072568.78444   -835751.21844  24105951.8734   24105953.2284
  -2350337.25744  -1831430.26344  24542672.4514   24542675.3394
 -12981432.92344 -10115397.08744  22586280.1884   22586281.3354
 -20955967.74544 -16329317.95444  20746867.9204   20746866.8304
 -15605143.13944 -12159842.24644  21384566.6614   21384566.6464
 -20738613.55744 -16159952.74944  21099844.5964   21099844.8034
 -13186097.43944 -10274872.39944  22509494.2384   22509493.9154
 96  3 14  4 14  0.0000000  0  7G24G23G17G 6G16G20G 5
   -995138.03344   -775415.55744  24120685.7944   24120686.6034
  -2456620.29744  -1914248.17844  24522447.2404   24522451.0414
 -13046834.89244 -10166359.63544  22573835.4374   22573835.5034
 -20998201.73944 -16362227.56044  20738831.1404   20738830.0174
 -15559508.40944 -12124282.71244  21393251.3264   21393250.9924
 -20676785.46144 -16111775.01744  21111609.7654   21111610.2594
 -13087578.33944 -10198104.28744  22528241.9114   22528241.9504
 96  3 14  4 14 30.0000000  0  7G24G23G17G 6G16G20G 5
   -917748.02244   -715111.64044  24135413.1104   24135415.5954
  -2562822.86744  -1997003.38244  24502236.9184   24502239.4804
 -13112035.65244 -10217165.41344  22561427.9654   22561427.9574
 -21040212.19644 -16394962.97444  20730836.6044   20730835.9734
 -15513350.83944 -12088315.77644  21402034.2804   21402034.0824
 -20614454.66444 -16063205.57344  21123470.9884   21123471.5514
 -12988837.39044 -10121163.29444  22547031.8254   22547031.3244
 96  3 14  4 15  0.0000000  0  7G24G23G17G 6G16G20G 5
   -840411.57844   -654849.53144  24150128.0004   24150128.3084
  -2668917.26944  -2079674.29844  24482048.8744   24482051.9024
 -13177012.88844 -10267797.01144  22549063.5024   22549063.9054
 -21081973.14644 -16427503.96744  20722889.8454   20722889.0564
 -15466661.91644 -12051934.79644  21410919.2654   21410918.9754
 -20551635.36244 -16014255.48044  21135425.1794   21135425.5314
 -12889854.19144 -10044033.54044  22565867.7704   22565867.0664
 96  3 14  4 15 30.0000000  0  7G24G23G17G 6G16G20G 5
   -763112.81444   -594616.77244  24164838.9284   24164836.9244
  -2774885.44844  -2162246.85044  24461884.5424   24461883.9634
 -13241724.78844 -10318221.85644  22536749.0884   22536748.4444
 -21123465.77744 -16459835.88644  20714993.9294   20714992.7694
 -15419439.59344 -12015138.18144  21419905.1444   21419904.8434
 -20488337.20244 -15964932.25044  21147470.3014   21147470.4364
 -12790608.70044  -9966699.41144  22584753.2884   22584752.8244
 96  3 14  4 16  0.0000000  0  7G24G23G17G 6G16G20G 5
   -685844.97244   -534408.05044  24179542.7574   24179540.5934
  -2880736.66844  -2244728.28344  24441740.8314   24441744.7414
 -13306180.52444 -10368447.08844  22524483.8844   22524483.5444
 -21164687.51644 -16491956.72144  20707149.9094   20707148.7684
 -15371695.10744 -11977934.69444  21428990.7984   21428990.5934
 -20424585.55444 -15915255.65144  21159601.9364   21159602.3004
 -12691113.33044  -9889170.57444  22603686.3964   22603686.0054
 96  3 14  4 16 30.0000000  0  7G24G23G17G 6G16G20G 5
   -608585.63944   -474205.93244  24194245.0064   24194244.5624
  -2986471.98244  -2327119.38444  24421619.7584   24421624.1584
 -13370401.96244 -10418489.74844  22512262.2954   22512261.9794
 -21205634.63644 -16523863.56144  20699357.8934   20699356.9354
 -15323434.16944 -11940328.76644  21438174.6334   21438174.1904
 -20360384.46644 -15865228.84144  21171819.0644   21171819.0494
 -12591374.40344  -9811451.93644  22622666.1934   22622665.7524
 96  3 14  4 17  0.0000000  0  7G24G23G17G 6G16G20G 5
   -531333.02944   -414009.07044  24208946.1254   24208944.1794
  -3092127.49944  -2409448.29244  24401515.3304   24401518.1984
 -13434398.63844 -10468357.27644  22500084.0034   22500083.9864
 -21246329.64944 -16555573.95544  20691613.6894   20691612.8294
 -15274686.26844 -11902343.38844  21447450.9594   21447450.6214
 -20295739.71644 -15814856.32344  21184120.6234   21184120.6354
 -12491408.61744  -9733556.52944  22641688.7774   22641688.4504
 96  3 14  4 17 30.0000000  0  7G24G23G17G 6G16G20G 5
   -454090.61744   -353820.17144  24223644.8504   24223642.4994
  -3197716.38744  -2491725.31844  24381421.6744   24381424.1774
 -13498214.29044 -10518083.75744  22487941.2094   22487940.8354
 -21286784.01544 -16587096.83344  20683915.5164   20683914.7334
 -15225450.41744 -11863977.79044  21456820.0984   21456819.7924
 -20230648.02344 -15764135.53644  21196507.5404   21196507.2984
 -12391244.80344  -9655506.82844  22660750.0704   22660750.3334
 96  3 14  4 18  0.0000000  0  7G24G23G17G 6G16G20G 5
   -376861.82844   -293641.85344  24238339.6604   24238342.0094
  -3303244.67744  -2573955.12544  24361340.2124   24361343.2284
 -13561874.90744 -10567689.42444  22475826.4564   22475827.0754
 -21326998.75444 -16618432.99044  20676262.9404   20676261.8614
 -15175719.33844 -11825226.30044  21466283.4584   21466283.1744
 -20165087.09144 -15713049.10944  21208983.2784   21208982.9804
 -12290889.45844  -9577307.87444  22679846.6704   22679846.0954
 96  3 14  4 18 30.0000000  0  7G24G23G17G 6G16G20G 5
   -299665.80044   -233489.13244  24253030.4994   24253028.2584
  -3408723.28044  -2656146.18744  24341269.0004   24341270.7154
 -13625373.67944 -10617168.96944  22463742.4194   22463742.7084
 -21366985.08044 -16649591.16444  20668653.6724   20668652.8424
 -15125502.08244 -11786095.96944  21475839.8084   21475839.9794
 -20099055.58044 -15661595.99044  21221548.7524   21221548.4534
 -12190349.74244  -9498965.24144  22698978.9554   22698978.4924
 96  3 14  4 19  0.0000000  0  7G24G23G17G 6G16G20G 5
   -222519.36644   -173375.03644  24267710.0324   24267710.2214
  -3514141.96544  -2738290.58144  24321207.9294   24321210.2634
 -13688673.88944 -10666493.79444  22451697.1434   22451698.5444
 -21406712.80844 -16680547.83044  20661094.0314   20661093.3244
 -15074782.88744 -11746574.51744  21485491.2284   21485491.1554
 -20032545.72744 -15609770.13844  21234205.0774   21234205.3394
 -12089615.08744  -9420470.72244  22718148.3734   22718148.2934
 96  3 14  4 19 30.0000000  0  7G24G23G17G 6G16G20G 5
   -145433.90344   -113308.43844  24282378.9014   24282379.3024
  -3619495.42444  -2820384.15544  24301159.4854   24301160.7184
 -13751768.78144 -10715658.62644  22439690.4164   22439690.9254
 -21446165.54244 -16711290.21644  20653586.1914   20653585.6134
 -15023565.96344 -11706665.22144  21495237.2744   21495237.2484
 -19965562.18844 -15557575.18644  21246951.5604   21246951.9244
 -11988680.29044  -9341820.26444  22737355.4474   22737355.5004
 96  3 14  4 20  0.0000000  0  7G24G23G17G 6G16G20G 5
    -68392.57644    -53276.24444  24297040.3354   24297040.7024
  -3724785.11144  -2902428.02144  24281123.8294   24281125.0814
 -13814618.45344 -10764632.37044  22427730.6764   22427730.7544
 -21485326.68844 -16741805.39144  20646134.3134   20646133.3814
 -14971854.19144 -11666370.33844  21505077.6094   21505077.8674
 -19898105.33544 -15505011.41944  21259787.6494   21259788.2054
 -11887531.08144  -9263002.74044  22756602.9994   22756603.1734
 96  3 14  4 20 30.0000000  0  7G24G23G17G 6G16G20G 5
      8617.21744      6731.33244  24311691.6234   24311694.7124
  -3829977.84144  -2984396.36244  24261105.7354   24261106.3754
 -13877196.50644 -10813394.48244  22415822.9974   22415823.1114
 -21524175.01044 -16772076.81544  20638741.7514   20638740.6484
 -14919635.09744 -11625680.13344  21515014.9444   21515014.5024
 -19830172.91744 -15452077.08144  21272714.9424   21272715.3434
 -11786152.46544  -9184006.44044  22775895.2884   22775895.5334
 96  3 14  4 21  0.0000000  0  7G24G23G17G 6G16G20G 5
     85609.15644     66725.02544  24326344.6244   24326345.3644
  -3935060.58644  -3066278.92344  24241108.3624   24241110.0334
 -13939523.45144 -10861960.92144  22403962.1904   22403962.1574
 -21562727.30144 -16802117.55744  20631405.0634   20631404.5734
 -14866927.76044 -11584609.48044  21525044.8534   21525044.9434
 -19761779.60544 -15398783.60144  21285729.5964   21285729.9754
 -11684556.01644  -9104840.38744  22795227.8204   22795227.5834
 96  3 14  4 21 30.0000000  0  7G24G23G17G 6G16G20G 5
    162619.55244    126733.10944  24340999.8294   24340998.2254
  -4040010.23044  -3148057.86644  24221138.3774   24221139.4984
 -14001600.87344 -10910332.92644  22392148.8434   22392149.2424
 -21600993.29044 -16831935.20244  20624123.4034   20624122.9284
 -14813720.63444 -11543149.39144  21535169.6164   21535169.1874
 -19692926.07344 -15345131.51344  21298832.1664   21298832.4604
 -11582743.04444  -9025505.60044  22814602.5284   22814602.5524
 96  3 14  4 22  0.0000000  0  7G24G23G17G 6G16G20G 5
    239634.99044    186745.17444  24355655.2624   24355654.0544
  -4144820.76444  -3229728.40144  24201192.4974   24201193.4894
 -14063443.02644 -10958521.60244  22380381.1524   22380381.5714
 -21638987.22344 -16861540.86044  20616893.3444   20616892.4574
 -14760010.72844 -11501297.51544  21545390.3344   21545389.6674
 -19623630.50144 -15291134.97544  21312019.0774   21312019.5074
 -11480743.14144  -8946025.16144  22834012.6194   22834012.5784
 96  3 14  4 22 30.0000000  0  7G24G23G17G 6G16G20G 5
    316630.63144    246741.83044  24370308.2784   24370306.8884
  -4249475.54044  -3311277.50744  24181276.9654   24181278.5524
 -14125064.43444 -11006538.25944  22368655.1504   22368655.4864
 -21676726.29244 -16890947.92744  20609711.8524   20609710.5944
 -14705805.22544 -11459059.45644  21555704.8684   21555705.1694
 -19553906.85344 -15236804.87444  21325287.0184   21325287.2094
 -11378575.12744  -8866413.74044  22853454.2584   22853454.4964
 96  3 14  4 23  0.0000000  0  7G24G23G17G 6G16G20G 5
    393591.04744    306710.96044  24384953.1274   24384952.3714
  -4353993.97844  -3392720.41744  24161389.4514   24161390.1074
 -14186476.04844 -11054391.45444  22356968.6084   22356969.1164
 -21714211.77944 -16920157.40244  20602578.9524   20602578.0194
 -14651111.40844 -11416440.90344  21566113.0684   21566113.2214
 -19483772.92644 -15182155.07744  21338633.0204   21338633.3974
 -11276252.82644  -8786682.08644  22872926.0604   22872926.6654
 96  3 14  4 23 30.0000000  0  7G24G23G17G 6G16G20G 5
    470490.34944    366632.52644  24399587.1454   24399584.4394
  -4458388.35344  -3474066.68444  24141523.8174   24141524.2484
 -14247679.02144 -11102082.07244  22345322.2024   22345323.0844
 -21751416.76444 -16949148.29744  20595498.9244   20595498.2954
 -14595921.30244 -11373435.62644  21576615.3014   21576615.3044
 -19413232.67144 -15127188.66244  21352056.1664   21352056.7284
 -11173780.39744  -8706833.44044  22892425.2734   22892425.6794
 96  3 14  4 24  0.0000000  0  7G24G23G17G 6G16G20G 5
    547300.12544    426484.35144  24414203.1574   24414201.1014
  -4562679.07244  -3555332.14744  24121678.3044   24121678.5914
 -14308687.13244 -11149620.86944  22333712.4184   22333712.7134
 -21788342.77544 -16977921.80744  20588472.1664   20588471.3324
 -14540265.38344 -11330067.37644  21587206.3074   21587206.2554
 -19342295.31144 -15071912.80944  21365555.2064   21365555.3584
 -11071158.07244  -8626867.99844  22911953.6664   22911953.9654
 96  3 14  4 24 30.0000000  0  7G24G23G17G 6G16G20G 5
    624027.21144    486271.67444  24428802.9824   24428804.6064
  -4666880.45744  -3636528.01144  24101848.4144   24101848.9954
 -14369513.80244 -11197018.26344  22322137.7714   22322137.4224
 -21824992.29144 -17006479.86944  20581498.0014   20581497.2314
 -14484171.67544 -11286357.99144  21597880.7934   21597880.7424
 -19270964.04744 -15016330.00844  21379129.5654   21379129.1634
 -10968378.41244  -8546779.98044  22931511.6054   22931511.5124
 96  3 14  4 25  0.0000000  0  7G24G23G17G 6G16G20G 5
    700719.86544    546032.10344  24443396.0154   24443397.9144
  -4770981.61044  -3717645.77744  24082038.0554   24082039.4864
 -14430130.29144 -11244251.87744  22310602.8184   22310603.8114
 -21861325.44844 -17034791.41744  20574583.8554   20574583.2084
 -14427604.00644 -11242279.28744  21608644.9494   21608644.8644
 -19199194.01544 -14960405.32244  21392786.3544   21392786.1034
 -10865398.78244  -8466536.11744  22951108.6784   22951108.9954
 96  3 14  4 25 30.0000000  0  7G24G23G17G 6G16G20G 5
    777368.16344    605758.04844  24457981.5294   24457985.5974
  -4874998.42844  -3798697.82444  24062244.1894   24062245.4034
 -14490561.27844 -11291340.95144  22299103.4314   22299103.7494
 -21897368.94544 -17062877.25544  20567725.1914   20567724.3374
 -14370585.37444 -11197849.19444  21619495.2334   21619495.5884
 -19127003.85044 -14904153.25844  21406523.7314   21406523.5494
 -10762247.45344  -8386158.47944  22970737.7504   22970737.8824
 96  3 14  4 26  0.0000000  0  7G24G23G17G 6G16G20G 5
    854015.09044    665482.87544  24472567.8684   24472568.8654
  -4978895.56044  -3879656.62544  24042474.3144   24042473.1024
 -14550767.93344 -11338255.21244  22287646.3374   22287645.6254
 -21933105.13744 -17090723.63544  20560924.7954   20560923.9604
 -14313084.10144 -11153043.01044  21630437.5594   21630437.2514
 -19054346.14944 -14847536.87844  21420350.2614   21420350.4414
 -10658891.70844  -8305621.55344  22990405.3834   22990405.1884
 96  3 14  4 26 30.0000000  0  7G24G23G17G 6G16G20G 5
    930630.07044    725182.83444  24487148.7444   24487148.8554
  -5082700.71344  -3960543.71644  24022720.2504   24022719.7994
 -14610776.65944 -11385015.24344  22276226.8234   22276226.4534
 -21968563.58244 -17118353.59044  20554177.0674   20554176.2664
 -14255107.36544 -11107866.32644  21641469.8884   21641469.7744
 -18981245.91044 -14790575.66944  21434260.4644   21434260.9274
 -10555374.51344  -8224958.82544  23010104.6744   23010105.0884
 96  3 14  4 27  0.0000000  0  7G24G23G17G 6G16G20G 5
   1007220.14044    784863.40144  24501723.0164   24501722.5744
  -5186390.36944  -4041340.86844  24002988.6234   24002986.7424
 -14670557.39844 -11431597.63044  22264851.0634   22264851.3664
 -22003727.92044 -17145754.36844  20547485.5854   20547484.7354
 -14196631.14244 -11062300.43944  21652598.0684   21652597.5424
 -18907697.71044 -14733265.40544  21448256.8874   21448257.4564
 -10451679.69144  -8144157.66644  23029836.5814   23029836.2694
 96  3 14  4 27 30.0000000  0  7G24G23G17G 6G16G20G 5
   1083780.10544    844520.49844  24516292.0434   24516290.7504
  -5289946.74644  -4122034.15444  23983282.5454   23983282.8664
 -14730099.92244 -11477994.38344  22253520.1934   22253520.8984
 -22038603.85044 -17172930.41444  20540849.0074   20540848.0424
 -14137672.05944 -11016358.30144  21663817.4854   21663817.6884
 -18833710.23144 -14675612.84244  21462336.0234   21462336.3294
 -10347815.45544  -8063224.51744  23049600.6964   23049600.1254
 96  3 14  4 28  0.0000000  0  7G24G23G17G 6G16G20G 5
   1160279.24344    904130.22344  24530848.7934   24530847.9584
  -5393386.05544  -4202636.17144  23963598.5954   23963599.9174
 -14789409.50044 -11524209.61444  22242234.1044   22242234.6074
 -22073210.52444 -17199896.65544  20534263.5494   20534262.7744
 -14078254.91944 -10970059.22844  21675123.9064   21675124.2684
 -18759302.74444 -14617632.99144  21476495.4024   21476495.7414
 -10243791.37744  -7982166.82044  23069397.0294   23069396.7314
 96  3 14  4 28 30.0000000  0  7G24G23G17G 6G16G20G 5
   1236765.43444    963729.97544  24545404.2854   24545395.1014
  -5496661.32344  -4283110.38344  23943945.2824   23943948.3734
 -14848450.30944 -11570215.42444  22230999.5874   22230999.1944
 -22107500.91944 -17226616.44244  20527738.2974   20527737.4124
 -14018347.22544 -10923377.91044  21686523.7324   21686523.9594
 -18684460.99744 -14559314.76444  21490737.1304   21490737.2144
 -10139562.17444  -7900949.28544  23089231.0564   23089230.6304
 96  3 14  4 29  0.0000000  0  7G24G23G17G 6G16G20G 5
   1313216.44744                  24559952.2684
  -5599790.13244  -4363470.49444  23924322.5114   23924323.6664
 -14907256.95144 -11616038.76644  22219808.1354   22219808.7084
 -22141500.70444 -17253109.78144  20521268.6114   20521267.7204
 -13957984.30344 -10876341.87244  21698010.8934   21698010.5184
 -18609220.25344 -14500685.62544  21505055.3524   21505055.0024
 -10035163.31244  -7819599.53344  23109097.5354   23109097.1954
 96  3 14  4 29 30.0000000  0  8G24G23G26G17G 6G16G20G 5
   1389628.78944   1082845.39944  24574489.7334   24574489.3254
  -5702765.65544  -4443711.13944  23904726.3114   23904727.5504
        -0.71654                  23956702.4854
 -14965845.11744 -11661691.87044  22208659.6624   22208659.7904
 -22175211.95944 -17279378.28444  20514853.3094   20514852.2344
 -13897158.65844 -10828945.26044  21709585.7414   21709585.4584
 -18533565.43044 -14441733.82444  21519451.6534   21519451.5074
  -9930614.71744  -7738133.11744  23128991.6304   23128992.3414
 96  3 14  4 30  0.0000000  0  8G24G23G26G17G 6G16G20G 5
   1466058.55844   1142408.78344  24589033.5004   24589033.5944
  -5805525.77444  -4523783.93444  23885171.6384   23885172.9994
    -77799.40544                  23941900.5694
 -15024180.89144 -11707148.29544  22197558.8334   22197558.9014
 -22208569.28444 -17305371.00144  20508505.7874   20508504.7704
 -13835810.48844 -10781141.49344  21721259.8334   21721259.3954
 -18457452.86644 -14382425.34844  21533935.3044   21533935.4244
  -9825864.35844  -7656509.48044  23148925.4804   23148925.3494
 96  3 14  4 30 30.0000000  0  7G24G23G17G 6G16G20G 5
   1542460.22944   1201937.07744  24603573.6394   24603573.0714
  -5908117.31744  -4603725.38144  23865648.3564   23865649.8484
 -15082338.28144 -11752465.71944  22186491.4104   22186491.1764
 -22241636.72244 -17331137.83644  20502213.1394   20502212.0994
 -13774000.38744 -10732977.77344  21733022.4354   21733022.0904
 -18380945.71844 -14322809.40644  21548493.7734   21548494.0474
  -9720987.38944  -7574787.17444  23168882.4784   23168882.6704
 96  3 14  4 31  0.0000000  0  7G24G23G17G 6G16G20G 5
   1618772.59444   1261399.74544  24618097.9404   24618100.6124
  -6010583.15344  -4683568.87744  23846149.9194   23846152.2664
 -15140356.85244 -11797674.97944  22175451.2554   22175451.3344
 -22274462.76044 -17356716.56844  20495966.5744   20495965.5164
 -13711785.64544 -10684498.75444  21744860.9134   21744861.1844
 -18304086.00544 -14262918.73544  21563119.7124   21563120.1074
  -9616046.80044  -7493015.29644  23188852.6184   23188852.2044
 96  3 14  4 31 30.0000000  0  7G24G23G17G 6G16G20G 5
   1695039.18144   1320828.27344  24632612.0124   24632611.4054
  -6112887.44244  -4763286.47444  23826682.4024   23826682.9204
 -15198176.01344 -11842728.84944  22164449.0194   22164448.3424
 -22306999.79644 -17382070.09644  20489774.9544   20489773.9584
 -13649142.73944 -10635686.10944  21756781.5514   21756781.1374
 -18226841.56444 -14202728.26944  21577819.4214   21577819.6624
  -9510983.38644  -7411147.70444  23208844.5934   23208846.1274
 96  3 14  4 32  0.0000000  0  7G24G23G17G 6G16G20G 5
   1771281.00544   1380237.46844  24647119.4124   24647119.1144
  -6215027.06244  -4842875.78044  23807246.8574   23807247.1574
 -15255766.07844 -11887604.20844  22153489.3344   22153489.3714
 -22339218.47144 -17407175.55944  20483644.1974   20483643.0324
 -13586069.39944 -10586538.04744  21768784.0204   21768783.8074
 -18149219.71644 -14142243.72844  21592590.3454   21592590.2954
  -9405775.22044  -7329167.32144  23228865.6184   23228866.9524
 96  3 14  4 32 30.0000000  0  8G24G23G26G17G 6G16G20G 5
   1847494.21944   1439624.40144  24661623.5164   24661622.0864
  -6317013.57744  -4922345.75144  23787838.3124   23787838.1214
        -0.42954                  23868171.6904
 -15313104.22644 -11932283.27244  22142578.1214   22142578.4924
 -22371112.77644 -17432028.26244  20477574.6724   20477573.7084
 -13522563.49044 -10537052.92644  21780868.6484   21780868.3244
 -18071213.42044 -14081459.61144  21607433.9584   21607434.3444
  -9300423.00344  -7247074.69944  23248913.1954   23248914.5074
 96  3 14  4 33  0.0000000  0  8G24G23G26G17G 6G16G20G 5
   1923634.82444                  24676112.5614
  -6418895.38944  -5001734.16244  23768451.0244   23768452.1904
    -77202.85044                  23853481.1134
 -15370208.25944 -11976779.90444  22131711.6104   22131712.6164
 -22402692.19144 -17456635.59244  20471565.3054   20471564.3124
 -13458656.70644 -10487255.43244  21793029.6134   21793030.0234
 -17992849.22644 -14020396.62044  21622346.3764   21622346.7364
  -9194946.02044  -7164884.84644  23268984.9804   23268984.9024
 96  3 14  4 33 30.0000000  0  8G24G23G26G17G 6G16G20G 5
   1999702.40744                  24690583.9774
  -6520690.81244  -5081055.26844  23749079.9894   23749080.1324
   -154332.03344                  23838803.4534
 -15427104.73144 -12021114.79644  22120884.1724   22120884.7654
 -22433961.88544 -17481001.58344  20465614.9344   20465614.0384
 -13394347.84944 -10437144.64144  21805267.3194   21805267.1134
 -17914132.42844 -13959058.86444  21637326.0964   21637326.3124
  -9089355.15344  -7082606.25044  23289078.6974   23289079.7504
 96  3 14  4 34  0.0000000  0  7G23G26G17G 6G16G20G 5
  -6622377.69944  -5160291.78844  23729729.8504   23729730.7464
   -231373.24444                  23824144.1434
 -15483813.54644 -12065303.46244  22110093.1694   22110093.3984
 -22464911.30544 -17505118.01644  20459725.5204   20459724.4234
 -13329620.94344 -10386708.09344  21817584.7834   21817584.4124
 -17835047.05344 -13897433.90944  21652375.0124   21652375.3824
  -8983663.91444  -7000249.44244  23309190.3784   23309190.9644
 96  3 14  4 34 30.0000000  0  7G23G26G17G 6G16G20G 5
  -6723944.30544  -5239434.57644  23710401.9334   23710400.5414
   -308308.10544                  23809502.9254
 -15540348.45044 -12109356.61644  22099335.0054   22099335.1534
 -22495542.96444 -17528986.84744  20453896.2334   20453895.2494
 -13264474.05744 -10335944.28144  21829981.6944   21829981.4284
 -17755580.44644 -13835511.88744  21667497.1674   21667497.7324
  -8877875.85444  -6917817.17444  23329321.6474   23329322.6054
 96  3 14  4 35  0.0000000  0  7G23G26G17G 6G16G20G 5
  -6825326.95444  -5318434.01644  23691109.2834   23691109.0004
   -385075.50544                  23794894.1534
 -15596678.14544 -12153249.86544  22088616.1454   22088615.8914
 -22525815.35844 -17552575.72744  20448135.6654   20448134.6374
 -13198860.52844 -10284816.85944  21842466.5414   21842466.6934
 -17675689.92544 -13773259.54944  21682699.9914   21682700.3774
  -8771941.94144  -6835271.29544  23349479.7624   23349481.2564
 96  3 14  4 35 30.0000000  0  7G23G26G17G 6G16G20G 5
  -6926514.12444  -5397281.14944  23671853.9914   23671854.8134
   -461668.67644                  23780318.5314
 -15652815.85444 -12196993.51244  22077933.9364   22077933.8804
 -22555757.07444 -17575906.93044  20442438.0904   20442436.9684
 -13132792.85444 -10233335.55444  21855039.2614   21855039.4584
 -17595395.75344 -13710692.67444  21697979.1934   21697979.7914
  -8665887.95844  -6752631.86144  23369661.0164   23369661.1864
 96  3 14  4 36  0.0000000  0  7G23G26G17G 6G16G20G 5
  -7027475.92044  -5475952.62844  23652641.4264   23652641.0954
   -538051.65444                  23765783.3334
 -15708715.66844 -12240551.78844  22067295.4964   22067295.8934
 -22585344.64344 -17598962.17044  20436807.5834   20436806.9644
 -13066251.99844 -10181485.53544  21867702.1734   21867702.0724
 -17514682.69744 -13647799.40044  21713338.4374   21713338.7184
  -8559686.72844  -6669877.68344  23389871.0374   23389872.2464
 96  3 14  4 36 30.0000000  0  7G23G26G17G 6G16G20G 5
  -7128231.97844  -5554463.82644  23633468.3484   23633467.4314
   -614234.34544                  23751286.2704
 -15764357.02044 -12283908.67044  22056707.6394   22056707.6394
 -22614594.79044 -17621754.48744  20431241.5704   20431240.8594
 -12999253.19844 -10129278.68144  21880451.3054   21880450.8804
 -17433569.10044 -13584594.01244  21728774.2484   21728774.2604
  -8453335.45544  -6587006.58244  23410108.9684   23410110.2364
 96  3 14  4 37  0.0000000  0  7G23G26G17G 6G16G20G 5
  -7228785.32344  -5632817.06944  23614333.4024   23614335.3994
   -690239.48144                  23736823.6764
 -15819724.74644 -12327052.33444  22046171.3274   22046171.5374
 -22643509.61744 -17644285.51944  20425739.4264   20425738.5174
 -12931802.99244 -10076720.08044  21893286.5554   21893286.3224
 -17352068.62744 -13521087.15944  21744283.4444   21744283.3484
  -8346840.91544  -6504023.82944  23430374.1864   23430374.4904
 96  3 14  4 37 30.0000000  0  7G23G26G17G 6G16G20G 5
  -7329165.13844  -5711035.07144  23595231.4004   23595233.2234
   -766102.06944                  23722388.3284
 -15874827.29044 -12369989.36444  22035686.0024   22035686.2614
 -22672096.74344 -17666561.20244  20420299.2614   20420298.3584
 -12863935.13244 -10023836.02844  21906201.4324   21906201.5464
 -17270206.70844 -13457298.65544  21759860.7484   21759860.8154
  -8240238.28344  -6420956.85844  23450660.4094   23450660.3704
 96  3 14  4 38  0.0000000  0  7G23G26G17G 6G16G20G 5
  -7429410.28944  -5789148.16344  23576155.6054   23576156.2234
   -841861.73644                  23707971.3244
 -15929709.45444 -12412754.67444  22025241.7624   22025242.2574
 -22700374.68844 -17688595.96744  20414918.3324   20414917.4134
 -12795688.57144  -9970656.89244  21919188.1204   21919188.2824
 -17188023.92544 -13393260.12444  21775499.7044   21775500.0434
  -8133552.27944  -6337824.90144  23470961.8014   23470962.7404
 96  3 14  4 38 30.0000000  0  7G23G26G17G 6G16G20G 5
  -7529487.19244  -5867130.13444  23557111.8334   23557112.5144
   -917500.06244                  23693578.4734
 -15984362.47244 -12455341.42944  22014841.7834   22014842.1624
 -22728311.03044 -17710364.55044  20409602.0674   20409600.8314
 -12727040.94444  -9917165.24244  21932251.4544   21932251.8314
 -17105496.51044 -13328953.06144  21791203.8804   21791204.3174
  -8026759.57744  -6254609.81044  23491284.2904   23491285.1124
 96  3 14  4 39  0.0000000  0  7G23G26G17G 6G16G20G 5
  -7629407.96744  -5944990.47644  23538097.8354   23538098.1274
   -993013.86544                  23679207.6464
 -16038821.92044 -12497777.34344  22004477.9454   22004478.3904
 -22755917.95744 -17731876.43344  20404348.5444   20404347.6894
 -12658008.57244  -9863373.78144  21945388.1714   21945387.6054
 -17022645.05444 -13264393.49844  21806970.4704   21806970.4594
  -7919894.68044  -6171338.48344  23511619.3284   23511621.5464
 96  3 14  4 39 30.0000000  0  7G23G26G17G 6G16G20G 5
  -7729164.34544  -6022722.69444  23519114.9384   23519114.5134
  -1068366.56144                  23664868.1554
 -16093095.97644 -12540068.79544  21994150.2074   21994150.5314
 -22783191.24144 -17753128.33644  20399158.7724   20399157.6934
 -12588584.82044  -9809277.35344  21958598.9384   21958598.6954
 -16939466.59844 -13199579.12544  21822798.8504   21822799.4384
  -7812944.68944  -6088000.83744  23531971.3714   23531971.7004
 96  3 14  4 40  0.0000000  0  7G23G26G17G 6G16G20G 5
  -7828724.36344  -6100301.91944  23500169.7944   23500169.8594
  -1143524.04544                  23650564.7974
 -16147167.39444 -12582202.35244  21983860.8144   21983860.8584
 -22810114.47844 -17774107.48044  20394035.3204   20394034.3904
 -12518731.30544  -9754846.04144  21971891.6454   21971891.5564
 -16855935.82944 -13134490.22444  21838693.6204   21838693.8684
  -7705880.42544  -6004574.15644  23552344.5004   23552343.9154
 96  3 14  4 40 30.0000000  0  7G23G26G17G 6G16G20G 5
  -7928122.49844  -6177754.99444  23481254.9864   23481254.4484
  -1218509.91444                  23636296.2984
 -16201063.25644 -12624199.11344  21973605.2094   21973604.9864
 -22836719.66244 -17794838.79444  20388972.6244   20388971.4744
 -12448474.53744  -9700100.51444  21985260.8414   21985260.7394
 -16772079.02544 -13069147.27144  21854651.3354   21854651.7904
  -7598750.82944  -5921096.56444  23572731.9144   23572731.8164
 96  3 14  4 41  0.0000000  0  7G23G26G17G 6G16G20G 5
  -8027340.21144  -6255067.48544  23462373.5514   23462374.7494
  -1293296.04644                  23622065.2564
 -16254756.46544 -12666037.95744  21963387.6734   21963387.9914
 -22862987.69544 -17815307.39344  20383973.9994   20383973.0384
 -12377796.13944  -9645026.43544  21998710.8894   21998710.9044
 -16687879.02544 -13003536.89544  21870674.3464   21870675.0724
  -7491546.80744  -5837560.97144  23593131.8614   23593132.3434
 96  3 14  4 41 30.0000000  0  8G22G23G26G17G 6G16G20G 5
        -0.28554                  24819200.7524
  -8126373.40444  -6332236.17244  23443528.5674   23443529.7284
  -1367904.73644  -1065898.25944  23607867.8864
 -16308247.47944 -12707719.24844  21953208.7804   21953208.3584
 -22888915.13144 -17835510.58644  20379039.8684   20379039.0674
 -12306707.64144  -9589632.79844  22012238.4454   22012238.7224
 -16603329.37044 -12937654.07044  21886763.3174   21886763.7504
  -7384263.94244  -5753963.91644  23613546.3414   23613547.2634
 96  3 14  4 42  0.0000000  0  8G22G23G26G17G 6G16G20G 5
    -81003.77244    -63120.01144  24803786.6844
  -8225231.74444  -6409268.64144  23424716.1684   23424716.1084
  -1442363.46344  -1123918.01644  23593700.1694
 -16361543.35944 -12749248.48344  21943066.6574   21943066.3944
 -22914501.76744 -17855448.22544  20374171.3364   20374170.1134
 -12235229.46944  -9533935.53144  22025840.3304   22025839.9314
 -16518437.66444 -12871504.70444  21902917.9784   21902918.2594
  -7276924.86544  -5670323.07744  23633973.3614   23633973.0534
 96  3 14  4 42 30.0000000  0  8G22G23G26G17G 6G16G20G 5
   -161682.88944   -125986.76044  24788432.6944
  -8323905.46844  -6486157.23244  23405939.1364   23405939.2554
  -1516660.40044  -1181811.71844  23579560.5354
 -16414624.72144 -12790610.56844  21932965.1074   21932965.6194
 -22939733.74744 -17875109.51444  20369369.6494   20369368.8244
 -12163368.71544  -9477940.14244  22039514.9884   22039514.5964
 -16433189.09144 -12805077.25944  21919140.3694   21919140.2094
  -7169513.24444  -5586625.70444  23654412.6134   23654410.8234
 96  3 14  4 43  0.0000000  0  8G22G23G26G17G 6G16G20G 5
   -242055.29844   -188614.53444  24773137.2634
  -8422378.57844  -6562889.49644  23387199.5944   23387200.6074
  -1590800.63844  -1239583.32144  23565453.0894
 -16467480.99044 -12831797.25444  21922906.8384   21922906.9114
 -22964620.92044 -17894502.11944  20364633.8504   20364632.7234
 -12091134.77744  -9421653.95744  22053260.5024   22053260.7414
 -16347587.22544 -12738374.51344  21935429.9474   21935430.1304
  -7062007.15144  -5502854.70644  23674870.6304   23674871.7374
 96  3 14  4 43 30.0000000  0  8G22G23G26G17G 6G16G20G 5
   -322108.86744                  24757903.5514
  -8520624.82944  -6639444.99744  23368504.9544   23368504.9774
  -1664763.58344  -1297216.78744  23551376.8294
 -16520096.27444 -12872796.16044  21912895.0194   21912895.2064
 -22989147.57744 -17913613.80244  20359966.6874   20359965.6524
 -12018510.16644  -9365063.34244  22067080.7904   22067080.7344
 -16261608.95244 -12671378.45944  21951790.8074   21951790.8874
  -6954378.12544  -5418987.91844  23695350.8864   23695350.9734
 96  3 14  4 44  0.0000000  0  8G22G23G26G17G 6G16G20G 5
   -401860.73144                  24742724.3674
  -8618647.02244  -6715825.92944  23349851.2614   23349851.3304
  -1738530.67044  -1354697.62144  23537340.6204
 -16572482.27844 -12913616.40344  21902926.1134   21902926.4454
 -23013327.09944 -17932454.99144  20355365.4314   20355364.4464
 -11945490.99844  -9308165.29244  22080975.5014   22080975.7304
 -16175279.70244 -12604108.92444  21968218.4204   21968218.7054
  -6846646.51544  -5335041.20944  23715851.9494   23715852.5144
 96  3 14  4 44 30.0000000  0  8G22G23G26G17G 6G16G20G 5
   -481306.95544                  24727606.2834
  -8716436.79444  -6792025.72044  23331241.4924   23331242.2274
  -1812084.40744  -1412012.19244  23523343.7474   23523340.5804
 -16624641.31744 -12954259.79544  21893000.8104   21893001.0584
 -23037171.97844 -17951035.41544  20350827.6324   20350826.9564
 -11872079.81544  -9250961.78344  22094945.3344   22094944.9934
 -16088620.68944 -12536582.42944  21984709.3694   21984709.9034
  -6738824.48344  -5251024.02744  23736369.1824   23736370.1514
 96  3 14  4 45  0.0000000  0  8G22G23G26G17G 6G16G20G 5
   -560435.61244   -436703.05244  24712545.8514   24712545.7524
  -8813991.85644  -6868042.63444  23312678.9594   23312679.9574
  -1885412.80044  -1469151.17844  23509389.3324   23509390.5364
 -16676578.63944 -12994730.42644  21883117.3444   21883117.7144
 -23060679.84344 -17969353.23444  20346354.4124   20346353.4974
 -11798277.08344  -9193453.16444  22108989.9144   22108989.1644
 -16001656.69744 -12468818.29344  22001258.3204   22001258.8224
  -6630931.22044  -5166951.35244  23756900.5914   23756899.7744
 96  3 14  4 45 30.0000000  0  8G22G23G26G17G 6G16G20G 5
   -639264.64444                  24697544.0904
  -8911358.94444  -6943913.09044  23294150.3164   23294151.3894
  -1958534.88044  -1526129.41144  23495474.7984   23495472.3634
 -16728327.06744 -13035053.85344  21873269.9344   21873269.6284
 -23083861.91644 -17987417.18844  20341943.1304   20341942.0274
 -11724113.55844  -9135663.40144  22123102.9464   22123102.7394
 -15914419.05344 -12400840.92044  22017858.9584   22017859.6744
  -6523025.98344  -5082869.36144  23777434.0574   23777434.1514
 96  3 14  4 46  0.0000000  0  8G22G23G26G17G 6G16G20G 5
   -717786.35544                  24682600.8204
  -9008536.28444  -7019635.66544  23275657.7404   23275658.7544
  -2031445.57944  -1582942.90844  23481600.5274   23481601.4724
 -16779867.09044 -13075214.89244  21863462.2324   21863462.1524
 -23106705.43844 -18005217.33644  20337595.7824   20337594.8774
 -11649593.54444  -9077595.85444  22137283.1504   22137283.2334
 -15826918.84844 -12332658.95344  22034509.2264   22034510.2774
  -6415119.99544  -4998786.77544  23797968.5424   23797969.3434
 96  3 14  4 46 30.0000000  0  8G22G23G26G17G 6G16G20G 5
   -795953.24844                  24667731.3094
  -9105484.98944  -7095180.09644  23257210.2154   23257210.4544
  -2104119.44244  -1639571.90244  23467771.4694   23467771.0524
 -16831146.46644 -13115172.83644  21853704.1104   21853703.9804
 -23129159.16544 -18022713.74944  20333323.1194   20333322.1554
 -11574686.56244  -9019226.78244  22151536.8854   22151537.2234
 -15739100.15844 -12264228.82044  22051220.9784   22051221.5314
  -6307164.40544  -4914665.51244  23818511.6734   23818512.2114
 96  3 14  4 47  0.0000000  0  8G22G23G26G17G 6G16G20G 5
   -873811.33744   -680891.89544  24652914.9434
  -9202266.29544  -7170594.07744  23238793.3324   23238792.8784
  -2176620.79144  -1696066.42544  23453974.0524   23453972.0404
 -16882218.72544 -13154969.39144  21843985.5984   21843985.4644
 -23151255.10244 -18039931.36544  20329118.5444   20329117.5414
 -11499437.20544  -8960590.92844  22165857.2154   22165856.9204
 -15650984.95044 -12195567.63044  22067988.0864   22067988.6494
  -6199201.69644  -4830538.71044  23839057.0564   23839057.9054
 96  3 14  4 47 30.0000000  0  8G22G23G26G17G 6G16G20G 5
   -951355.52944   -741315.95744  24638164.2314
  -9298872.78544  -7245871.85344  23220408.7384   23220408.1184
  -2248950.01344  -1752426.82644  23440210.4444   23440210.0354
 -16933096.03344 -13194614.03044  21834303.6954   21834303.6614
 -23172985.72944 -18056864.31944  20324983.3364   20324982.3494
 -11423838.42544  -8901682.78844  22180243.4384   22180242.8754
 -15562555.33744 -12126661.44844  22084816.3554   22084816.6924
  -6091231.74444  -4746406.27244  23859603.2024   23859602.6424
 96  3 14  4 48  0.0000000  0  8G22G23G26G17G 6G16G20G 5
  -1028575.70844   -801487.59244  24623468.3044
  -9395289.14444  -7321001.48444  23202062.0684   23202062.1314
  -2321095.65344  -1808644.23344  23426481.7564   23426482.6274
 -16983791.84944 -13234117.24944  21824656.6124   21824656.2324
 -23194350.02544 -18073511.82244  20320917.7314   20320916.7494
 -11347887.19044  -8842500.00844  22194696.1644   22194696.1514
 -15473820.03744 -12057517.05944  22101702.2604   22101702.0114
  -5983231.27044  -4662250.03844  23880153.8444   23880155.2974
 96  3 14  4 48 30.0000000  0  8G22G23G26G17G 6G16G20G 5
  -1105433.88444                  24608842.7424
  -9491489.46644  -7395962.75344  23183754.5824   23183755.2854
  -2393027.18144  -1864694.74044  23412793.6104   23412796.7234
 -17034304.88244 -13273478.04544  21815044.2414   21815044.4804
 -23215312.76244 -18089846.41744  20316928.5944   20316927.8424
 -11271553.06644  -8783018.87544  22209221.6494   22209221.9454
 -15384746.97544 -11988109.48544  22118652.1414   22118652.5264
  -5875156.46044  -4578035.90444  23900720.5874   23900720.5324
 96  3 14  4 49  0.0000000  0  8G22G23G26G17G 6G16G20G 5
  -1181904.88544   -920964.77944  24594290.5594   24594288.5254
  -9587449.72344  -7470736.96344  23165494.2204   23165495.2644
  -2464710.89244  -1920552.18744  23399152.9014   23399152.5384
 -17084622.74544 -13312686.75644  21805469.0744   21805469.3984
 -23235856.80344 -18105854.76344  20313019.3204   20313018.1224
 -11194821.95544  -8723228.40244  22223823.0794   22223822.9664
 -15295343.52144 -11918444.47544  22135664.4614   22135664.8844
  -5766986.45744  -4493747.57144  23921303.9774   23921303.6664
 96  3 14  4 49 30.0000000  0  8G22G23G26G17G 6G16G20G 5
  -1257981.60544   -980245.37644  24579813.4184   24579813.2504
  -9683152.41544  -7545310.46044  23147283.2154   23147282.8254
  -2536120.18344  -1976195.75144  23385563.9304   23385562.8934
 -17134727.18044 -13351729.16744  21795934.6854   21795934.9304
 -23255982.06544 -18121536.78144  20309189.5844   20309188.5624
 -11117687.47944  -8663123.61244  22238501.5774   22238501.6684
 -15205634.61944 -11848541.45344  22152735.9584   22152736.3394
  -5658713.14344  -4409378.75244  23941908.6674   23941908.7854
 96  3 14  4 50  0.0000000  0  8G22G23G26G17G 6G16G20G 5
  -1333649.92644                  24565415.4704
  -9778574.13644  -7619665.03744  23129125.3414   23129124.9584
  -2607235.96344  -2031610.60444  23372030.4974   23372029.4614
 -17184573.58044 -13390570.50844  21786448.7254   21786449.1204
 -23275673.12044 -18136880.44444  20305442.4034   20305441.6384
 -11040138.41744  -8602695.77544  22253258.5794   22253258.2634
 -15115620.10944 -11778400.28544  22169865.1684   22169865.5374
  -5550310.61844  -4324909.27144  23962536.2744   23962538.3364
 96  3 14  4 50 30.0000000  0  7G23G26G17G 6G16G20G 5
  -9873774.21644  -7693846.89744  23111009.1934   23111009.7124
  -2678129.06744  -2086851.98844  23358540.9444   23358540.1384
 -17234216.31644 -13429253.14044  21777002.4594   21777002.2924
 -23295002.56844 -18151942.34744  20301764.2014   20301763.2184
 -10962247.26144  -8542001.37044  22268080.9084   22268080.5914
 -15025363.24144 -11708070.27044  22187040.6144   22187041.0404
  -5441860.31044  -4240402.54444  23983174.6544   23983174.5604
 96  3 14  4 51  0.0000000  0  7G23G26G17G 6G16G20G 5
  -9968739.94544  -7767846.15244  23092937.1884   23092937.9524
  -2748772.79244  -2141899.03344  23345097.2664   23345095.6604
 -17283622.42144 -13467751.38744  21767600.6324   21767600.8534
 -23313975.78444 -18166726.66544  20298153.6374   20298152.6814
 -10884004.65944  -8481033.10144  22282969.5694   22282969.2534
 -14934858.08444 -11637546.77544  22204263.7114   22204263.7014
  -5333368.55844  -4155863.53244  24003820.0704   24003822.5644
 96  3 14  4 51 30.0000000  0  8G22G23G26G17G 6G16G20G 5
         0.21554         0.10954  24522620.9664
 -10063468.28144  -7841660.41544  23074911.3234   23074911.1104
  -2819163.29844  -2196748.76044  23331703.1084   23331703.7554
 -17332782.45944 -13506057.90544  21758246.3794   21758245.8724
 -23332587.94444 -18181229.65344  20294611.8884   20294611.0864
 -10805412.04544  -8419792.10444  22297925.1264   22297925.4674
 -14844087.12244 -11566816.16044  22221536.4154   22221536.5824
  -5224836.60844  -4071293.19544  24024472.7274   24024474.2904
 96  3 14  4 52  0.0000000  0  7G23G26G17G 6G16G20G 5
 -10157984.86044  -7915309.68244  23056924.9884   23056925.0954
  -2889337.84044  -2251430.19244  23318348.8364   23318349.1574
 -17381735.25644 -13544202.93444  21748930.7104   21748930.8074
 -23350864.90544 -18195471.45244  20291133.9364   20291133.0034
 -10726514.40644  -8358313.42644  22312939.1944   22312939.0864
 -14753065.36044 -11495890.11544  22238856.8034   22238857.0474
  -5116297.96244  -3986717.61544  24045126.2224   24045127.6114
 96  3 14  4 52 30.0000000  0  7G23G26G17G 6G16G20G 5
 -10252313.66444  -7988812.63544  23038974.9624   23038975.4414
  -2959305.34244  -2305950.28944  23305034.5684   23305035.0244
 -17430512.20844 -13582210.93744  21739649.0464   21739648.5214
 -23368820.86744 -18209463.09544  20287717.1844   20287716.4254
 -10647328.94344  -8296610.48744  22328007.3454   22328007.3294
 -14661786.80744 -11424763.98344  22256226.1984   22256227.2394
  -5007777.29844  -3902156.07844  24065776.7454
 96  3 14  4 53  0.0000000  0  8G22G23G26G17G 6G16G20G 5
        -0.41854        -0.56054  24480432.0524   24480427.1394
 -10346415.97244  -8062139.07544  23021067.9654   23021068.7844
  -3029025.87144  -2360277.95844  23291766.2434   23291765.8214
 -17479075.63744 -13620052.54944  21730407.3294   21730407.0764
 -23386407.87944 -18223167.25744  20284370.4824   20284369.5874
 -10567814.16944  -8234650.91044  22343138.4404   22343138.0894
 -14570212.43144 -11353407.34044  22273652.5864   22273653.4774
  -4899236.85544                  24086433.7364
 96  3 14  4 53 30.0000000  0  8G22G23G26G17G 6G16G20G 5
    -73189.61744                  24466500.9314
 -10440279.60844  -8135279.55144  23003205.9924   23003206.7004
  -3098515.70944  -2414425.87344  23278543.5554   23278543.8704
 -17527445.85444 -13657743.61244  21721202.3974   21721202.5264
 -23403620.58244 -18236579.75444  20281095.0034   20281093.6934
 -10487980.07844  -8172442.52944  22358330.3154   22358330.2904
 -14478343.33444 -11281821.03644  22291134.8954   22291134.9124
  -4790680.22244                  24107089.8134
 96  3 14  4 54  0.0000000  0  8G22G23G26G17G 6G16G20G 5
   -146034.45344                  24452642.0134
 -10533900.43744  -8208230.83144  22985391.7734   22985391.6774
  -3167764.98244  -2468386.31644  23265365.8474   23265366.2164
 -17575634.71944 -13695293.36144  21712032.3224   21712032.5544
 -23420448.67744 -18249692.55644  20277892.4314   20277891.6304
 -10407812.53744  -8109974.31144  22373586.2874   22373585.7744
 -14386172.24944 -11209999.42344  22308674.9464   22308675.1414
  -4682116.55344                  24127749.5804
 96  3 14  4 54 30.0000000  0  8G22G23G26G17G 6G16G20G 5
   -218539.76744                  24438840.3824
 -10627274.37544  -8280989.73544  22967622.8434   22967622.8074
  -3236759.63744  -2522148.38544  23252235.8454   23252236.4904
 -17623637.31544 -13732697.97244  21702897.4044   21702897.8514
 -23436889.60944 -18262503.66744  20274764.2174   20274763.2684
 -10327296.53044  -8047234.57744  22388907.9914   22388908.2504
 -14293703.26044 -11137945.67644  22326270.8094   22326271.0614
  -4573552.25844                  24148406.7254
 96  3 14  4 55  0.0000000  0  8G22G23G26G17G 6G16G20G 5
   -290688.63944                  24425111.4674
 -10720384.34244  -8353542.93444  22949904.0794   22949904.5924
  -3305494.01044  -2575707.62044  23239156.5234   23239157.5134
 -17671441.12444 -13769947.68244  21693800.8834   21693800.8884
 -23452933.49844 -18275005.39744  20271710.9444   20271710.0434
 -10246431.92844  -7984223.20244  22404295.9914   22404295.6814
 -14200958.76044 -11065677.24844  22343919.5524   22343920.1314
  -4464986.96144                  24169064.8844
 96  3 14  4 55 30.0000000  0  7G23G26G17G 6G16G20G 5
 -10813249.92444  -8425905.70344  22932232.7084   22932233.1294
  -3373974.17044  -2629068.76044  23226125.8014   23226123.8044
 -17719044.40144 -13807041.12444  21684742.9454   21684742.3154
 -23468576.44844 -18287194.71944  20268734.2354   20268733.6824
 -10165229.82644  -7920948.83044  22419748.0094   22419747.6174
 -14107945.48044 -10993199.37644  22361619.5364   22361619.6814
  -4356435.15444                  24189721.6064
 96  3 14  4 56  0.0000000  0  7G23G26G17G 6G16G20G 5
 -10905894.39844  -8498096.17944  22914602.3624   22914603.5024
  -3442198.56044  -2682230.60044  23213142.8494   23213142.3824
 -17766441.55444 -13843973.95844  21675723.3814   21675723.0124
 -23483816.31444 -18299069.94444  20265834.0494   20265833.2544
 -10083701.85144  -7857420.54444  22435262.0104   22435261.6724
 -14014686.09944 -10920529.73744  22379366.2484   22379366.3734
  -4247907.12344                  24210375.4024
 96  3 14  4 56 30.0000000  0  6G23G26G17G 6G16G20
 -10998310.59344  -8570108.77444  22897016.0804   22897016.6984
  -3510163.77144  -2735190.47544  23200208.9934   23200209.0274
 -17813605.38744 -13880724.99444  21666748.2114   21666748.5074
 -23498656.60044 -18310633.81344  20263010.1934   20263009.1984
 -10001856.96344  -7793645.31444  22450837.3704   22450837.0564
 -13921194.61144 -10847679.24044  22397157.3304   22397157.9424
 96  3 14  4 57  0.0000000  0  7G22G23G26G17G 6G16G20
        -1.15254                  24370898.2634
 -11090453.79444  -8641908.65744  22879481.6844   22879482.0174
  -3577815.97244  -2787906.45544  23187335.5074   23187334.6944
 -17860482.21344 -13917252.38244  21657827.9054   21657827.8714
 -23513053.38344 -18321852.08644  20260270.6664   20260269.8804
  -9919647.92144  -7729586.30544  22466480.9354   22466480.2524
 -13827418.33844 -10774606.82644  22415001.9224   22415002.9804
 96  3 14  4 57 30.0000000  0  7G22G23G26G17G 6G16G20
    -70217.12644                  24357536.9694
 -11182347.81444  -8713514.37144  22861995.2094   22861996.0084
  -3645162.13644  -2840383.96344  23174520.6264   23174518.6144
 -17907106.17444 -13953582.73444  21648955.7194   21648955.6874
 -23527030.30444 -18332743.18644  20257610.6744   20257609.8114
  -9837091.22944  -7665256.40544  22482190.2744   22482190.0744
 -13733366.72144 -10701319.86644  22432899.1734   22432899.6304
 96  3 14  4 58  0.0000000  0  7G22G23G26G17G 6G16G20
   -140050.39844   -109129.68844  24344248.2264
 -11274004.81244  -8784935.38144  22844553.2314   22844553.6934
  -3712223.61944  -2892639.64644  23161758.1564   23161758.6644
 -17953526.79644 -13989754.64444  21640122.0484   21640122.2034
 -23540643.24744 -18343350.66144  20255020.2074   20255019.1984
  -9754221.55044  -7600682.62244  22497960.0874   22497960.1274
 -13639087.99744 -10627855.95344  22450839.7164   22450840.3244
 96  3 14  4 58 30.0000000  0  7G22G23G26G17G 6G16G20
   -209497.69744   -163244.45544  24331034.5994
 -11365412.32044  -8856161.99544  22827159.8784   22827160.0824
  -3779003.54144  -2944675.93044  23149050.4734   23149050.7934
 -17999752.87244 -14025774.96244  21631325.5284   21631325.5234
 -23553898.70344 -18353679.57844  20252497.8384   20252497.0074
  -9671028.26644  -7535856.67644  22513791.4554   22513791.5134
 -13544572.42044 -10554207.47344  22468825.7964   22468826.2384
 96  3 14  4 59  0.0000000  0  7G22G23G26G17G 6G16G20
   -278575.23244   -217071.11544  24317890.2154
 -11456566.99144  -8927191.59744  22809813.7654   22809814.0114
  -3845511.92644  -2996500.61944  23136394.5424   23136395.0444
 -18045814.88944 -14061667.43344  21622560.4974   21622560.3994
 -23566795.18644 -18363728.78244  20250043.9044   20250042.8104
  -9587527.95944  -7470791.49244  22529681.2844   22529681.1064
 -13449835.79144 -10480386.71844  22486853.6984   22486853.2914
